[[{"header":{"parameterUnit":"m.s-1","parameterCategory":1,"la1":30.6,"la2":29.2853,"lo1":-89.7004,"lo2":-87.6739,"dx":0.0162,"dy":0.0183,"nx":112,"ny":82,"refTime":"2023-01-30T18:00:00:Z","depth":0,"parameterNumber":2,"parameterNumberName":"U-component_of_WINDS"},"data":[0.0,0.0,0.0,0.0,0.0,0.0,0.0,0.0,0.0,0.0,0.0,0.0,0.0,0.0,0.0,0.0,0.0,0.0,0.0,0.0,0.0,0.0,0.0,0.0,0.0,0.0,0.0,0.0,0.0,0.0,0.0,0.0,0.0,0.0,0.0,0.0,0.0,0.0,0.0,0.0,0.0,0.0,0.0,0.0,0.0,0.0,0.0,0.0,0.0,0.0,0.0,0.0,0.0,0.0,0.0,0.0,0.0,0.0,0.0,0.0,0.0,0.0,0.0,0.0,0.0,0.0,0.0,0.0,0.0,0.0,0.0,0.0,0.0,0.0,0.0,0.0,0.0,0.0,0.0,0.0,0.0,0.0,0.0,0.0,0.0,0.0,0.0,0.0,0.0,0.0,-1.1444,-1.4506,-1.6788,-1.7377,-1.5672,-1.2213,-0.8323,-0.4053,0.0,0.0,0.0,0.0,0.0,0.0,0.0,0.0,0.0,0.0,0.0,0.0,0.0,0.0,0.0,0.0,0.0,0.0,0.0,0.0,0.0,0.0,0.0,0.0,0.0,0.0,0.0,0.0,0.0,0.0,0.0,0.0,0.0,0.0,0.0,0.0,0.0,0.0,0.0,0.0,0.0,0.0,0.0,0.0,0.0,0.0,0.0,0.0,0.0,0.0,0.0,0.0,0.0,0.0,0.0,0.0,0.0,0.0,0.0,0.0,0.0,0.0,0.0,0.0,0.0,0.0,0.0,0.0,0.0,0.0,0.0,0.0,0.0,0.0,0.0,0.0,0.0,0.0,0.0,0.0,0.0,0.0,0.0,0.0,0.0,0.0,0.0,0.0,0.0,0.0,0.0,0.0,0.0,0.0,0.0,0.0,0.0,0.0,0.0,0.0,0.0,0.0,0.0,0.0,-1.5125,-1.9793,-1.9761,-1.8484,-1.6203,-1.2568,-0.8642,-0.4391,0.0,0.0,0.0,0.0,0.0,0.0,0.0,0.0,0.0,0.0,0.0,0.0,0.0,0.0,0.0,0.0,0.0,0.0,0.0,0.0,0.0,0.0,0.0,0.0,0.0,0.0,0.0,0.0,0.0,0.0,0.0,0.0,0.0,0.0,0.0,0.0,0.0,0.0,0.0,0.0,0.0,0.0,0.0,0.0,0.0,0.0,0.0,0.0,0.0,0.0,0.0,0.0,0.0,0.0,0.0,0.0,0.0,0.0,0.0,0.0,0.0,0.0,0.0,0.0,0.0,0.0,0.0,0.0,0.0,0.0,0.0,0.0,0.0,0.0,0.0,0.0,0.0,0.0,0.0,0.0,0.0,0.0,0.0,0.0,0.0,0.0,0.0,0.0,0.0,0.0,0.0,0.0,0.0,0.0,0.0,0.0,0.0,0.0,0.0,0.0,0.0,0.0,0.0,-1.5221,-1.82,-2.1429,-2.108,-1.9467,-1.6612,-1.4023,-1.1508,-0.9078,-0.4283,0.0,0.0,0.0,0.0,0.0,0.0,0.0,0.0,0.0,0.0,0.0,0.0,0.0,0.0,0.0,0.0,0.0,0.0,0.0,0.0,0.0,0.0,0.0,0.0,0.0,0.0,0.0,0.0,0.0,0.0,0.0,0.0,0.0,0.0,0.0,0.0,0.0,0.0,0.0,0.0,0.0,0.0,0.0,0.0,0.0,0.0,0.0,0.0,0.0,0.0,0.0,0.0,0.0,0.0,0.0,0.0,0.0,0.0,0.0,0.0,0.0,0.0,0.0,0.0,0.0,0.0,0.0,0.0,0.0,0.0,0.0,0.0,0.0,0.0,0.0,0.0,0.0,0.0,0.0,0.0,0.0,0.0,0.0,0.0,0.0,0.0,0.0,0.0,0.0,0.0,0.0,0.0,0.0,0.0,0.0,0.0,0.0,0.0,0.0,0.0,0.0,0.0,-1.8124,-1.9542,-2.136,-2.1024,-1.9469,-1.6509,-1.4894,-1.3618,-1.2612,-0.8184,0.0,0.0,0.0,0.0,0.0,0.0,0.0,0.0,0.0,0.0,0.0,0.0,0.0,0.0,0.0,0.0,0.0,0.0,0.0,0.0,0.0,0.0,0.0,0.0,0.0,0.0,0.0,0.0,0.0,0.0,0.0,0.0,0.0,0.0,0.0,0.0,0.0,0.0,0.0,0.0,0.0,0.0,0.0,0.0,0.0,0.0,0.0,0.0,0.0,0.0,0.0,0.0,0.0,0.0,0.0,0.0,0.0,0.0,0.0,0.0,0.0,0.0,0.0,0.0,0.0,0.0,0.0,0.0,0.0,0.0,0.0,0.0,0.0,0.0,0.0,0.0,0.0,0.0,0.0,0.0,0.0,0.0,0.0,0.0,0.0,0.0,0.0,0.0,0.0,0.0,0.0,0.0,0.0,0.0,0.0,0.0,0.0,0.0,0.0,0.0,0.0,0.0,-1.6682,-1.7753,-2.0005,-1.9197,-1.7636,-1.5478,-1.4108,-1.2845,-1.1575,-0.9842,0.0,0.0,0.0,0.0,0.0,0.0,0.0,0.0,0.0,0.0,0.0,0.0,0.0,0.0,0.0,0.0,0.0,0.0,0.0,0.0,0.0,0.0,0.0,0.0,0.0,0.0,0.0,0.0,0.0,0.0,0.0,0.0,0.0,0.0,0.0,0.0,0.0,0.0,0.0,0.0,0.0,0.0,0.0,0.0,0.0,0.0,0.0,0.0,0.0,0.0,0.0,0.0,0.0,0.0,0.0,0.0,0.0,0.0,0.0,0.0,0.0,0.0,0.0,0.0,0.0,0.0,0.0,0.0,0.0,0.0,0.0,0.0,0.0,0.0,0.0,0.0,0.0,0.0,0.0,0.0,0.0,0.0,0.0,0.0,0.0,0.0,0.0,0.0,0.0,0.0,0.0,0.0,0.0,0.0,0.0,0.0,0.0,0.0,0.0,0.0,0.0,0.0,-1.564,-1.6538,-1.79,-1.7708,-1.6334,-1.3449,-1.2801,-1.2278,-1.1686,0.0,0.0,0.0,0.0,0.0,0.0,0.0,0.0,0.0,0.0,0.0,0.0,0.0,0.0,0.0,0.0,0.0,0.0,0.0,0.0,0.0,0.0,0.0,0.0,0.0,0.0,0.0,0.0,0.0,0.0,0.0,0.0,0.0,0.0,0.0,0.0,0.0,0.0,0.0,0.0,0.0,0.0,0.0,0.0,0.0,0.0,0.0,0.0,0.0,0.0,0.0,0.0,0.0,0.0,0.0,0.0,0.0,0.0,0.0,0.0,0.0,0.0,0.0,0.0,0.0,0.0,0.0,0.0,0.0,0.0,0.0,0.0,0.0,0.0,0.0,0.0,0.0,0.0,0.0,0.0,0.0,0.0,0.0,0.0,0.0,0.0,0.0,0.0,0.0,0.0,0.0,0.0,0.0,0.0,0.0,0.0,0.0,0.0,0.0,0.0,0.0,0.0,-1.3464,-1.4059,-1.4522,-1.5462,-1.5531,-1.4401,-1.1691,-1.1643,-1.1643,-1.1378,0.0,0.0,0.0,0.0,0.0,0.0,0.0,0.0,0.0,0.0,0.0,0.0,0.0,0.0,0.0,0.0,0.0,0.0,0.0,0.0,0.0,0.0,0.0,0.0,0.0,0.0,0.0,0.0,0.0,0.0,0.0,0.0,0.0,0.0,0.0,0.0,0.0,0.0,0.0,0.0,0.0,0.0,0.0,0.0,0.0,0.0,0.0,0.0,0.0,0.0,0.0,0.0,0.0,0.0,0.0,0.0,0.0,0.0,0.0,0.0,0.0,0.0,0.0,0.0,0.0,0.0,0.0,0.0,0.0,0.0,0.0,0.0,0.0,0.0,0.0,0.0,0.0,0.0,0.0,0.0,0.0,0.0,0.0,0.0,0.0,0.0,0.0,0.0,0.0,0.0,0.0,0.0,0.0,0.0,0.0,0.0,0.0,0.0,0.0,0.0,0.0,0.0,-1.2443,-1.179,-1.1541,-1.2735,-1.2506,-1.1733,-1.041,-1.0678,-1.0765,0.0,0.0,0.0,0.0,0.0,0.0,0.0,0.0,0.0,0.0,0.0,0.0,0.0,0.0,0.0,0.0,0.0,0.0,0.0,0.0,0.0,0.0,0.0,0.0,0.0,0.0,0.0,0.0,0.0,0.0,0.0,0.0,0.0,0.0,0.0,0.0,0.0,0.0,0.0,0.0,0.0,0.0,0.0,0.0,0.0,0.0,0.0,0.0,0.0,0.0,0.0,0.0,0.0,0.0,0.0,0.0,0.0,0.0,0.0,0.0,0.0,0.0,0.0,0.0,0.0,0.0,0.0,0.0,0.0,0.0,0.0,0.0,0.0,0.0,0.0,0.0,0.0,0.0,0.0,0.0,0.0,0.0,0.0,0.0,0.0,0.0,0.0,0.0,0.0,0.0,0.0,0.0,0.0,0.0,0.0,0.0,0.0,0.0,0.0,0.0,0.0,0.0,0.0,-1.1118,-1.042,-1.0001,-1.064,-1.0731,-1.0353,-0.9399,-0.7407,-0.7481,-1.0498,0.0,0.0,0.0,0.0,0.0,0.0,0.0,0.0,0.0,0.0,0.0,0.0,0.0,0.0,0.0,0.0,0.0,0.0,0.0,0.0,0.0,0.0,0.0,0.0,0.0,0.0,0.0,0.0,0.0,0.0,0.0,0.0,0.0,0.0,0.0,0.0,0.0,0.0,0.0,0.0,0.0,0.0,0.0,0.0,0.0,0.0,0.0,0.0,0.0,0.0,0.0,0.0,0.0,0.0,0.0,0.0,0.0,0.0,0.0,0.0,0.0,0.0,0.0,0.0,0.0,0.0,0.0,0.0,0.0,0.0,0.0,0.0,0.0,0.0,0.0,0.0,0.0,0.0,0.0,0.0,0.0,0.0,0.0,0.0,0.0,0.0,0.0,0.0,0.0,0.0,0.0,0.0,0.0,0.0,0.0,0.0,0.0,0.0,0.0,0.0,0.0,0.0,-0.9527,-0.8975,-0.8594,-0.8678,-0.8749,-0.8298,-0.7092,-0.4833,-0.4824,-0.7965,0.0,0.0,0.0,0.0,0.0,0.0,0.0,0.0,0.0,0.0,0.0,0.0,0.0,0.0,0.0,0.0,0.0,0.0,0.0,0.0,0.0,0.0,0.0,0.0,0.0,0.0,0.0,0.0,0.0,0.0,0.0,0.0,0.0,0.0,0.0,0.0,0.0,0.0,0.0,0.0,0.0,0.0,0.0,0.0,0.0,0.0,0.0,0.0,0.0,0.0,0.0,0.0,0.0,0.0,0.0,0.0,0.0,0.0,0.0,0.0,0.0,0.0,0.0,0.0,0.0,0.0,0.0,0.0,0.0,0.0,0.0,0.0,0.0,0.0,0.0,0.0,0.0,0.0,0.0,0.0,0.0,0.0,0.0,0.0,0.0,0.0,0.0,0.0,0.0,0.0,0.0,0.0,0.0,0.0,0.0,0.0,0.0,0.0,0.0,0.0,0.0,0.0,-0.7865,-0.7529,-0.7213,-0.6799,-0.6612,-0.5777,-0.4004,-0.2559,-0.2337,-0.3681,0.0,0.0,0.0,0.0,0.0,0.0,0.0,0.0,0.0,0.0,0.0,0.0,0.0,0.0,0.0,0.0,0.0,0.0,0.0,0.0,0.0,0.0,0.0,0.0,0.0,0.0,0.0,0.0,0.0,0.0,0.0,0.0,0.0,0.0,0.0,0.0,0.0,0.0,0.0,0.0,0.0,0.0,0.0,0.0,0.0,0.0,0.0,0.0,0.0,0.0,0.0,0.0,0.0,0.0,0.0,0.0,0.0,0.0,0.0,0.0,-0.9269,-0.9681,0.0,0.0,0.0,0.0,0.0,0.0,0.0,0.0,0.0,0.0,0.0,0.0,0.0,0.0,0.0,0.0,0.0,0.0,0.0,0.0,0.0,0.0,0.0,0.0,0.0,0.0,0.0,0.0,0.0,0.0,0.0,0.0,0.0,0.0,0.0,0.0,0.0,0.0,0.0,0.0,-0.6995,-0.6139,-0.5408,-0.4999,-0.4504,-0.3629,-0.2179,0.1062,0.1996,-0.0421,0.3047,0.0,0.0,0.0,0.0,0.0,0.0,0.0,0.0,0.0,0.0,0.0,0.0,0.0,0.0,0.0,0.0,0.0,0.0,0.0,0.0,0.0,0.0,0.0,0.0,0.0,0.0,0.0,0.0,0.0,0.0,0.0,0.0,0.0,0.0,0.0,0.0,0.0,0.0,0.0,0.0,0.0,0.0,0.0,0.0,0.0,0.0,0.0,0.0,0.0,0.0,0.0,0.0,0.0,0.0,0.0,0.0,0.0,0.0,0.0,-1.081,-1.1071,0.0,0.0,0.0,0.0,0.0,0.0,0.0,0.0,0.0,0.0,0.0,0.0,0.0,0.0,0.0,0.0,0.0,0.0,0.0,0.0,0.0,0.0,0.0,0.0,0.0,0.0,0.0,0.0,0.0,0.0,0.0,0.0,0.0,0.0,0.0,0.0,0.0,0.0,0.0,0.0,-0.5526,-0.4317,-0.3254,-0.2602,-0.1787,-0.0545,0.1267,0.4174,0.5515,0.4642,0.6602,0.0,0.0,0.0,0.0,0.0,0.0,0.0,0.0,0.0,0.0,0.0,0.0,0.0,0.0,0.0,0.0,0.0,0.0,0.0,0.0,0.0,0.0,0.0,0.0,0.0,0.0,0.0,0.0,0.0,0.0,0.0,0.0,0.0,0.0,0.0,0.0,0.0,0.0,0.0,0.0,0.0,0.0,0.0,0.0,0.0,0.0,0.0,0.0,0.0,0.0,0.0,0.0,0.0,-1.272,-1.2249,-1.237,-1.1542,-1.0948,-1.0547,-1.0705,-1.0676,-1.0524,-1.0678,0.0,0.0,0.0,0.0,0.0,0.0,0.0,0.0,0.0,0.0,0.0,0.0,0.0,0.0,0.0,0.0,0.0,0.0,0.0,0.0,0.0,0.0,-0.7391,-0.8712,-0.8856,-0.8988,-1.0067,0.0,0.0,0.0,0.0,0.0,0.0,0.0,0.0,0.0,0.0,0.0,-0.3612,-0.224,-0.1006,-0.0085,0.0988,0.2528,0.4759,0.6614,0.8102,0.9198,0.9219,0.9188,0.0,0.0,0.0,0.0,0.0,0.0,0.0,0.0,0.0,0.0,0.0,0.0,0.0,0.0,0.0,0.0,0.0,0.0,0.0,0.0,0.0,0.0,0.0,0.0,0.0,0.0,0.0,0.0,0.0,0.0,0.0,0.0,-0.7356,-0.8459,0.0,0.0,0.0,0.0,0.0,0.0,0.0,0.0,0.0,0.0,0.0,0.0,0.0,-1.2201,-1.3461,-1.2634,-1.2673,-1.3615,-1.2879,-1.2338,-1.195,-1.115,-1.0302,-0.9461,-0.8866,0.0,-0.9275,-0.875,0.0,0.0,0.0,0.0,0.0,0.0,0.0,0.0,0.0,0.0,0.0,0.0,0.0,0.0,0.0,0.0,0.0,0.0,0.0,0.0,0.0,0.0,-0.7105,-0.7825,-0.81,-0.8288,-0.8631,-0.8795,-0.8874,-0.8846,-0.884,-0.8852,0.0,0.0,0.0,0.0,0.0,0.0,-0.1125,0.0066,0.1139,0.2003,0.3059,0.4421,0.6183,0.7741,0.9006,0.9902,0.9961,0.9903,0.9784,0.954,0.0,0.0,0.0,0.0,0.0,0.0,0.0,0.0,0.0,0.0,0.0,0.0,0.0,0.0,0.0,0.0,0.0,0.0,0.0,0.0,0.0,0.0,0.0,0.0,0.0,0.0,0.0,0.0,0.0,-0.7969,-0.9291,-0.9597,-1.0242,-1.0429,0.0,0.0,0.0,0.0,0.0,0.0,0.0,0.0,0.0,-1.0814,-1.1124,-1.1753,-1.2734,-1.2871,-1.316,-1.3599,-1.3463,-1.2953,-1.2157,-1.1198,-1.0102,-0.8917,-0.8054,-0.7423,-0.7058,-0.7399,-0.7207,-0.6676,0.0,0.0,0.0,0.0,-0.486,-0.5102,-0.4697,-0.4846,-0.5248,-0.5357,0.0,0.0,0.0,0.0,0.0,0.0,0.0,-0.5398,-0.5904,-0.6376,-0.6792,-0.7011,-0.7422,-0.7618,-0.7105,-0.7204,-0.7691,-0.8689,-0.8057,-0.7395,-0.7613,-0.6759,0.0,0.0,0.0,-0.0777,0.0316,0.1916,0.3345,0.4366,0.5297,0.6377,0.7715,0.8767,0.9577,1.0064,1.0149,1.0153,1.0127,0.9995,1.025,0.0,0.0,0.0,0.0,0.0,0.0,0.0,0.0,0.0,0.0,0.0,0.0,0.0,0.0,0.0,0.0,0.0,0.0,0.0,0.0,0.0,0.0,0.0,0.0,0.0,0.0,0.0,0.0,-0.9872,-1.0626,-1.0497,-1.1267,-1.1411,0.0,0.0,0.0,0.0,0.0,0.0,-0.7952,-0.8545,-0.9062,-0.9397,-1.0013,-1.0768,-1.171,-1.2644,-1.3146,-1.3215,-1.3846,-1.3514,-1.2289,-1.1314,-1.0142,-0.8763,-0.7497,-0.6372,-0.546,-0.6229,-0.586,-0.4809,-0.4556,-0.3968,-0.319,-0.2428,-0.2377,-0.27,-0.2646,-0.3017,-0.3568,-0.3872,-0.403,-0.3981,-0.3525,0.0,0.0,0.0,0.0,-0.5312,-0.5749,-0.6224,-0.6549,-0.6339,-0.6677,-0.6751,-0.5737,-0.558,-0.608,-0.7608,-0.6642,-0.5646,-0.594,-0.4863,0.0,-0.2288,-0.0684,0.0782,0.1897,0.369,0.5249,0.6219,0.7022,0.7853,0.8782,0.9438,0.9896,1.009,1.015,1.021,1.0273,1.0236,1.0355,1.0634,0.0,0.0,0.0,0.0,0.0,0.0,0.0,0.0,0.0,0.0,0.0,0.0,0.0,0.0,0.0,0.0,0.0,0.0,0.0,0.0,0.0,0.0,0.0,0.0,0.0,0.0,0.0,0.0,0.0,-1.0921,-1.0199,0.0,0.0,0.0,0.0,-0.789,-0.8205,-0.7808,-0.6391,-0.6943,-0.7483,-0.7798,-0.8112,-0.9024,-1.0642,-1.1625,-1.2114,-1.2179,-1.3796,-1.3701,-1.209,-1.1396,-1.0399,-0.905,-0.6977,-0.5811,-0.5371,-0.5117,-0.4458,-0.3485,-0.2533,-0.1952,-0.1507,-0.0645,-0.0543,-0.0861,-0.0966,-0.1422,-0.1962,-0.2228,-0.2714,-0.3168,-0.3125,-0.3475,0.0,0.0,-0.4886,-0.5538,-0.5756,-0.6199,-0.6456,-0.587,-0.5763,-0.5562,-0.4676,-0.4141,-0.3993,-0.4529,-0.4187,-0.3752,-0.3529,0.0,-0.1818,-0.0359,0.108,0.2559,0.4126,0.5548,0.6607,0.7179,0.7846,0.8449,0.8954,0.9489,0.9881,1.0082,1.0106,1.0144,1.0195,1.0254,1.0764,1.1794,1.1675,0.0,0.0,0.0,0.0,0.0,0.0,0.0,0.0,0.0,0.0,0.0,0.0,0.0,0.0,0.0,0.0,0.0,0.0,0.0,0.0,0.0,0.0,0.0,0.0,0.0,0.0,0.0,0.0,-1.0537,-1.0189,0.0,-0.9786,-0.877,-0.7955,-0.7568,-0.7387,-0.6785,-0.5631,-0.606,-0.6358,-0.6351,-0.7018,-0.7965,-0.9186,-1.051,-1.1251,-1.1385,-1.2338,-1.2157,-1.0917,-1.0057,-0.89,-0.7469,-0.6536,-0.5489,-0.442,-0.4115,-0.3702,-0.312,-0.1997,-0.1234,-0.0717,-0.0045,0.0,-0.0288,-0.0506,-0.1119,-0.1887,-0.2366,-0.2514,-0.2594,-0.2994,-0.3117,-0.3281,-0.4075,-0.4507,-0.4819,-0.524,-0.5331,-0.5174,-0.4604,-0.4319,-0.383,-0.2651,-0.2421,-0.2201,-0.1451,-0.1772,-0.2056,-0.175,-0.0715,0.0408,0.1457,0.2662,0.3893,0.5113,0.6092,0.6995,0.7721,0.8252,0.8734,0.9164,0.9599,0.9883,0.9913,1.0073,1.0166,1.0147,1.0246,1.0486,1.086,1.0729,0.8978,0.0,0.0,0.0,0.0,0.0,0.0,0.0,0.0,0.0,0.0,0.0,0.0,0.0,0.0,0.0,0.0,0.0,0.0,0.0,0.0,0.0,0.0,0.0,0.0,0.0,-1.0522,-1.0594,-1.0552,-1.0231,-0.9874,-0.9568,-0.8317,-0.7391,-0.7037,-0.6392,-0.567,-0.4969,-0.5151,-0.5202,-0.5061,-0.554,-0.6196,-0.7006,-0.8545,-0.9329,-0.9328,-1.0714,-1.0737,-0.9615,-0.9133,-0.823,-0.7055,-0.618,-0.522,-0.4231,-0.3625,-0.3207,-0.2852,-0.1639,-0.0849,-0.0356,0.0,-0.0044,-0.0378,-0.0839,-0.1498,-0.2163,-0.2562,-0.2546,-0.2459,-0.2961,-0.2907,-0.2885,-0.3773,-0.4016,-0.4058,-0.4327,-0.4212,-0.3827,-0.3015,-0.2634,-0.2106,-0.0838,-0.0778,-0.0672,0.0359,-0.0202,-0.0697,-0.0179,0.0851,0.192,0.289,0.3933,0.5021,0.6158,0.6863,0.7507,0.8198,0.8603,0.8938,0.9172,0.9554,0.9758,0.9738,0.9967,1.0105,1.0105,0.9463,0.9121,0.9121,0.8516,0.7479,0.5988,0.0,0.0,0.0,0.0,0.0,0.0,0.0,0.0,0.0,0.0,0.0,0.0,0.0,0.0,0.0,0.0,0.0,0.0,0.0,0.0,0.0,0.0,0.0,-0.9822,-1.0259,-1.0582,-1.0905,-1.0127,-0.952,-0.9545,-0.7759,-0.6465,-0.6283,-0.5239,-0.4506,-0.4329,-0.4061,-0.3902,-0.3858,-0.3581,-0.3674,-0.4224,-0.5733,-0.6331,-0.5976,-0.8932,-0.9611,-0.8225,-0.8617,-0.8519,-0.7888,-0.5885,-0.4975,-0.4858,-0.3633,-0.295,-0.2584,-0.1397,-0.0731,-0.0423,-0.0423,-0.0624,-0.1025,-0.1887,-0.2394,-0.2676,-0.2676,-0.2676,-0.274,-0.3004,-0.2918,-0.2805,-0.3326,-0.3411,-0.3281,-0.3004,-0.2869,-0.2476,-0.115,-0.0771,-0.0409,0.0703,0.0684,0.0554,0.0899,0.0471,0.0335,0.1176,0.1847,0.2698,0.3945,0.4869,0.0,0.7326,0.7837,0.8205,0.8566,0.8897,0.9061,0.9,0.9307,0.9536,0.9593,0.9796,0.9961,1.0097,0.8047,0.6894,0.6894,0.5234,0.5858,0.8919,0.0,0.0,0.0,0.0,0.0,0.0,0.0,0.0,0.0,0.0,0.0,0.0,0.0,0.0,0.0,0.0,0.0,0.0,0.0,0.0,0.0,-0.7293,-0.7341,-0.9494,-0.9349,-0.927,-0.9867,-0.8889,-0.8154,-0.8141,-0.6873,-0.575,-0.5126,-0.4794,-0.3986,-0.2592,-0.2436,-0.2006,-0.112,-0.1435,-0.1885,-0.2474,-0.3721,-0.4477,-0.4795,-0.6048,-0.6592,-0.6471,-0.6403,-0.6168,-0.5805,-0.5233,-0.4577,-0.3892,-0.3541,-0.3237,-0.2886,-0.1927,-0.1358,-0.1027,-0.0825,-0.0936,-0.1252,-0.1736,-0.1978,-0.2088,-0.228,-0.2346,-0.2394,-0.2719,-0.2762,-0.2676,-0.2591,-0.24,-0.2126,-0.161,-0.1131,-0.0596,0.0213,0.0752,0.1214,0.1732,0.1767,0.1806,0.2134,0.2042,0.1901,0.1942,0.2946,0.4026,0.4912,0.5586,0.6373,0.7427,0.7616,0.7871,0.8404,0.871,0.894,0.9068,0.9379,0.9591,0.9673,0.9762,0.9901,1.0089,0.9522,0.9187,0.919,0.396,0.3869,0.0,0.0,0.0,0.0,0.0,0.0,0.0,0.0,0.0,0.0,0.0,0.0,0.0,0.0,0.0,0.0,0.0,0.0,0.0,0.0,0.0,0.0,-0.5995,-0.5652,-0.7508,-0.7659,-0.7736,-0.8228,-0.7629,-0.7089,-0.6773,-0.5806,-0.4884,-0.4058,-0.3685,-0.2888,-0.1433,-0.1111,-0.0533,0.0447,0.0357,0.0,-0.0674,-0.1576,-0.2316,-0.2898,-0.3918,-0.466,-0.5078,-0.5205,-0.5377,-0.5589,-0.5124,-0.4625,-0.4116,-0.383,-0.3466,-0.3025,0.0,0.0,0.0,0.0,-0.1383,-0.1541,-0.1736,-0.1803,-0.1825,-0.1975,-0.204,-0.2062,-0.2263,-0.2237,-0.2054,-0.1738,-0.1449,-0.1051,-0.0325,0.0281,0.0863,0.1472,0.1976,0.2379,0.2538,0.2498,0.249,0.2805,0.2928,0.0,0.3222,0.3928,0.4751,0.5611,0.617,0.6783,0.7584,0.7729,0.7885,0.8236,0.8563,0.8784,0.8796,0.9207,0.0,0.0,0.0,0.9854,1.0011,1.007,0.0,0.0,0.0,0.5909,0.9301,0.7856,0.0,0.0,1.2874,1.2362,0.0,0.0,0.0,0.0,0.0,0.0,0.0,0.0,0.0,0.0,0.0,0.0,0.0,0.0,0.0,0.0,-0.5064,-0.3851,-0.4794,-0.5383,-0.5903,-0.6294,-0.6289,-0.5963,-0.5317,-0.4584,-0.3788,-0.2945,-0.2293,-0.1492,-0.0559,0.0046,0.0,0.0,0.0,0.1649,0.0898,0.0314,-0.0315,-0.0898,-0.2376,-0.3399,-0.4058,-0.458,-0.5366,-0.6245,-0.5207,-0.4811,-0.4838,-0.4275,-0.3679,-0.3044,-0.2442,-0.2172,-0.2128,-0.1891,-0.1803,-0.1803,-0.1803,0.0,0.0,-0.1781,-0.1781,-0.1736,-0.1736,-0.151,-0.1196,-0.0885,-0.0509,-0.0022,0.0838,0.1441,0.2019,0.2596,0.2944,0.3151,0.322,0.3035,0.2917,0.3185,0.3454,0.3874,0.466,0.4801,0.5132,0.6106,0.6626,0.7107,0.7695,0.7927,0.8062,0.8134,0.8456,0.0,0.8488,0.8992,0.9321,0.933,0.9636,0.9833,0.9881,0.9992,0.9153,0.7204,0.9108,0.9875,0.9392,0.9055,0.874,0.8443,1.0276,0.9651,0.0,0.0,0.0,0.0,0.0,0.0,0.0,0.0,0.0,0.0,0.0,0.0,0.0,0.0,0.0,-0.5757,-0.4294,-0.3369,-0.3848,-0.3357,-0.3448,-0.4656,-0.431,-0.3883,-0.3766,-0.3033,-0.2298,-0.1567,-0.1345,-0.0721,0.054,0.1283,0.1649,0.1649,0.19,0.1644,0.0889,0.0313,-0.0315,-0.0899,-0.1437,0.0,-0.3635,-0.3751,-0.4278,-0.5108,-0.4662,-0.4357,-0.4202,-0.4287,-0.3842,-0.3043,-0.2431,-0.2062,-0.1869,-0.1825,-0.1803,-0.1803,-0.1803,-0.1629,-0.1452,-0.1718,-0.1623,-0.1397,-0.1397,-0.1196,0.0,-0.0333,0.0375,0.1119,0.1779,0.2392,0.2971,0.3526,0.3534,0.3534,0.3971,0.3856,0.3749,0.4017,0.4287,0.4656,0.5242,0.534,0.5606,0.6404,0.675,0.7088,0.7576,0.768,0.7866,0.8285,0.8412,0.8601,0.8937,0.9173,0.9376,0.9526,0.9749,0.9855,0.9825,0.9837,0.971,0.9379,0.9958,1.0151,0.9951,0.925,0.7676,0.5406,0.8136,0.9287,0.0,0.0,0.0,0.0,0.0,0.0,0.0,0.0,0.0,0.0,0.0,-0.7547,-0.6725,0.0,-0.5899,-0.5207,-0.4181,-0.3463,-0.3607,-0.2531,-0.2132,-0.319,-0.2961,-0.2629,-0.2247,-0.1853,-0.1347,-0.0617,-0.0561,-0.0112,0.0954,0.134,0.1667,0.188,0.1613,0.1105,0.0452,-0.0234,-0.0791,-0.1261,-0.1822,-0.2566,-0.3415,-0.3863,-0.4278,-0.4696,-0.4798,-0.4438,-0.3749,-0.3759,-0.3367,-0.2739,-0.2529,-0.2192,-0.1803,-0.1803,-0.1689,-0.1554,-0.156,-0.1343,-0.1134,-0.1286,-0.1112,-0.085,-0.085,-0.0573,-0.0133,0.0487,0.1084,0.1723,0.2466,0.3083,0.3534,0.3674,0.3911,0.4101,0.409,0.4101,0.4218,0.4626,0.4809,0.5106,0.5749,0.6096,0.6409,0.6709,0.7037,0.7335,0.7577,0.7694,0.7879,0.8214,0.8343,0.856,0.8908,0.9266,0.9518,0.9694,0.9829,0.9837,0.9708,0.98,0.9837,0.9804,1.0064,0.9336,0.7603,0.7772,0.7655,0.7302,0.7096,0.7943,0.0,0.0,0.0,0.0,0.0,0.0,0.0,-0.8076,-0.7876,-0.7919,-0.7522,-0.6993,-0.6379,-0.6129,-0.5829,-0.5289,-0.44,-0.3754,-0.3669,-0.2393,-0.1679,-0.2128,-0.1964,-0.1515,-0.0954,-0.0898,-0.0617,-0.0056,0.0,0.028,0.0842,0.0898,0.1062,0.1385,0.0726,0.0056,-0.0559,-0.1214,-0.1771,-0.2146,-0.2764,-0.3286,-0.3694,-0.4312,-0.4676,-0.4815,-0.5061,-0.4587,-0.3592,-0.3194,-0.2785,-0.2424,-0.2553,-0.2263,-0.177,-0.176,-0.1555,-0.1287,-0.125,-0.1041,-0.0811,-0.0793,-0.0594,-0.031,-0.0248,0.012,0.065,0.1232,0.1683,0.2177,0.2907,0.3513,0.3871,0.3696,0.4171,0.4587,0.4317,0.44,0.4664,0.5142,0.5361,0.565,0.6202,0.6852,0.7204,0.6888,0.7331,0.7652,0.7533,0.7753,0.7968,0.814,0.8294,0.8526,0.8873,0.936,0.9688,0.9781,0.9825,0.9781,0.9594,0.9733,0.9747,0.9617,0.9891,0.8741,0.6091,0.6345,0.7733,1.0057,0.7341,0.734,-0.4378,-0.5031,-0.5715,-0.6171,-0.7138,-0.7999,0.0,-0.818,-0.8579,-0.8683,-0.8361,-0.8052,-0.7973,-0.6954,-0.6205,-0.6205,-0.4776,-0.3652,-0.374,-0.2805,-0.2106,-0.2216,-0.106,-0.0224,-0.0112,-0.0112,-0.0112,0.0,0.0,0.0056,0.0112,0.0112,-0.0168,-0.0728,-0.1233,-0.1846,-0.2554,-0.2995,-0.3514,-0.4065,-0.3765,-0.4109,-0.5062,-0.4732,-0.496,-0.5533,-0.4954,-0.4473,-0.4051,-0.3111,-0.2604,-0.2403,-0.23,-0.1998,-0.1614,-0.1623,-0.1488,-0.1265,-0.1025,-0.0742,-0.0464,-0.0451,-0.0256,0.0,0.0239,0.0646,0.1119,0.1599,0.2246,0.2841,0.3039,0.3547,0.4014,0.4171,0.4327,0.4653,0.5422,0.5415,0.5361,0.5662,0.6297,0.6747,0.6651,0.7431,0.7751,0.6777,0.7433,0.7858,0.7312,0.7635,0.8026,0.8332,0.838,0.863,0.9202,0.9633,0.9825,0.9717,0.972,0.9666,0.9516,0.9524,0.9591,0.968,0.9775,0.9767,0.9615,0.6711,0.6986,1.0187,0.9748,0.9693,-0.539,-0.5775,-0.6095,-0.6091,-0.6689,-0.7233,-0.7099,-0.7502,-0.7833,-0.7697,-0.7827,-0.7868,-0.7678,-0.7445,-0.7279,-0.7348,-0.6531,-0.5841,-0.5828,-0.4916,-0.4177,-0.3895,-0.3128,-0.2238,-0.1341,-0.1288,-0.129,-0.129,-0.129,-0.129,-0.129,-0.129,-0.1624,-0.2341,-0.3014,-0.3576,-0.4047,-0.4665,-0.4924,-0.4805,-0.4846,-0.5049,-0.541,-0.5505,-0.5491,-0.5433,-0.4524,-0.4012,-0.3775,-0.3018,-0.2614,-0.2472,-0.2468,-0.2116,-0.1595,-0.1589,-0.1427,-0.1118,-0.0743,-0.0423,-0.0115,0.0141,0.0329,0.0475,0.0826,0.1363,0.193,0.2327,0.2972,0.3645,0.4097,0.451,0.4849,0.5014,0.5307,0.5623,0.5868,0.5965,0.6047,0.6319,0.6813,0.7203,0.7264,0.8073,0.8462,0.7708,0.8155,0.8463,0.8223,0.8189,0.8243,0.8382,0.871,0.9019,0.9275,1.0055,1.052,1.0472,1.0896,1.1028,1.0789,1.0476,1.025,1.0112,0.9943,0.9938,1.0079,0.8732,0.879,1.0138,1.0155,1.014,-0.5241,-0.5267,-0.5194,-0.5304,-0.5651,-0.6032,-0.6356,-0.6849,-0.7188,-0.7198,-0.7682,-0.8126,-0.8105,-0.8248,-0.8375,-0.8403,-0.7972,-0.7593,-0.7483,-0.6584,-0.5887,-0.5828,-0.5321,-0.4595,-0.3495,-0.3023,-0.2815,-0.2815,-0.2807,-0.2802,-0.2802,-0.2972,-0.3357,-0.3895,-0.4765,-0.5285,-0.5445,-0.6085,-0.6133,-0.5624,-0.5851,-0.5909,-0.5817,-0.5986,-0.5643,-0.4888,-0.421,-0.3734,-0.344,-0.2955,-0.251,-0.2203,-0.2417,-0.2041,-0.135,-0.1339,-0.1151,-0.0851,-0.044,-0.0173,0.0066,0.0549,0.0692,0.0803,0.1274,0.194,0.2551,0.29,0.3591,0.4334,0.4854,0.5289,0.5607,0.5685,0.6089,0.6399,0.6334,0.644,0.6646,0.6828,0.7259,0.7632,0.7806,0.8585,0.9081,0.8778,0.8991,0.9119,0.8961,0.8974,0.8983,0.8968,0.9561,0.994,0.994,1.0784,1.1296,1.1238,1.1755,1.1925,1.1599,1.1268,1.0987,1.0747,1.0639,1.0483,1.0275,1.0431,1.0357,1.0048,1.0316,1.045,0.0,0.0,-0.2409,-0.3387,-0.3588,-0.3954,-0.5626,-0.647,-0.712,-0.7711,-0.8536,-0.9368,-1.0057,-0.9736,-0.9362,-0.9387,-0.8535,-0.7873,-0.7901,-0.712,-0.6834,-0.7465,-0.6912,-0.65,-0.6489,-0.5159,-0.4356,-0.4356,-0.4317,-0.4349,-0.4349,-0.5033,-0.5436,-0.5436,-0.6592,-0.7045,-0.6728,-0.7198,-0.7265,-0.693,-0.6693,-0.6577,-0.6562,-0.5971,-0.5116,-0.4039,-0.4152,-0.3778,-0.3092,-0.2955,-0.2272,-0.1396,-0.1833,-0.1503,-0.0736,-0.0735,-0.06,-0.0376,-0.0112,0.0,0.0067,0.0536,0.07,0.083,0.1565,0.2216,0.2776,0.3172,0.3997,0.482,0.4961,0.5527,0.6056,0.5994,0.6245,0.6606,0.6975,0.7059,0.7086,0.7086,0.7734,0.8259,0.8188,0.8856,0.9504,0.9804,0.9855,0.9686,0.9158,0.9877,1.0431,1.0431,1.11,1.1524,1.1524,1.1927,1.2041,1.179,1.1751,1.1588,1.1322,1.1475,1.1571,1.1559,1.2067,1.188,1.0971,1.1174,1.079,0.9918,1.0716,1.1074,0.0,0.0,-0.212,-0.2723,-0.328,-0.3867,-0.4531,-0.6037,-0.7315,-0.7341,-0.8333,-0.9302,-0.9763,-0.9904,-1.0181,-1.0821,-1.071,-1.0539,-1.0531,-1.0143,-0.9576,-0.889,-0.8729,-0.8482,-0.7853,-0.6648,-0.587,-0.587,-0.5864,-0.5842,-0.5842,-0.607,-0.6469,-0.6929,-0.7376,-0.7688,-0.7864,-0.7517,-0.7454,-0.7602,-0.7021,-0.6367,-0.5756,-0.5612,-0.5075,-0.4248,-0.4204,-0.3641,-0.2671,-0.2519,-0.2001,-0.1331,-0.1473,-0.1209,-0.0706,-0.0706,-0.0447,-0.0119,-0.003,0.0,0.0134,0.0875,0.1104,0.1296,0.2441,0.3171,0.369,0.4384,0.5026,0.5665,0.6253,0.6562,0.6816,0.7059,0.7201,0.7346,0.7462,0.7501,0.7501,0.7501,0.8136,0.8775,0.9068,0.9785,1.0353,1.0431,1.0302,1.0083,0.9679,1.0337,1.0753,1.0527,1.1031,1.1399,1.1399,1.2109,1.2496,1.2398,1.2872,1.3063,1.284,1.2507,1.2335,1.2335,1.216,1.1985,1.1795,1.1918,1.181,1.1504,1.1775,1.1906,0.0,-0.1534,-0.142,-0.1961,-0.2776,-0.3476,-0.3833,-0.5706,-0.7244,-0.689,-0.8026,-0.92,-0.9804,-1.0069,-1.0569,-1.1589,-1.1477,-1.1362,-1.1663,-1.1013,-1.0352,-0.9768,-0.9658,-0.9348,-0.8745,-0.8003,-0.7498,-0.7378,-0.7368,-0.7395,-0.7395,-0.7395,-0.7629,-0.8094,-0.7847,-0.7794,-0.7982,-0.7291,-0.6994,-0.7144,-0.6674,-0.6008,-0.5143,-0.5195,-0.4825,-0.4176,-0.381,-0.3214,-0.2473,-0.2133,-0.1616,-0.1101,-0.1075,-0.0841,-0.0441,-0.044,-0.0264,0.0,0.0,0.0,0.0134,0.1008,0.1338,0.1655,0.307,0.3835,0.4416,0.5341,0.6017,0.6658,0.7395,0.7794,0.8042,0.8143,0.8297,0.8369,0.8218,0.8168,0.8157,0.8164,0.8736,0.9337,0.9766,1.0552,1.1048,1.0898,1.1084,1.0992,1.0354,1.0923,1.1365,1.1262,1.1765,1.2134,1.2134,1.2739,1.3088,1.3019,1.3503,1.3709,1.3542,1.3194,1.3019,1.3019,1.2872,1.2688,1.25,1.2648,1.2524,1.2141,1.2419,1.2512,-0.0921,-0.0421,-0.0204,-0.1053,-0.1992,-0.2917,-0.3675,-0.5532,-0.6973,-0.6554,-0.7694,-0.9078,-1.0181,-1.0277,-1.0569,-1.1692,-1.1046,-1.0615,-1.1314,-1.0022,-0.9301,-1.0213,-0.9717,-0.9256,-0.9252,-0.9205,-0.9118,-0.8871,-0.8811,-0.8811,-0.8804,-0.8811,-0.8811,-0.8758,-0.8051,-0.758,-0.7295,-0.6554,-0.599,-0.5593,-0.5671,-0.5335,-0.4725,-0.463,-0.4256,-0.367,-0.299,-0.2583,-0.2361,-0.1796,-0.1222,-0.065,-0.065,-0.0376,0.0,0.0,0.0,0.0,0.0037,0.0034,0.0203,0.1047,0.1476,0.1971,0.3399,0.4206,0.4875,0.6053,0.698,0.7744,0.8271,0.9042,0.9555,0.9096,0.9322,0.9536,0.9099,0.8993,0.8988,0.9008,0.9409,0.9909,1.0344,1.1101,1.1585,1.1332,1.2088,1.2304,1.1114,1.1681,1.2327,1.26,1.3227,1.3605,1.3537,1.3736,1.378,1.3569,1.3553,1.3508,1.3396,1.3526,1.3586,1.3601,1.4116,1.3942,1.3064,1.3397,1.2981,1.1949,1.271,1.2955,-0.0211,-0.0141,-0.0209,-0.1049,-0.1957,-0.2914,-0.4293,-0.5652,-0.6714,-0.7139,-0.7719,-0.8504,-0.9665,-1.015,-1.0931,-1.2755,-1.2577,-1.2399,-1.296,-1.2102,-1.1268,-1.0685,-1.0436,-1.01,-0.962,-0.9564,-0.9551,-0.9479,-0.9228,-0.899,-0.8811,-0.899,-0.8738,-0.8003,-0.7776,-0.7424,-0.6794,-0.6064,-0.4769,-0.2961,-0.3637,-0.3439,-0.2601,-0.3106,-0.2983,-0.2313,-0.2583,-0.2188,-0.13,-0.1123,-0.0701,-0.0168,-0.0168,-0.0126,0.0,0.0,0.0,0.0044,0.0526,0.0653,0.0751,0.1352,0.2121,0.3068,0.4082,0.4788,0.5562,0.6899,0.744,0.7806,0.8618,0.9004,0.9164,0.9038,0.9096,0.9159,0.9027,0.9012,0.8992,0.8989,0.9934,1.0989,1.1788,1.2321,1.2616,1.2549,1.2675,1.2576,1.2017,1.2936,1.3512,1.3081,1.3556,1.3597,1.2908,1.3076,1.3209,1.3158,1.2969,1.3022,1.3379,1.3244,1.3295,1.3584,1.3878,1.3984,1.3894,1.4123,1.4013,1.3593,1.3792,1.3792,0.0072,-0.0287,-0.0703,-0.1206,-0.2164,-0.3387,-0.4525,-0.576,-0.6778,-0.7325,-0.7878,-0.8658,-0.977,-0.9915,-1.0621,-1.2867,-1.2124,-1.1609,-1.2604,-1.1745,-1.0698,-0.9955,-0.9877,-0.9702,-0.9361,-0.9283,-0.9451,-0.9826,-0.9596,-0.916,-0.8649,-0.8969,-0.8606,-0.7385,-0.7246,-0.6549,-0.5175,-0.4432,-0.3365,-0.2117,-0.2565,-0.251,-0.2006,-0.2341,-0.2271,-0.191,-0.1919,-0.1524,-0.09,-0.0629,-0.0315,0.0,0.0,0.0,0.0045,0.0313,0.0403,0.049,0.1078,0.1472,0.1726,0.1936,0.2631,0.3565,0.4514,0.5355,0.6262,0.7679,0.8169,0.8464,0.9354,0.9741,0.9838,0.9633,0.9731,0.9856,0.9828,0.9827,0.995,1.0393,1.1326,1.2213,1.2726,1.3339,1.3629,1.3266,1.3566,1.3643,1.315,1.3625,1.3772,1.3266,1.3563,1.3537,1.2843,1.2826,1.2881,1.2997,1.2748,1.2732,1.3051,1.2889,1.2998,1.3345,1.3522,1.3754,1.3941,1.4016,1.3975,1.3795,1.3671,1.358,0.0074,-0.0732,-0.1418,-0.1591,-0.2732,-0.4001,-0.4854,-0.5964,-0.6934,-0.7378,-0.8152,-0.9071,-1.01,-0.9702,-1.0047,-1.2332,-1.0806,-0.9888,-1.1453,-1.0194,-0.9087,-0.891,-0.8826,-0.8828,-0.8891,-0.8949,-0.9352,-1.0123,-0.9833,-0.9308,-0.8474,-0.8856,-0.8365,-0.6648,-0.6288,-0.5171,-0.3019,-0.2355,-0.2021,-0.1909,-0.1909,-0.1909,-0.1909,-0.1853,-0.1836,-0.1701,-0.1157,-0.0836,-0.0743,-0.0232,0.0046,0.0135,0.0138,0.0186,0.0371,0.0877,0.1043,0.1114,0.1749,0.2292,0.2706,0.2658,0.3145,0.3965,0.5009,0.6047,0.7186,0.848,0.9089,0.9504,1.0257,1.0742,1.0884,1.0479,1.0702,1.0987,1.0902,1.0995,1.1376,1.2238,1.2823,1.3245,1.3286,1.405,1.4493,1.3929,1.4623,1.4991,1.4429,1.4085,1.372,1.3281,1.3533,1.35,1.2951,1.2867,1.2921,1.3016,1.2813,1.27,1.2735,1.262,1.2668,1.2944,1.3176,1.3378,1.357,1.3515,1.3421,1.3295,1.3021,1.2913,-0.0893,-0.1426,-0.193,-0.3352,-0.3755,-0.4316,-0.6255,-0.65,0.0,-0.7923,-0.8366,-0.8676,-0.9441,-0.9645,-1.0146,-1.1523,-1.0812,-1.0419,-1.1269,-0.9853,-0.8815,-0.9198,-0.904,-0.9045,-0.9186,-0.9856,-1.0345,-1.0485,-0.9794,-0.9086,-0.845,-0.8584,-0.7522,-0.493,-0.4236,-0.3174,-0.1509,-0.1342,-0.1008,-0.0393,-0.0393,-0.0393,-0.0393,-0.0898,-0.083,-0.0378,-0.0757,-0.0596,-0.0162,-0.0054,0.0353,0.0912,0.0932,0.13,0.1843,0.194,0.1894,0.1876,0.2502,0.2768,0.293,0.3224,0.4232,0.5465,0.6152,0.7361,0.8638,0.935,1.0002,1.0622,1.1228,1.1148,1.0923,1.0801,1.0872,1.0892,1.0889,1.161,1.2278,1.2389,1.2869,1.3387,1.3728,1.4203,1.4782,1.5538,1.5652,1.5699,1.5759,1.5222,1.4486,1.3543,1.4001,1.3804,1.2452,1.3567,1.3995,1.3214,1.3161,1.3268,1.3414,1.2691,1.24,1.2667,1.3073,1.3328,1.3345,1.3453,1.3421,1.3295,1.3021,1.2824,-0.1926,-0.2768,-0.3317,-0.4225,-0.4463,-0.4845,-0.6322,0.0,0.0,-0.775,-0.8015,-0.8371,-0.943,-0.9409,-0.9665,-1.0949,-1.0204,-0.98,-1.0647,-0.948,-0.8601,-0.897,-0.8734,-0.87,-0.9262,-0.9285,-0.946,-0.9868,-0.9098,-0.849,-0.8217,-0.7197,-0.599,-0.4432,-0.3357,-0.2237,-0.1118,-0.0727,-0.0336,0.0,0.0,0.0,0.0,-0.028,-0.028,0.0,-0.028,-0.0056,0.0559,0.0559,0.1023,0.1687,0.1687,0.1895,0.223,0.2559,0.2624,0.2704,0.3691,0.4041,0.4171,0.5065,0.5573,0.5908,0.6196,0.7646,0.9154,0.9152,1.0056,1.1004,1.1072,1.118,1.125,1.125,1.1426,1.165,1.197,1.2663,1.3279,1.3586,1.4109,1.4568,1.4809,1.5399,1.6034,1.6527,1.6477,1.6326,1.6216,1.5444,1.4516,1.361,1.397,1.3982,1.3252,1.3837,1.4158,1.3988,1.3517,1.3297,1.3394,1.2973,1.2687,1.2601,1.3038,1.3141,1.2941,1.2873,1.2707,1.2474,1.2371,1.2249,-0.3081,-0.4093,-0.4711,-0.4988,-0.516,-0.5403,-0.6018,-0.5827,0.0,-0.7176,-0.745,-0.7824,-0.8915,-0.8837,-0.889,0.0,-0.9406,-0.9071,-0.9919,-0.9091,-0.8481,-0.8769,-0.8474,-0.8451,-0.8958,-0.856,-0.849,-0.8964,-0.8161,-0.7678,-0.7643,-0.5719,-0.4416,-0.3953,-0.2627,-0.1625,-0.0895,-0.028,0.0,0.0,0.0,0.0,0.0,0.0,0.0,0.0,0.0168,0.0559,0.1115,0.1279,0.1785,0.2464,0.2443,0.2548,0.2771,0.3219,0.3449,0.3715,0.4773,0.525,0.5548,0.6586,0.6689,0.6341,0.6493,0.7987,0.9619,0.9262,1.0328,1.1498,1.1187,1.1401,1.1753,1.1753,1.1973,1.2391,1.3112,1.3643,1.4147,1.4684,1.5323,1.5809,1.5841,1.6551,1.7183,1.7417,1.7127,1.6809,1.6548,1.5542,1.4602,1.387,1.4012,1.4125,1.3991,1.4182,1.4461,1.4713,1.3961,1.3485,1.3394,1.3267,1.3046,1.2734,1.3187,1.3207,1.2781,1.2585,1.2243,1.18,1.1837,1.1799,-0.4278,-0.4834,-0.5254,-0.6002,-0.5828,-0.5674,-0.6077,0.0,-0.5706,-0.6529,-0.6696,-0.675,-0.6853,-0.7396,-0.783,0.0,0.0,-0.8938,-0.9243,-0.8673,-0.8369,-0.873,-0.8861,-0.8685,-0.82,-0.8748,-0.8877,-0.8161,-0.7154,-0.6505,-0.6383,-0.4778,-0.3429,-0.2441,-0.1612,-0.0837,-0.0112,-0.0056,0.0,0.0,0.0,0.0,0.0,0.0,0.0,0.0056,0.0729,0.1009,0.1176,0.1833,0.255,0.3222,0.3219,0.3669,0.4291,0.4346,0.4698,0.5123,0.5233,0.571,0.6324,0.6426,0.6884,0.7446,0.8023,0.9364,1.0663,1.0622,1.1661,1.2754,1.2715,1.2414,1.2122,1.2122,1.2151,1.2454,1.3507,1.4193,1.4631,1.4782,1.5696,1.6373,1.6263,1.6739,1.7417,1.8421,1.7602,1.6965,1.719,1.616,1.5255,1.4841,1.458,1.4231,1.3607,1.5116,1.5699,1.4847,1.4631,1.4401,1.4035,1.3487,1.3169,1.3143,1.3775,1.3871,1.3421,1.3391,1.2937,1.2049,1.2134,1.1863,-0.5407,-0.582,-0.604,-0.6337,-0.5986,-0.5576,-0.5517,0.0,-0.5113,-0.5819,-0.5928,-0.6091,-0.6529,-0.6858,-0.7015,0.0,0.0,0.0,-0.8298,-0.8158,-0.8367,-0.9257,-0.8629,-0.826,-0.8734,-0.812,-0.7367,-0.6535,-0.5906,-0.5373,-0.4797,-0.4061,-0.3028,-0.1567,-0.1229,-0.0728,0.0,0.0,0.0224,0.0671,0.0224,0.0448,0.1287,0.084,0.0895,0.134,0.162,0.2014,0.2462,0.2732,0.334,0.4064,0.446,0.4805,0.5148,0.561,0.5878,0.6163,0.6605,0.7211,0.7876,0.8319,0.8926,0.937,0.8779,0.9883,1.1316,1.0914,1.1792,1.2783,1.2363,1.2445,1.2617,1.2617,1.2882,1.3372,1.4157,1.4824,1.5363,1.5752,1.6452,1.7073,1.7349,1.781,1.8321,1.8753,1.8135,1.7422,1.6836,1.5764,1.502,1.487,1.4912,1.4948,1.4878,1.5551,1.5793,1.5314,1.4832,1.441,1.4007,1.3735,1.3555,1.3362,1.3624,1.3624,1.3318,1.3039,1.2605,1.2053,1.2148,1.1947,-0.5993,-0.6339,-0.641,-0.641,-0.5962,-0.5454,0.0,0.0,-0.4625,-0.5109,-0.5218,-0.5382,-0.5878,-0.615,-0.6303,0.0,0.0,-0.7723,-0.77,-0.8041,-0.8596,-0.9442,-0.8504,-0.8089,-0.8676,-0.7279,-0.6067,-0.5425,-0.4945,-0.4323,-0.3535,-0.3112,-0.2326,-0.1125,-0.0898,-0.0505,0.0,0.0,0.0392,0.1119,0.0559,0.1007,0.2183,0.1676,0.173,0.2232,0.2452,0.2843,0.335,0.3747,0.4304,0.486,0.555,0.5813,0.5882,0.6401,0.6887,0.7318,0.7841,0.8575,0.9421,0.9911,1.0397,1.0637,0.9636,1.0458,1.1683,1.1216,1.199,1.2774,1.2264,1.2657,1.3152,1.3152,1.3647,1.4236,1.4835,1.532,1.5776,1.638,1.705,1.7646,1.8031,1.8686,1.907,1.8907,1.8271,1.7478,1.6536,1.544,1.4861,1.5033,1.5209,1.5418,1.5628,1.5794,1.5742,1.5467,1.4845,1.4392,1.4132,1.3977,1.3888,1.386,1.3822,1.368,1.3415,1.3093,1.2631,1.2138,1.2438,1.2416,-0.5769,-0.603,-0.6342,-0.6342,-0.5882,-0.5321,0.0,-0.4785,-0.4519,-0.4519,-0.4519,-0.4519,-0.4519,-0.5058,-0.5538,-0.5521,0.0,0.0,-0.77,-0.8567,-0.9176,-0.9182,-0.8859,-0.8313,-0.7577,-0.6214,-0.5428,-0.5428,-0.4397,-0.3478,-0.2743,-0.1722,-0.1124,-0.1122,-0.0393,0.0,0.0,0.0,0.0393,0.1122,0.1116,0.1506,0.2184,0.2178,0.2174,0.223,0.3058,0.3332,0.3387,0.486,0.5491,0.555,0.6308,0.6598,0.6601,0.6601,0.7481,0.8661,0.8661,0.9603,1.0793,1.0802,1.0762,1.0787,1.0802,1.126,1.1787,1.1774,1.2344,1.2881,1.2881,1.3334,1.3779,1.3779,1.4236,1.488,1.5454,1.5588,1.5776,1.638,1.7353,1.8082,1.8085,1.897,1.9513,1.8986,1.7959,1.7008,1.6451,1.5419,1.4915,1.5531,1.5501,1.535,1.5326,1.5731,1.5762,1.5141,1.4717,1.4566,1.4692,1.4171,1.4158,1.4692,1.4569,1.4293,1.3891,1.3904,1.3377,1.2408,1.316,1.3372,-0.6138,-0.6032,-0.5778,-0.5702,-0.5453,-0.5138,-0.4887,-0.464,-0.4519,-0.4519,-0.4519,-0.4519,-0.4519,-0.468,-0.4842,-0.4838,-0.5572,0.0,-0.6221,-0.6998,-0.7688,-0.7864,-0.7566,-0.6924,-0.5972,-0.5435,-0.5164,-0.5196,-0.4273,-0.3356,-0.2745,-0.1662,-0.0896,-0.0336,-0.0112,0.0224,0.0729,0.0729,0.1403,0.2589,0.2115,0.2498,0.3741,0.3234,0.3289,0.379,0.4549,0.4835,0.486,0.5843,0.6232,0.6348,0.7042,0.7346,0.7459,0.8448,0.9077,0.9503,0.9987,1.0731,1.1466,1.1478,1.1818,1.2162,1.1627,1.1608,1.1899,1.2433,1.2725,1.2881,1.2881,1.3324,1.3815,1.3815,1.4595,1.5365,1.5543,1.5908,1.6355,1.6951,1.7638,1.8233,1.8597,1.893,1.8971,1.8426,1.737,1.6287,1.538,1.456,1.4332,1.4915,1.4946,1.5211,1.5915,1.5708,1.5477,1.5389,1.4911,1.4692,1.4807,1.4666,1.4779,1.5229,1.4929,1.4855,1.499,1.4353,1.3736,1.3173,1.3658,1.3811,0.0,-0.6413,-0.6133,-0.6148,-0.577,0.0,0.0,-0.4794,-0.4519,-0.4519,-0.4519,-0.4519,-0.4519,-0.4519,-0.4519,-0.4519,-0.5089,-0.5517,-0.5528,-0.625,-0.6768,-0.6656,-0.6487,-0.6073,-0.5037,-0.4712,-0.4584,-0.4603,-0.3438,-0.2589,-0.2195,-0.097,-0.0056,0.0392,0.0392,0.0616,0.1119,0.1396,0.2124,0.3307,0.2837,0.3274,0.4463,0.4015,0.407,0.4519,0.5234,0.5508,0.0,0.6569,0.6999,0.7109,0.7805,0.81,0.8271,0.9408,0.9963,1.0281,1.0953,1.1616,1.2231,1.2231,1.2357,1.2344,1.1653,1.1589,1.1923,1.2365,1.2852,1.3238,1.3238,1.3873,1.4503,1.4503,1.5231,1.5952,1.5952,1.6238,1.668,1.7188,1.7747,1.8285,1.8793,1.8881,1.8637,1.7887,1.6803,1.564,1.4537,1.3842,1.3794,1.4606,1.4698,1.5224,1.6556,1.6064,1.564,1.5508,1.5212,1.5049,1.522,1.5018,1.5121,1.5565,1.5144,1.5018,1.5271,1.465,1.4172,1.3904,1.4276,1.4414,0.0,0.0,0.0,0.0,0.0,0.0,0.0,0.0,0.0,-0.4519,-0.4519,-0.4519,-0.4519,-0.4519,-0.4519,-0.4519,-0.5033,-0.5436,-0.5436,-0.6008,-0.6197,-0.5559,-0.5715,-0.5578,-0.4758,-0.4114,-0.374,-0.3798,-0.2206,-0.1292,-0.1234,0.0228,0.1118,0.1174,0.1229,0.1283,0.128,0.1941,0.2658,0.3387,0.3442,0.3837,0.4519,0.4519,0.4519,0.4632,0.5258,0.5618,0.5766,0.7211,0.7805,0.7923,0.8626,0.8923,0.9042,0.9715,1.0348,1.0988,1.1664,1.2357,1.2881,1.2881,1.2415,1.1661,1.1073,1.1297,1.1804,1.1935,1.2841,1.3815,1.3862,1.4721,1.5588,1.5588,1.6076,1.6572,1.6572,1.6572,1.6744,1.7389,1.7801,1.8305,1.8994,1.8985,1.8546,1.7457,1.6281,1.5081,1.3945,1.3272,1.3344,1.456,1.4698,1.5398,1.7092,1.6624,1.6088,1.5629,1.5563,1.5582,1.5754,1.5295,1.5259,1.574,1.5258,1.499,1.4967,1.485,1.4713,1.4587,1.4964,1.5183,0.0,0.0,0.0,0.0,0.0,0.0,0.0,0.0,0.0,0.0,0.0,-0.4519,-0.4519,-0.4519,-0.4519,-0.4519,-0.4632,-0.4746,-0.4746,-0.5044,-0.5232,-0.5039,-0.4678,-0.4545,-0.4713,-0.3526,-0.3053,-0.3618,-0.2119,-0.0943,-0.0475,0.0514,0.1341,0.1898,0.2508,0.2788,0.2792,0.2947,0.3442,0.4233,0.4233,0.4346,0.4519,0.4519,0.4802,0.5317,0.6023,0.6686,0.7264,0.8171,0.8864,0.9348,0.9475,0.9895,1.0401,1.1092,1.1413,1.1674,1.2366,1.2745,1.2881,1.2881,1.2415,1.1749,1.163,1.1692,1.1995,1.3035,1.3569,1.3909,1.4376,1.505,1.5588,1.5588,1.6426,1.7174,1.7174,1.7174,1.7587,1.9019,1.8659,1.8725,2.0688,1.9835,1.87,1.8035,1.6548,1.5082,1.3969,1.3272,1.3344,1.456,1.4698,1.5242,1.6582,1.6173,1.6132,1.6849,1.611,1.5853,1.63,1.6183,1.6191,1.6305,1.6182,1.5942,1.5514,1.5694,1.5552,1.5124,1.5461,1.5651,0.0,0.0,0.0,0.0,0.0,0.0,0.0,0.0,0.0,0.0,0.0,-0.4519,-0.4519,-0.4519,-0.4519,-0.4519,-0.4519,-0.4519,-0.4519,-0.4679,-0.4803,-0.4753,-0.4191,-0.3894,-0.4089,-0.2742,-0.2047,-0.2448,-0.1284,-0.0288,0.0348,0.1188,0.1953,0.2681,0.3458,0.3683,0.335,0.3677,0.4064,0.4519,0.4519,0.4519,0.4519,0.4805,0.5132,0.5567,0.6663,0.7307,0.7771,0.8838,0.9475,0.982,1.0123,1.0501,1.0879,1.1566,1.1796,1.1914,1.2618,1.2881,1.2813,1.2492,1.2357,1.2231,1.1914,1.2021,1.2445,1.317,1.3758,1.443,1.5245,1.5956,1.6492,1.6736,1.7285,1.7689,1.7438,1.7823,1.8427,1.9359,1.9446,1.9698,2.072,1.9594,1.8256,1.7365,1.5779,1.4454,1.3771,1.3234,1.3344,1.456,1.4698,1.5276,1.674,1.6359,1.6309,1.6896,1.6401,1.6208,1.6509,1.6522,1.6522,1.6522,1.6522,1.6237,1.5684,1.6036,1.5881,1.5314,1.5725,1.5857,0.0,0.0,0.0,0.0,0.0,0.0,0.0,0.0,0.0,0.0,0.0,0.0,0.0,-0.4519,-0.4519,-0.4519,-0.4519,-0.4519,-0.4519,-0.4632,-0.465,-0.4507,-0.3845,-0.3414,-0.3429,-0.19,-0.0972,-0.1084,-0.0291,0.051,0.1235,0.1956,0.2736,0.3466,0.4132,0.4184,0.3566,0.4184,0.4519,0.4519,0.4519,0.457,0.4677,0.525,0.5618,0.5896,0.7285,0.7907,0.8146,0.9408,1.0001,1.0164,1.0714,1.1005,1.1177,1.174,1.1981,1.2048,1.2677,1.2881,1.2803,1.2173,1.2366,1.2803,1.2164,1.2464,1.3045,1.3082,1.3878,1.4994,1.6242,1.6974,1.7526,1.8078,1.8267,1.8251,1.7865,1.8539,1.9311,1.9586,2.0315,2.0804,2.0402,1.928,1.797,1.6559,1.5018,1.3901,1.3562,1.3243,1.3478,1.4571,1.488,1.5608,1.7188,1.6951,1.671,1.6637,1.6552,1.6522,1.6522,1.6522,1.6522,1.6522,1.6522,1.6293,1.5819,1.6126,1.5994,1.5445,1.5831,1.5931,-1.0261,-0.9961,-0.9599,-0.8896,0.0,0.0,0.0,0.0,0.0,0.0,0.0,0.0,0.0,-0.4519,-0.4519,-0.4519,-0.4519,-0.4519,-0.4519,-0.4632,-0.4668,-0.4529,-0.3387,-0.2858,-0.3375,-0.1454,-0.0449,-0.1074,0.0178,0.125,0.1973,0.28,0.3577,0.4294,0.4463,0.446,0.4349,0.4463,0.4519,0.4519,0.4519,0.478,0.5362,0.5433,0.618,0.7429,0.8205,0.8919,0.9533,1.034,1.099,1.15,1.1594,1.2039,1.2609,1.2686,1.2745,1.2745,1.2871,1.2881,1.2881,1.2754,1.2813,1.2881,1.2754,1.317,1.3779,1.4272,1.456,1.5097,1.6794,1.733,1.7526,1.8078,1.8555,1.9016,1.9512,1.974,2.0334,2.1849,2.1485,2.1167,2.2104,2.069,1.9059,1.782,1.6131,1.4604,1.3616,1.3608,1.392,1.4606,1.5564,1.6434,1.7216,1.7626,1.7666,1.7188,1.6752,1.6522,1.6522,1.6522,1.6522,1.6522,1.6522,1.6454,1.6386,1.6337,1.6192,1.5982,1.5997,1.5931,-1.0415,-1.0064,-0.971,0.0,0.0,-0.6934,-0.6239,0.0,0.0,0.0,0.0,0.0,0.0,-0.4519,-0.4519,-0.4519,-0.4122,-0.4006,-0.446,-0.4574,-0.4574,-0.4519,-0.3194,-0.247,-0.2699,-0.1064,-0.0168,-0.0503,0.0518,0.1446,0.2178,0.2954,0.3677,0.446,0.4519,0.4519,0.4519,0.486,0.5018,0.5046,0.5046,0.5433,0.6095,0.6534,0.7047,0.7741,0.8813,0.9489,0.9892,1.093,1.1492,1.1856,1.2231,1.2609,1.2881,1.2881,1.2881,1.2881,1.2881,1.2881,1.2881,1.2881,1.2881,1.2881,1.2881,1.3324,1.401,1.4882,1.5177,1.561,1.7347,1.7827,1.8041,1.8869,1.9258,1.956,1.9908,2.0496,2.1203,2.2101,2.2047,2.1712,2.1222,1.9795,1.8263,1.6931,1.531,1.4307,1.4357,1.4035,1.4143,1.5096,1.5915,1.6646,1.7271,1.7787,1.7867,1.7353,1.6795,1.6522,1.6522,1.6522,1.6522,1.6522,1.6522,1.6522,1.6522,1.6426,1.6344,1.6218,1.6083,1.5998,-1.0312,-0.9961,-0.951,0.0,0.0,-0.6815,-0.6708,0.0,0.0,0.0,0.0,0.0,0.0,-0.4346,-0.4236,-0.4245,-0.3729,-0.35,-0.4122,-0.4405,-0.4519,-0.4519,-0.3161,-0.2223,-0.2189,-0.0842,0.0,0.0,0.0842,0.162,0.2159,0.3051,0.3837,0.4463,0.4519,0.4519,0.4519,0.5171,0.5492,0.5483,0.5688,0.6136,0.6885,0.7628,0.8019,0.8279,0.9679,1.0248,1.0342,1.1563,1.2048,1.2106,1.2677,1.2881,1.2881,1.2881,1.2881,1.2881,1.2881,1.2881,1.2881,1.2881,1.2881,1.2881,1.2881,1.3324,1.4031,1.5015,1.5533,1.6209,1.7949,1.8392,1.8643,1.9572,1.9901,2.0079,2.0359,2.1219,2.1959,2.2075,2.2422,2.2084,2.0104,1.8821,1.7543,1.5954,1.4636,1.4108,1.4842,1.4475,1.4578,1.5676,1.6378,1.7136,1.7946,1.8363,1.8324,1.7679,1.7021,1.6637,1.6522,1.6522,1.6423,1.6281,1.6281,1.6281,1.6281,1.6281,1.6376,1.6467,1.6393,1.6362,-0.8962,-0.891,-0.8692,-0.8043,-0.7717,0.0,-0.7007,-0.6262,0.0,-0.481,0.0,0.0,-0.4519,-0.3895,-0.3398,-0.3487,-0.3352,-0.3329,-0.3387,-0.4009,-0.4519,-0.4519,-0.3161,-0.2223,-0.2189,-0.0842,0.0,0.0,0.1291,0.2125,0.2215,0.3611,0.446,0.4519,0.4519,0.4519,0.4519,0.5177,0.5511,0.5487,0.619,0.6886,0.7639,0.8336,0.9006,0.9703,1.1048,1.1648,1.1747,1.2491,1.2813,1.2813,1.2881,1.2881,1.2881,1.2881,1.2881,1.2881,1.2881,1.2881,1.2881,1.2881,1.2881,1.2881,1.2881,1.3324,1.392,1.4558,1.551,1.675,1.851,1.892,1.9108,1.9673,2.0308,2.0868,2.1465,2.2118,2.2634,2.2637,2.2665,2.2072,2.0053,1.9071,1.7961,1.6149,1.5204,1.4612,1.4457,1.4871,1.5497,1.6269,1.73,1.8569,1.9974,2.0066,1.9672,1.874,1.7786,1.7034,1.6522,1.6522,1.6238,1.5676,1.5676,1.5676,1.5676,1.5676,1.6158,1.7044,1.704,1.722,-0.8103,-0.7777,-0.745,-0.767,-0.7015,0.0,0.0,-0.5623,-0.5036,-0.4765,-0.4716,0.0,-0.4519,-0.3442,-0.2781,-0.3322,-0.2974,-0.2792,-0.3222,-0.4006,-0.4346,-0.3892,-0.2883,-0.2,-0.157,-0.0617,0.0168,0.0673,0.1619,0.2391,0.2938,0.395,0.4519,0.4519,0.4878,0.5038,0.4876,0.6041,0.6643,0.6651,0.7068,0.7876,0.8995,0.9287,0.974,1.0466,1.1416,1.1814,1.1864,1.2608,1.2881,1.2881,1.2881,1.2881,1.2881,1.2881,1.2881,1.2881,1.2881,1.2881,1.2881,1.2881,1.2881,1.2881,1.2881,1.3324,1.4084,1.5411,1.6346,1.7219,1.8248,1.8769,1.9158,1.9673,2.0295,2.0993,2.1568,2.2253,2.2694,2.2694,2.2011,2.0882,1.9288,1.8043,1.6926,1.5735,1.5167,1.4934,1.5361,1.5312,1.573,1.6837,1.8207,1.939,2.023,2.0283,1.9978,1.9339,1.8296,1.7341,1.6509,1.6522,1.638,1.6139,1.6151,1.6151,1.6151,1.6151,1.6528,1.721,1.7145,1.7181,-0.7402,-0.6966,-0.6642,0.0,0.0,0.0,-0.5445,-0.5111,-0.4781,-0.4774,-0.4568,-0.4291,-0.4177,-0.2883,-0.2054,-0.2583,-0.2193,-0.2015,-0.2552,-0.3274,-0.3611,-0.3106,-0.233,-0.1671,-0.1121,-0.0449,0.028,0.101,0.1711,0.2441,0.3226,0.3943,0.4321,0.4321,0.4975,0.5242,0.5061,0.6448,0.7279,0.7629,0.8011,0.8786,0.9791,1.0261,1.0661,1.1166,1.1832,1.2129,1.2187,1.2666,1.2881,1.2881,1.2881,1.2881,1.2881,1.2881,1.2881,1.2881,1.2881,1.2881,1.2881,1.2881,1.2881,1.2881,1.2881,1.3324,1.4095,1.5478,1.6543,1.7436,1.8049,1.8877,1.9646,2.0016,2.0782,2.15,2.1913,2.2392,2.2543,2.2118,2.1102,1.9826,1.8235,1.7158,1.6213,1.5349,1.513,1.526,1.5708,1.5688,1.61,1.7393,1.9045,2.0181,2.0483,2.0781,2.0585,1.9838,1.8935,1.7917,1.6795,1.6595,1.6337,1.5932,1.6107,1.6107,1.5932,1.6107,1.6612,1.7299,1.7222,1.7019,-0.6804,-0.6588,-0.6421,0.0,0.0,0.0,-0.4822,-0.4817,-0.4918,-0.491,-0.4197,-0.3555,-0.3387,-0.2158,-0.1108,-0.112,-0.1122,-0.1118,-0.1107,-0.1713,-0.2213,-0.2213,-0.1562,-0.1122,-0.1066,-0.0449,0.028,0.0842,0.1611,0.2268,0.2898,0.3614,0.4019,0.4019,0.4571,0.4908,0.4931,0.6181,0.7313,0.8297,0.9063,0.9577,0.9841,1.119,1.1814,1.1864,1.2559,1.2881,1.2881,1.2881,1.2881,1.2881,1.2881,1.2881,1.2881,1.2881,1.2881,1.2929,1.2881,1.2881,1.2929,1.2881,1.2881,1.2881,1.2881,1.3324,1.392,1.4525,1.5939,1.7436,1.8049,1.9533,2.0795,2.0795,2.1752,2.2694,2.2694,2.2694,2.2285,2.0868,2.0116,1.9024,1.6856,1.6482,1.612,1.4966,1.533,1.5627,1.5355,1.5926,1.6774,1.8002,1.9838,2.0991,2.0991,2.1781,2.1702,2.0307,1.9682,1.8743,1.734,1.6795,1.5932,1.4744,1.532,1.532,1.4709,1.532,1.6188,1.7312,1.7312,1.6892,-0.5869,-0.5492,0.0,-0.5433,0.0,0.0,0.0,-0.467,0.0,0.0,-0.3766,-0.3395,-0.2685,-0.1733,-0.1118,-0.1122,-0.1122,-0.1121,-0.1117,-0.1733,-0.2014,-0.1509,-0.1232,-0.0898,-0.0393,0.028,0.0898,0.1628,0.225,0.2943,0.3626,0.386,0.4218,0.461,0.5331,0.5768,0.5948,0.685,0.7619,0.8318,0.9344,1.0314,1.124,1.1607,1.208,1.2608,1.2822,1.2881,1.2881,1.2881,1.2881,1.2881,1.2881,1.2881,1.2881,1.2881,1.3152,1.3457,1.3065,1.32,1.3457,1.3065,1.2881,1.2881,1.2881,1.3324,1.3973,1.4982,1.6265,1.7654,1.9111,2.0454,2.1342,2.0894,2.1752,2.2558,2.21,2.2346,2.2146,2.033,1.9391,1.8407,1.68,1.6093,1.5766,1.5976,1.5846,1.6083,1.7075,1.7747,1.8461,1.9282,2.0334,2.0991,2.0991,2.1229,2.1213,2.0797,1.933,1.8129,1.734,1.6795,1.6337,1.5976,1.6151,1.6151,1.5976,1.6151,1.6612,1.7271,1.6376,1.5586,-0.5065,-0.4696,0.0,-0.4988,-0.4787,-0.4405,-0.407,0.0,0.0,-0.3791,-0.3162,-0.2512,-0.1852,-0.1178,-0.0673,-0.0673,-0.0673,-0.0673,-0.0673,-0.1066,-0.1178,-0.0729,-0.0673,-0.0393,0.028,0.0673,0.1261,0.2227,0.2595,0.3126,0.3806,0.4022,0.4306,0.4683,0.5619,0.6156,0.6313,0.7194,0.8107,0.8939,0.9874,1.0982,1.2236,1.2236,1.2501,1.2881,1.2881,1.2881,1.2881,1.2881,1.2881,1.2881,1.2881,1.2881,1.2881,1.2881,1.3286,1.3732,1.3372,1.3647,1.405,1.3467,1.3238,1.319,1.2968,1.3467,1.4302,1.4962,1.6221,1.7622,1.893,2.0332,2.142,2.1554,2.2128,2.2603,2.2193,2.1805,2.1046,1.957,1.846,1.7401,1.6244,1.569,1.5642,1.6379,1.6364,1.6706,1.7907,1.8358,1.8806,1.9444,2.0408,2.0991,2.0991,2.115,2.1181,2.0991,1.936,1.8143,1.7626,1.6909,1.638,1.6151,1.638,1.638,1.6139,1.638,1.6539,1.6617,1.5576,1.4283,-0.4418,-0.4207,-0.4231,-0.4426,-0.446,0.0,-0.3511,-0.334,-0.3392,-0.3535,-0.2362,-0.1234,-0.101,-0.0449,0.0,0.0,0.0,0.0,0.0,0.0,0.0,0.0,0.0055,0.0277,0.0826,0.0991,0.151,0.2615,0.2804,0.3075,0.3663,0.418,0.4522,0.4561,0.561,0.6264,0.6355,0.7363,0.8547,0.9866,1.0481,1.1508,1.2764,1.2842,1.2881,1.2881,1.2881,1.2881,1.2881,1.2881,1.2881,1.2881,1.2881,1.2881,1.2881,1.2881,1.3286,1.3815,1.3815,1.419,1.4606,1.405,1.3815,1.3732,1.319,1.3836,1.4698,1.4744,1.6049,1.7555,1.8135,1.9551,2.1077,2.2257,2.2622,2.2694,2.2603,2.1108,1.9428,1.8649,1.7412,1.6265,1.5526,1.541,1.5671,1.6377,1.6927,1.7506,1.8188,1.8221,1.8411,1.9017,2.0193,2.0926,2.0926,2.1275,2.1337,2.0959,1.9561,1.8541,1.8145,1.7076,1.6238,1.5676,1.6238,1.6238,1.5676,1.6194,1.6095,1.5487,1.4631,1.2912,0.0,-0.4334,0.0,-0.4426,-0.407,-0.3627,-0.3577,-0.2569,-0.1631,-0.1677,-0.1485,-0.1066,-0.0393,-0.0112,0.0,0.0,0.0,0.0,0.0,0.0,0.0,0.0,0.0398,0.0754,0.0898,0.1739,0.2408,0.2679,0.3507,0.4081,0.422,0.4783,0.5303,0.5787,0.605,0.6647,0.7538,0.7787,0.847,0.9608,1.0406,1.1198,1.191,1.2616,1.2881,1.2881,1.2881,1.2881,1.2881,1.2881,1.2881,1.2881,1.2881,1.2881,1.2881,1.2881,1.3286,1.3815,1.3815,1.419,1.4698,1.456,1.419,1.3862,1.4201,1.4479,1.4789,1.5276,1.6365,1.7632,1.864,1.9513,2.0311,2.1097,2.2018,2.2558,2.2039,2.0752,1.9337,1.8078,1.7124,1.6265,1.5526,1.541,1.5565,1.6029,1.7517,1.8681,1.8903,1.881,1.915,2.0203,2.0391,2.0449,2.0449,2.055,2.0534,2.0449,1.9082,1.821,1.8092,1.7076,1.6423,1.6293,1.6423,1.6423,1.6293,1.5952,1.5463,1.4778,1.2579,1.064,0.0,0.0,0.0,-0.3981,0.0,-0.3234,-0.2571,-0.1732,-0.1006,-0.0671,-0.0616,-0.0561,-0.0056,0.0,0.0,0.0,0.0,0.0,0.0,0.0,0.0,0.0,0.0527,0.1027,0.1295,0.218,0.2937,0.3463,0.4081,0.4517,0.4826,0.5394,0.5873,0.6179,0.6435,0.6859,0.7447,0.8028,0.8643,0.9429,1.0395,1.1089,1.1636,1.248,1.2881,1.2881,1.2881,1.3055,1.3334,1.3017,1.3065,1.3286,1.3017,1.2881,1.2881,1.2881,1.3286,1.3815,1.3815,1.4365,1.505,1.4468,1.4457,1.4595,1.4376,1.4652,1.5186,1.5499,1.6259,1.7168,1.8013,1.8682,1.9328,2.0203,2.1136,2.1527,2.0582,1.9497,1.8359,1.7302,1.6482,1.5786,1.5235,1.5519,1.5974,1.6468,1.7725,1.8715,1.8961,1.8944,1.9227,2.0139,2.0284,2.0314,2.0314,2.0314,2.0314,2.0314,1.891,1.8106,1.8106,1.7076,1.6522,1.6522,1.6522,1.638,1.6051,1.5419,1.4654,1.3674,1.1648,0.9813,0.0,0.0,-0.3785,-0.3379,-0.3137,0.0,-0.1384,-0.1002,-0.0727,-0.0112,0.0,0.0,0.0,0.0,0.0,0.0,0.0,0.0,0.0,0.0,0.0051,0.0153,0.0714,0.1305,0.1914,0.2581,0.3378,0.4343,0.4609,0.4913,0.5437,0.6002,0.6349,0.6349,0.6774,0.7105,0.7314,0.8218,0.8947,0.9495,1.0446,1.1182,1.1743,1.2432,1.2773,1.2773,1.2842,1.3238,1.3779,1.3238,1.3324,1.3732,1.3238,1.2968,1.2881,1.2881,1.3238,1.3684,1.3862,1.4549,1.5174,1.4365,1.4732,1.5276,1.4365,1.4812,1.5632,1.5732,1.6095,1.6637,1.7146,1.771,1.8345,1.9259,1.9905,2.0078,1.9137,1.8123,1.7236,1.6525,1.5871,1.5303,1.4907,1.568,1.6513,1.7,1.7738,1.8385,1.8824,1.8885,1.9132,1.9639,2.0,2.0193,2.0193,2.0108,2.0104,2.0192,1.8779,1.7988,1.8098,1.7002,1.6324,1.6324,1.6324,1.6051,1.5431,1.4687,1.3732,1.248,1.1116,0.9613,0.0,0.0,-0.2578,0.0,-0.2245,-0.1335,-0.1122,-0.0602,-0.0112,0.0,0.0,0.0,0.0,0.0,0.0,0.0,0.0,0.0,0.0,0.0,0.0212,0.0888,0.1368,0.198,0.2697,0.3605,0.4256,0.4387,0.5346,0.6007,0.6093,0.6598,0.6894,0.6894,0.6979,0.7474,0.8472,0.8635,0.9185,1.0165,1.0651,1.1338,1.2102,1.2266,1.2268,1.2334,1.2715,1.3238,1.3768,1.3732,1.3732,1.3779,1.3732,1.3372,1.2881,1.2881,1.2978,1.3152,1.4201,1.4329,1.4179,1.5084,1.5096,1.488,1.5276,1.5487,1.572,1.6238,1.6423,1.6637,1.7146,1.7365,1.7485,1.7606,1.8084,1.8608,1.8923,1.7891,1.6729,1.6083,1.5802,1.5553,1.5123,1.6126,1.7003,1.7091,1.7715,1.8352,1.8849,1.8898,1.9132,1.9639,1.9747,1.9782,1.9782,1.9339,1.9299,1.9773,1.8302,1.762,1.8163,1.6592,1.572,1.572,1.572,1.5374,1.4722,1.3831,1.2725,1.14,1.0243,0.9291,-0.2062,-0.2167,-0.2051,0.0,-0.1529,-0.0986,-0.0582,-0.0215,0.0,0.0,0.0,0.0,0.0,0.0,0.0,0.0,0.0336,0.0609,0.0591,0.0971,0.1317,0.155,0.2108,0.263,0.3176,0.3949,0.4696,0.5351,0.5916,0.6349,0.6647,0.6852,0.6979,0.6979,0.7321,0.7739,0.8242,0.8837,0.9518,1.0283,1.0713,1.1113,1.1504,1.2333,1.2833,1.3134,1.3328,1.3956,1.4767,1.4422,1.4503,1.4721,1.4039,1.3647,1.3372,1.3017,1.2881,1.2978,1.3525,1.3742,1.3909,1.4411,1.4869,1.5231,1.5543,1.582,1.6151,1.6423,1.6522,1.6552,1.6795,1.6837,1.6956,1.729,1.703,1.6814,1.7015,1.6731,1.6265,1.5573,1.5198,1.5154,1.5691,1.6021,1.65,1.7114,1.7756,1.8353,1.8831,1.9169,1.9442,1.969,1.969,1.9566,1.9281,1.9301,1.9173,1.8826,1.7821,1.7209,1.7213,1.6059,1.5208,1.4788,1.5208,1.4915,1.381,1.325,1.2262,1.0886,1.0037,0.9323,0.0,0.0,-0.1422,-0.1098,-0.0952,-0.0659,-0.0103,0.0,0.0,0.0,0.0,0.0056,0.0224,0.0112,0.0056,0.0224,0.0727,0.117,0.138,0.1845,0.2223,0.2344,0.2717,0.3147,0.3601,0.4244,0.5057,0.5922,0.6221,0.6562,0.6979,0.6979,0.7063,0.7238,0.7663,0.8074,0.8451,0.938,1.0026,1.0283,1.0713,1.104,1.1344,1.2534,1.3499,1.4226,1.4097,1.4641,1.5588,1.5096,1.5186,1.5487,1.4595,1.4179,1.3956,1.3515,1.3238,1.3152,1.3296,1.3563,1.3815,1.3956,1.4732,1.5588,1.5588,1.6008,1.6522,1.6522,1.6522,1.6522,1.6522,1.6522,1.6622,1.7061,1.6357,1.5539,1.5277,1.5384,1.5375,1.4987,1.4789,1.4967,1.5936,1.5941,1.6223,1.731,1.7838,1.8337,1.9029,1.9442,1.969,1.969,1.969,1.9553,1.9147,1.9358,1.914,1.8313,1.7587,1.695,1.6523,1.5474,1.4626,1.4033,1.4378,1.3971,1.2813,1.2517,1.172,1.0523,1.0096,0.9706,0.0,-0.0532,0.0,-0.0778,-0.0491,-0.005,0.0,0.0,0.0,0.0,0.0,0.0224,0.0895,0.0448,0.0224,0.0951,0.1062,0.1326,0.2028,0.2182,0.2462,0.324,0.3205,0.3346,0.3928,0.4887,0.54,0.5366,0.6337,0.6979,0.6979,0.6979,0.7273,0.7829,0.7878,0.855,0.9978,1.0539,1.0633,1.0283,1.0713,1.1406,1.2425,1.2899,1.3983,1.5487,1.4926,1.5005,1.5588,1.5588,1.5588,1.5576,1.5543,1.5141,1.4652,1.4617,1.4236,1.3815,1.4422,1.4236,1.3909,1.4468,1.5096,1.5588,1.5588,1.6008,1.6522,1.6522,1.6522,1.6522,1.6522,1.6522,1.6522,1.6559,1.6064,1.5404,1.4628,1.4043,1.378,1.4354,1.4855,1.5325,1.5591,1.6098,1.682,1.7916,1.8085,1.8489,1.9536,1.969,1.969,1.969,1.969,1.9694,1.9649,1.9237,1.8873,1.8668,1.769,1.7015,1.6811,1.4891,1.3879,1.3826,1.2993,1.2273,1.1701,1.1353,1.084,1.0161,1.0443,1.0521,0.0,0.0,0.0,-0.025,-0.0147,0.0,0.0,0.0,0.0,0.0,0.0,0.0224,0.095,0.0895,0.095,0.1675,0.223,0.2609,0.285,0.3374,0.3739,0.3918,0.3844,0.41,0.4884,0.5457,0.6091,0.6653,0.7263,0.7515,0.7315,0.7657,0.7874,0.7878,0.8561,0.9465,1.0609,1.0784,1.0977,1.1145,1.1662,1.2266,1.2933,1.4149,1.5045,1.5632,1.5776,1.5976,1.6194,1.6194,1.6194,1.6139,1.5764,1.5454,1.5231,1.4835,1.456,1.4329,1.419,1.4236,1.4422,1.4606,1.5096,1.5676,1.6051,1.6324,1.6522,1.6522,1.6522,1.6522,1.6522,1.6522,1.6293,1.5522,1.5395,1.5249,1.4654,1.4084,1.3886,1.4486,1.5071,1.5624,1.611,1.6343,1.6863,1.7936,1.8086,1.8491,1.9543,1.9406,1.9207,1.9207,1.9176,1.9053,1.8767,1.8758,1.8447,1.7739,1.6843,1.5911,1.491,1.4076,1.3141,1.2102,1.2012,1.1788,1.1252,1.1481,1.1178,1.0408,1.0514,1.0624,0.0,0.0,0.0,0.0,0.0,0.0,0.0,0.0,0.0052,0.0313,0.038,0.0671,0.1675,0.1842,0.2009,0.2508,0.301,0.34,0.3677,0.4181,0.4535,0.4645,0.4634,0.494,0.5707,0.6196,0.6676,0.7314,0.7715,0.7796,0.7527,0.7923,0.8202,0.8296,0.9688,1.0586,1.0908,1.1201,1.1426,1.1606,1.2138,1.2748,1.3498,1.4732,1.5511,1.5908,1.6337,1.6522,1.6522,1.6522,1.6522,1.6479,1.6051,1.5908,1.5864,1.5466,1.5197,1.496,1.4549,1.4687,1.5017,1.5017,1.541,1.5964,1.638,1.6522,1.6522,1.6522,1.6522,1.6522,1.6522,1.6522,1.625,1.5242,1.5211,1.5263,1.4751,1.4297,1.4227,1.5119,1.545,1.5804,1.6392,1.6522,1.6782,1.7679,1.7838,1.8209,1.9281,1.8945,1.8774,1.9142,1.8999,1.8845,1.8763,1.8719,1.8301,1.7326,1.6535,1.5581,1.4382,1.3711,1.2873,1.1744,1.1483,1.1243,1.0913,1.1243,1.1108,1.0624,1.0624,1.0744,0.0,0.0,0.0,0.0054,0.0053,0.0052,0.0049,0.0051,0.0264,0.0966,0.112,0.1563,0.3005,0.3342,0.34,0.3456,0.3456,0.368,0.4405,0.4515,0.4787,0.5433,0.5542,0.5793,0.6375,0.6985,0.7242,0.7128,0.7608,0.7822,0.7553,0.7815,0.8339,0.915,1.113,1.1772,1.0957,1.1797,1.2012,1.1689,1.2067,1.2937,1.4157,1.4586,1.5377,1.6522,1.6522,1.6522,1.6522,1.6522,1.6522,1.6522,1.6522,1.6522,1.6522,1.6522,1.6151,1.5632,1.5588,1.5632,1.5632,1.5588,1.6008,1.6522,1.6522,1.6522,1.6522,1.6522,1.6522,1.6522,1.6522,1.6522,1.6337,1.572,1.5611,1.549,1.4858,1.4616,1.4844,1.6115,1.599,1.5832,1.638,1.6522,1.6683,1.7243,1.7308,1.7666,1.8778,1.8411,1.8514,1.9558,1.9196,1.9111,1.9703,1.9054,1.8365,1.7599,1.6877,1.6151,1.541,1.3846,1.3009,1.2948,1.1421,1.0624,1.0624,1.0624,1.0624,1.0624,1.0624,1.1045,0.1452,0.0,0.0,0.0,0.0,0.0,0.1604,0.1567,0.1627,0.1724,0.1811,0.2159,0.2974,0.3294,0.3566,0.4125,0.4184,0.4294,0.446,0.4893,0.5269,0.5487,0.5982,0.6498,0.7002,0.735,0.7725,0.8015,0.8342,0.8437,0.8185,0.8823,0.9744,1.0848,1.1743,1.2064,1.182,1.2064,1.2536,1.3207,1.3461,1.416,1.521,1.576,1.6194,1.6522,1.6522,1.6522,1.6522,1.6522,1.6522,1.6522,1.6522,1.6522,1.6522,1.6522,1.638,1.6194,1.5764,1.5908,1.6194,1.5732,1.6008,1.6522,1.6522,1.6522,1.6522,1.6522,1.6522,1.6522,1.6522,1.6522,1.6337,1.572,1.617,1.6575,1.6044,1.6124,1.6263,1.5899,1.6435,1.6821,1.6541,1.6522,1.682,1.772,1.7558,1.7692,1.8755,1.848,1.828,1.8598,1.8826,1.8824,1.8461,1.8095,1.7574,1.6856,1.6083,1.5342,1.4569,1.3554,1.2757,1.2143,1.1108,1.0624,1.0624,1.0624,1.0624,1.0624,1.1226,1.1903,0.0,0.0,0.0,0.0,0.0,0.0,0.2139,0.2099,0.2142,0.2333,0.2417,0.2709,0.3333,0.3586,0.3812,0.4308,0.4372,0.4395,0.4508,0.5058,0.5597,0.5923,0.6637,0.7287,0.7887,0.8063,0.8252,0.8564,0.8711,0.8829,0.8952,0.9643,1.0427,1.1403,1.2117,1.2412,1.218,1.2412,1.2939,1.3815,1.392,1.4552,1.5632,1.5952,1.6238,1.6522,1.6522,1.6522,1.6522,1.6522,1.6522,1.6522,1.6522,1.6522,1.6522,1.6522,1.6522,1.6466,1.6095,1.6194,1.6423,1.6095,1.6194,1.6522,1.6522,1.6522,1.6522,1.6522,1.6522,1.6522,1.6522,1.6522,1.6423,1.6051,1.6621,1.7156,1.6886,1.7192,1.7326,1.652,1.6715,1.6911,1.6572,1.6522,1.671,1.7353,1.719,1.738,1.8451,1.8169,1.8098,1.8805,1.869,1.8469,1.8239,1.7574,1.6978,1.6549,1.5806,1.5177,1.4746,1.3614,1.2757,1.2328,1.117,1.0624,1.0624,1.0624,1.0744,1.1108,1.1593,1.2381,0.0,0.0,0.0,0.0,0.2561,0.0,0.2324,0.2297,0.2409,0.2927,0.3071,0.3251,0.3896,0.406,0.4114,0.4197,0.4217,0.4317,0.4498,0.5164,0.5869,0.6529,0.7343,0.8103,0.8752,0.8804,0.8804,0.8804,0.8857,0.9211,0.9865,1.0319,1.0824,1.1357,1.2368,1.2743,1.2388,1.2733,1.3286,1.4003,1.3909,1.4549,1.572,1.572,1.6008,1.6522,1.6522,1.6522,1.6522,1.6522,1.6522,1.6522,1.6522,1.6522,1.6522,1.6522,1.6522,1.6522,1.6522,1.6522,1.6522,1.6522,1.6522,1.6522,1.6522,1.6522,1.6522,1.6522,1.6522,1.6522,1.6522,1.6522,1.6522,1.6522,1.6961,1.7363,1.73,1.7727,1.7953,1.74,1.6923,1.6597,1.6522,1.6522,1.6534,1.6683,1.6653,1.7028,1.8149,1.7862,1.8113,1.9439,1.8647,1.8111,1.8412,1.7246,1.6492,1.6368,1.569,1.5294,1.5294,1.3726,1.2887,1.2887,1.1358,1.0624,1.0744,1.0744,1.1108,1.1834,1.195,1.281,0.0,0.0,0.0,0.4878,0.4878,0.0,0.4165,0.4011,0.3986,0.3932,0.4062,0.4177,0.4174,0.4297,0.4385,0.4416,0.4423,0.4429,0.4515,0.5605,0.6421,0.6588,0.7777,0.8646,0.8804,0.8804,0.8804,0.8804,0.9309,0.9917,1.0568,1.1197,1.1862,1.2541,1.2783,1.3112,1.3465,1.3112,1.3695,1.5219,1.4744,1.5152,1.6337,1.6337,1.638,1.6522,1.6522,1.6522,1.6522,1.6522,1.6522,1.6522,1.6522,1.6522,1.6522,1.6522,1.6522,1.6522,1.6522,1.6522,1.6522,1.6522,1.6522,1.6522,1.6522,1.6522,1.6522,1.6522,1.6522,1.6522,1.6522,1.6522,1.6522,1.6522,1.6961,1.725,1.6785,1.7137,1.7375,1.6798,1.6974,1.7061,1.6597,1.6522,1.6789,1.7713,1.7511,1.7626,1.8708,1.8738,1.8561,1.8323,1.8414,1.8116,1.7024,1.6652,1.6265,1.5642,1.4864,1.4451,1.4451,1.287,1.2012,1.2012,1.1108,1.0926,1.1593,1.1593,1.1648,1.1834,1.3114,1.3906,0.521,0.5487,0.5597,0.5982,0.6036,0.0,0.0,0.5464,0.5307,0.477,0.475,0.4681,0.4199,0.4192,0.4267,0.4341,0.4555,0.4763,0.498,0.5932,0.675,0.7128,0.8103,0.8804,0.8804,0.8804,0.8962,0.9256,0.9614,1.0269,1.1266,1.1616,1.2138,1.2881,1.2881,1.3065,1.3324,1.3065,1.3658,1.5141,1.4835,1.5332,1.6522,1.6522,1.6522,1.6522,1.6522,1.6522,1.6522,1.6522,1.6522,1.6522,1.6522,1.6522,1.6522,1.6522,1.6522,1.6522,1.6522,1.6522,1.6522,1.6522,1.6522,1.6522,1.6522,1.6522,1.6522,1.6522,1.6522,1.6522,1.6522,1.6522,1.6522,1.6522,1.6966,1.732,1.7018,1.6925,1.6888,1.6954,1.6715,1.6527,1.6516,1.676,1.7125,1.7714,1.7784,1.8071,1.89,1.8659,1.8418,1.8298,1.7855,1.7302,1.6539,1.6151,1.5633,1.4864,1.4451,1.4025,1.3606,1.2443,1.1586,1.1233,1.0807,1.0982,1.1834,1.2205,1.2626,1.3053,1.3837,1.4392,0.5542,0.5814,0.6086,0.6637,0.6804,0.6758,0.0,0.0,0.0,0.5535,0.5403,0.5203,0.4607,0.4506,0.4539,0.4591,0.4931,0.5353,0.5775,0.6392,0.702,0.7616,0.8324,0.8744,0.8798,0.8804,0.9061,0.9769,0.9917,1.0517,1.1765,1.1922,1.2286,1.2881,1.2881,1.2978,1.3065,1.2968,1.3563,1.488,1.4755,1.5332,1.6522,1.6522,1.6522,1.6522,1.6522,1.6522,1.6522,1.6522,1.6522,1.6522,1.6522,1.6522,1.6522,1.6522,1.6522,1.6522,1.6522,1.6522,1.6522,1.6522,1.6522,1.6522,1.6522,1.6522,1.6522,1.6522,1.6522,1.6522,1.6522,1.6522,1.6522,1.6522,1.6888,1.7247,1.7251,1.6802,1.6563,1.711,1.6458,1.5908,1.6423,1.6911,1.725,1.7363,1.7765,1.8292,1.8895,1.8484,1.8195,1.8442,1.7413,1.6595,1.6322,1.5748,1.505,1.4264,1.4025,1.3606,1.2818,1.202,1.1288,1.0624,1.0624,1.0982,1.1834,1.2634,1.3425,1.4213,1.4392,1.4805,0.6258,0.6961,0.745,0.7563,0.7557,0.7391,0.6714,0.0,0.6543,0.6464,0.0,0.6406,0.6299,0.0,0.0,0.6014,0.6235,0.6569,0.7041,0.7366,0.7616,0.767,0.8158,0.8524,0.8784,0.8804,0.9061,0.9769,1.0364,1.1015,1.1765,1.2403,1.2822,1.2881,1.2881,1.3152,1.3684,1.3152,1.3789,1.5499,1.4971,1.5332,1.6522,1.6522,1.6522,1.6522,1.6522,1.6522,1.6522,1.6522,1.6522,1.6522,1.6522,1.6522,1.6522,1.6522,1.6522,1.6522,1.6522,1.6522,1.6522,1.6522,1.6522,1.6522,1.6522,1.6522,1.6522,1.6522,1.6522,1.6522,1.6522,1.6522,1.6522,1.6522,1.6534,1.6615,1.6609,1.6523,1.6523,1.6566,1.6473,1.6423,1.6479,1.6572,1.6785,1.73,1.7438,1.7852,1.8845,1.8921,1.859,1.7795,1.7578,1.6968,1.5633,1.5468,1.505,1.4264,1.3545,1.2757,1.1958,1.117,1.0681,1.0624,1.0624,1.0982,1.1834,1.2634,1.3425,1.4213,1.4932,1.5294,0.6312,0.6804,0.7289,0.8103,0.8321,0.8262,0.7937,0.7883,0.7777,0.7343,0.0,0.0,0.0,0.0,0.0,0.0,0.6733,0.7147,0.7506,0.7707,0.7955,0.8277,0.8534,0.8671,0.8798,0.8804,0.9061,0.9769,1.0415,1.1116,1.1765,1.251,1.2881,1.2881,1.2881,1.3017,1.3286,1.3017,1.3467,1.4538,1.4652,1.5152,1.6008,1.6337,1.6522,1.6522,1.6522,1.6522,1.6522,1.6522,1.6522,1.6522,1.6522,1.6522,1.6522,1.6522,1.6522,1.6522,1.6522,1.6522,1.6522,1.6522,1.6522,1.6522,1.6522,1.6522,1.6522,1.6522,1.6522,1.6522,1.6522,1.6522,1.6522,1.6522,1.6522,1.6522,1.6522,1.6238,1.6095,1.6423,1.6238,1.6095,1.6423,1.6798,1.7099,1.735,1.7928,1.8505,1.892,1.8918,1.8489,1.7665,1.7202,1.6539,1.5468,1.541,1.505,1.4264,1.2992,1.1958,1.117,1.0807,1.0624,1.0624,1.0624,1.1233,1.2512,1.2826,1.3666,1.4874,1.5235,1.5547,0.6263,0.675,0.7182,0.848,0.8804,0.8804,0.8804,0.8804,0.8646,0.8103,0.7996,0.0,0.0,0.0,0.716,0.0,0.0,0.7747,0.7868,0.8031,0.833,0.8758,0.8804,0.8804,0.8804,0.8804,0.9159,1.002,1.0517,1.1166,1.203,1.2618,1.2881,1.2881,1.2881,1.2881,1.2881,1.2881,1.319,1.3826,1.4422,1.5017,1.5632,1.6238,1.6522,1.6522,1.6522,1.6522,1.6522,1.6522,1.6522,1.6522,1.6522,1.6522,1.6522,1.6522,1.6522,1.6522,1.6522,1.6522,1.6522,1.6522,1.6522,1.6522,1.6522,1.6522,1.6522,1.6522,1.6522,1.6522,1.6522,1.6522,1.6522,1.6522,1.6522,1.6522,1.6522,1.6151,1.5964,1.6423,1.6151,1.6008,1.6423,1.6861,1.7149,1.7149,1.7965,1.8631,1.8781,1.8792,1.8454,1.7665,1.7146,1.6425,1.5468,1.541,1.505,1.4264,1.2679,1.1531,1.0926,1.0744,1.0624,1.0624,1.0624,1.1296,1.2696,1.2879,1.3787,1.5281,1.5352,1.5586,0.6367,0.7128,0.783,0.8593,0.8804,0.8804,0.8804,0.8804,0.8804,0.8752,0.8752,0.8752,0.8752,0.8752,0.0,0.0,0.0,0.0,0.0,0.8617,0.8784,0.8804,0.8804,0.8804,0.8804,0.8804,0.9361,1.0669,1.0762,1.1384,1.2774,1.2881,1.2881,1.2881,1.2881,1.2881,1.2881,1.2881,1.319,1.3826,1.4422,1.5017,1.5632,1.6238,1.6522,1.6522,1.6522,1.6522,1.6522,1.6522,1.6522,1.6522,1.6522,1.6522,1.6522,1.6522,1.6522,1.6522,1.6522,1.6522,1.6522,1.6522,1.6522,1.6522,1.6522,1.6522,1.6522,1.6522,1.6522,1.6522,1.6522,1.6522,1.6522,1.6522,1.6522,1.6522,1.6522,1.6466,1.6479,1.6522,1.6466,1.6479,1.6522,1.6534,1.6547,1.6547,1.7049,1.7626,1.8166,1.8657,1.8615,1.7686,1.7578,1.6968,1.5526,1.541,1.505,1.4264,1.2679,1.1772,1.1772,1.0982,1.0624,1.0624,1.0624,1.0989,1.1826,1.2634,1.3673,1.4905,1.5241,1.542,0.571,0.6416,0.7128,0.7883,0.8427,0.8804,0.8804,0.8804,0.8804,0.8804,0.8804,0.8804,0.8804,0.8804,0.0,0.0,0.0,0.0,0.0,0.9148,0.9614,1.0064,1.0115,1.0115,1.0115,0.9864,1.0027,1.0746,1.0936,1.1407,1.212,1.2618,1.2881,1.2881,1.2881,1.2881,1.2881,1.3286,1.36,1.3815,1.4824,1.541,1.5632,1.6238,1.6522,1.6522,1.6522,1.6522,1.6522,1.6522,1.6522,1.6522,1.6522,1.6522,1.6522,1.6522,1.6522,1.6522,1.6522,1.6522,1.6522,1.6522,1.6522,1.6522,1.6522,1.6522,1.6522,1.6522,1.6522,1.6423,1.6008,1.5908,1.5908,1.5908,1.5908,1.5996,1.6423,1.6522,1.6522,1.6522,1.6522,1.6522,1.6522,1.6835,1.7087,1.7087,1.7564,1.8129,1.8681,1.9208,1.9007,1.772,1.7578,1.7024,1.5517,1.541,1.505,1.4264,1.3717,1.2931,1.1826,1.1531,1.117,1.0624,1.0624,1.1233,1.2573,1.2328,1.342,1.568,1.5285,1.5349,0.5655,0.6258,0.6858,0.783,0.8427,0.8804,0.8804,0.8804,0.8804,0.8804,0.8804,0.8804,0.8804,0.8804,0.0,0.0,0.0,0.0,0.0,1.0064,1.0661,1.1116,1.0965,1.0813,1.0813,1.0557,1.0615,1.1099,1.1336,1.1659,1.2169,1.2657,1.2881,1.2881,1.2881,1.3017,1.3238,1.36,1.3909,1.4143,1.5141,1.5588,1.5632,1.6238,1.6522,1.6522,1.6522,1.6522,1.6522,1.6522,1.6522,1.6522,1.6522,1.6362,1.62,1.6436,1.6522,1.6522,1.6522,1.6522,1.6522,1.6522,1.6522,1.6522,1.6522,1.6522,1.6479,1.6238,1.6194,1.6051,1.5466,1.5276,1.5276,1.5276,1.5454,1.5632,1.5832,1.6207,1.6423,1.6238,1.6337,1.6522,1.6522,1.6999,1.7388,1.7388,1.8016,1.8631,1.8982,1.9484,1.9319,1.8112,1.7743,1.7024,1.5517,1.541,1.5167,1.4688,1.4392,1.3717,1.2687,1.2389,1.1841,1.1045,1.1052,1.1538,1.2573,1.2507,1.3479,1.5409,1.5679,1.5913]},{"header":{"parameterUnit":"m.s-1","parameterCategory":1,"la1":30.6,"la2":29.2853,"lo1":-89.7004,"lo2":-87.6739,"dx":0.0162,"dy":0.0183,"nx":112,"ny":82,"refTime":"2023-01-30T18:00:00:Z","depth":0,"parameterNumber":3,"parameterNumberName":"V-component_of_WINDS"},"data":[0.0,0.0,0.0,0.0,0.0,0.0,0.0,0.0,0.0,0.0,0.0,0.0,0.0,0.0,0.0,0.0,0.0,0.0,0.0,0.0,0.0,0.0,0.0,0.0,0.0,0.0,0.0,0.0,0.0,0.0,0.0,0.0,0.0,0.0,0.0,0.0,0.0,0.0,0.0,0.0,0.0,0.0,0.0,0.0,0.0,0.0,0.0,0.0,0.0,0.0,0.0,0.0,0.0,0.0,0.0,0.0,0.0,0.0,0.0,0.0,0.0,0.0,0.0,0.0,0.0,0.0,0.0,0.0,0.0,0.0,0.0,0.0,0.0,0.0,0.0,0.0,0.0,0.0,0.0,0.0,0.0,0.0,0.0,0.0,0.0,0.0,0.0,0.0,0.0,0.0,1.5537,1.59,1.5932,1.7453,2.1083,1.9545,1.5903,1.0096,0.0,0.0,0.0,0.0,0.0,0.0,0.0,0.0,0.0,0.0,0.0,0.0,0.0,0.0,0.0,0.0,0.0,0.0,0.0,0.0,0.0,0.0,0.0,0.0,0.0,0.0,0.0,0.0,0.0,0.0,0.0,0.0,0.0,0.0,0.0,0.0,0.0,0.0,0.0,0.0,0.0,0.0,0.0,0.0,0.0,0.0,0.0,0.0,0.0,0.0,0.0,0.0,0.0,0.0,0.0,0.0,0.0,0.0,0.0,0.0,0.0,0.0,0.0,0.0,0.0,0.0,0.0,0.0,0.0,0.0,0.0,0.0,0.0,0.0,0.0,0.0,0.0,0.0,0.0,0.0,0.0,0.0,0.0,0.0,0.0,0.0,0.0,0.0,0.0,0.0,0.0,0.0,0.0,0.0,0.0,0.0,0.0,0.0,0.0,0.0,0.0,0.0,0.0,0.0,1.3559,1.3477,1.3455,1.4506,1.715,1.5382,1.2116,0.7455,0.0,0.0,0.0,0.0,0.0,0.0,0.0,0.0,0.0,0.0,0.0,0.0,0.0,0.0,0.0,0.0,0.0,0.0,0.0,0.0,0.0,0.0,0.0,0.0,0.0,0.0,0.0,0.0,0.0,0.0,0.0,0.0,0.0,0.0,0.0,0.0,0.0,0.0,0.0,0.0,0.0,0.0,0.0,0.0,0.0,0.0,0.0,0.0,0.0,0.0,0.0,0.0,0.0,0.0,0.0,0.0,0.0,0.0,0.0,0.0,0.0,0.0,0.0,0.0,0.0,0.0,0.0,0.0,0.0,0.0,0.0,0.0,0.0,0.0,0.0,0.0,0.0,0.0,0.0,0.0,0.0,0.0,0.0,0.0,0.0,0.0,0.0,0.0,0.0,0.0,0.0,0.0,0.0,0.0,0.0,0.0,0.0,0.0,0.0,0.0,0.0,0.0,0.0,1.4828,1.245,1.086,1.0683,1.0847,1.1311,1.0664,0.8711,0.5136,-0.4416,0.0,0.0,0.0,0.0,0.0,0.0,0.0,0.0,0.0,0.0,0.0,0.0,0.0,0.0,0.0,0.0,0.0,0.0,0.0,0.0,0.0,0.0,0.0,0.0,0.0,0.0,0.0,0.0,0.0,0.0,0.0,0.0,0.0,0.0,0.0,0.0,0.0,0.0,0.0,0.0,0.0,0.0,0.0,0.0,0.0,0.0,0.0,0.0,0.0,0.0,0.0,0.0,0.0,0.0,0.0,0.0,0.0,0.0,0.0,0.0,0.0,0.0,0.0,0.0,0.0,0.0,0.0,0.0,0.0,0.0,0.0,0.0,0.0,0.0,0.0,0.0,0.0,0.0,0.0,0.0,0.0,0.0,0.0,0.0,0.0,0.0,0.0,0.0,0.0,0.0,0.0,0.0,0.0,0.0,0.0,0.0,0.0,0.0,0.0,0.0,0.0,0.0,1.2456,1.1113,0.9012,0.8548,0.8015,0.7093,0.7064,0.5956,0.3262,-0.5678,0.0,0.0,0.0,0.0,0.0,0.0,0.0,0.0,0.0,0.0,0.0,0.0,0.0,0.0,0.0,0.0,0.0,0.0,0.0,0.0,0.0,0.0,0.0,0.0,0.0,0.0,0.0,0.0,0.0,0.0,0.0,0.0,0.0,0.0,0.0,0.0,0.0,0.0,0.0,0.0,0.0,0.0,0.0,0.0,0.0,0.0,0.0,0.0,0.0,0.0,0.0,0.0,0.0,0.0,0.0,0.0,0.0,0.0,0.0,0.0,0.0,0.0,0.0,0.0,0.0,0.0,0.0,0.0,0.0,0.0,0.0,0.0,0.0,0.0,0.0,0.0,0.0,0.0,0.0,0.0,0.0,0.0,0.0,0.0,0.0,0.0,0.0,0.0,0.0,0.0,0.0,0.0,0.0,0.0,0.0,0.0,0.0,0.0,0.0,0.0,0.0,0.0,1.0782,0.8997,0.8802,0.7805,0.7081,0.7013,0.5952,0.4329,0.2067,-0.4305,0.0,0.0,0.0,0.0,0.0,0.0,0.0,0.0,0.0,0.0,0.0,0.0,0.0,0.0,0.0,0.0,0.0,0.0,0.0,0.0,0.0,0.0,0.0,0.0,0.0,0.0,0.0,0.0,0.0,0.0,0.0,0.0,0.0,0.0,0.0,0.0,0.0,0.0,0.0,0.0,0.0,0.0,0.0,0.0,0.0,0.0,0.0,0.0,0.0,0.0,0.0,0.0,0.0,0.0,0.0,0.0,0.0,0.0,0.0,0.0,0.0,0.0,0.0,0.0,0.0,0.0,0.0,0.0,0.0,0.0,0.0,0.0,0.0,0.0,0.0,0.0,0.0,0.0,0.0,0.0,0.0,0.0,0.0,0.0,0.0,0.0,0.0,0.0,0.0,0.0,0.0,0.0,0.0,0.0,0.0,0.0,0.0,0.0,0.0,0.0,0.0,0.0,0.9121,0.6977,0.5175,0.5541,0.5945,0.5953,0.5434,0.4469,0.2941,0.0,0.0,0.0,0.0,0.0,0.0,0.0,0.0,0.0,0.0,0.0,0.0,0.0,0.0,0.0,0.0,0.0,0.0,0.0,0.0,0.0,0.0,0.0,0.0,0.0,0.0,0.0,0.0,0.0,0.0,0.0,0.0,0.0,0.0,0.0,0.0,0.0,0.0,0.0,0.0,0.0,0.0,0.0,0.0,0.0,0.0,0.0,0.0,0.0,0.0,0.0,0.0,0.0,0.0,0.0,0.0,0.0,0.0,0.0,0.0,0.0,0.0,0.0,0.0,0.0,0.0,0.0,0.0,0.0,0.0,0.0,0.0,0.0,0.0,0.0,0.0,0.0,0.0,0.0,0.0,0.0,0.0,0.0,0.0,0.0,0.0,0.0,0.0,0.0,0.0,0.0,0.0,0.0,0.0,0.0,0.0,0.0,0.0,0.0,0.0,0.0,0.0,0.934,0.7914,0.6277,0.3783,0.3908,0.4197,0.4198,0.444,0.444,0.4029,0.0,0.0,0.0,0.0,0.0,0.0,0.0,0.0,0.0,0.0,0.0,0.0,0.0,0.0,0.0,0.0,0.0,0.0,0.0,0.0,0.0,0.0,0.0,0.0,0.0,0.0,0.0,0.0,0.0,0.0,0.0,0.0,0.0,0.0,0.0,0.0,0.0,0.0,0.0,0.0,0.0,0.0,0.0,0.0,0.0,0.0,0.0,0.0,0.0,0.0,0.0,0.0,0.0,0.0,0.0,0.0,0.0,0.0,0.0,0.0,0.0,0.0,0.0,0.0,0.0,0.0,0.0,0.0,0.0,0.0,0.0,0.0,0.0,0.0,0.0,0.0,0.0,0.0,0.0,0.0,0.0,0.0,0.0,0.0,0.0,0.0,0.0,0.0,0.0,0.0,0.0,0.0,0.0,0.0,0.0,0.0,0.0,0.0,0.0,0.0,0.0,0.0,0.704,0.7225,0.7072,0.5438,0.3205,0.1832,0.1812,0.2861,0.3945,0.0,0.0,0.0,0.0,0.0,0.0,0.0,0.0,0.0,0.0,0.0,0.0,0.0,0.0,0.0,0.0,0.0,0.0,0.0,0.0,0.0,0.0,0.0,0.0,0.0,0.0,0.0,0.0,0.0,0.0,0.0,0.0,0.0,0.0,0.0,0.0,0.0,0.0,0.0,0.0,0.0,0.0,0.0,0.0,0.0,0.0,0.0,0.0,0.0,0.0,0.0,0.0,0.0,0.0,0.0,0.0,0.0,0.0,0.0,0.0,0.0,0.0,0.0,0.0,0.0,0.0,0.0,0.0,0.0,0.0,0.0,0.0,0.0,0.0,0.0,0.0,0.0,0.0,0.0,0.0,0.0,0.0,0.0,0.0,0.0,0.0,0.0,0.0,0.0,0.0,0.0,0.0,0.0,0.0,0.0,0.0,0.0,0.0,0.0,0.0,0.0,0.0,0.0,0.7049,0.6169,0.5402,0.4164,0.4092,0.3819,0.3054,0.4001,0.373,0.1639,0.0,0.0,0.0,0.0,0.0,0.0,0.0,0.0,0.0,0.0,0.0,0.0,0.0,0.0,0.0,0.0,0.0,0.0,0.0,0.0,0.0,0.0,0.0,0.0,0.0,0.0,0.0,0.0,0.0,0.0,0.0,0.0,0.0,0.0,0.0,0.0,0.0,0.0,0.0,0.0,0.0,0.0,0.0,0.0,0.0,0.0,0.0,0.0,0.0,0.0,0.0,0.0,0.0,0.0,0.0,0.0,0.0,0.0,0.0,0.0,0.0,0.0,0.0,0.0,0.0,0.0,0.0,0.0,0.0,0.0,0.0,0.0,0.0,0.0,0.0,0.0,0.0,0.0,0.0,0.0,0.0,0.0,0.0,0.0,0.0,0.0,0.0,0.0,0.0,0.0,0.0,0.0,0.0,0.0,0.0,0.0,0.0,0.0,0.0,0.0,0.0,0.0,0.7443,0.6285,0.5449,0.481,0.5309,0.544,0.4784,0.532,0.4066,0.0243,0.0,0.0,0.0,0.0,0.0,0.0,0.0,0.0,0.0,0.0,0.0,0.0,0.0,0.0,0.0,0.0,0.0,0.0,0.0,0.0,0.0,0.0,0.0,0.0,0.0,0.0,0.0,0.0,0.0,0.0,0.0,0.0,0.0,0.0,0.0,0.0,0.0,0.0,0.0,0.0,0.0,0.0,0.0,0.0,0.0,0.0,0.0,0.0,0.0,0.0,0.0,0.0,0.0,0.0,0.0,0.0,0.0,0.0,0.0,0.0,0.0,0.0,0.0,0.0,0.0,0.0,0.0,0.0,0.0,0.0,0.0,0.0,0.0,0.0,0.0,0.0,0.0,0.0,0.0,0.0,0.0,0.0,0.0,0.0,0.0,0.0,0.0,0.0,0.0,0.0,0.0,0.0,0.0,0.0,0.0,0.0,0.0,0.0,0.0,0.0,0.0,0.0,0.818,0.7302,0.6756,0.6624,0.6728,0.6855,0.6935,0.68,0.4792,0.0282,0.0,0.0,0.0,0.0,0.0,0.0,0.0,0.0,0.0,0.0,0.0,0.0,0.0,0.0,0.0,0.0,0.0,0.0,0.0,0.0,0.0,0.0,0.0,0.0,0.0,0.0,0.0,0.0,0.0,0.0,0.0,0.0,0.0,0.0,0.0,0.0,0.0,0.0,0.0,0.0,0.0,0.0,0.0,0.0,0.0,0.0,0.0,0.0,0.0,0.0,0.0,0.0,0.0,0.0,0.0,0.0,0.0,0.0,0.0,0.0,0.8873,0.8453,0.0,0.0,0.0,0.0,0.0,0.0,0.0,0.0,0.0,0.0,0.0,0.0,0.0,0.0,0.0,0.0,0.0,0.0,0.0,0.0,0.0,0.0,0.0,0.0,0.0,0.0,0.0,0.0,0.0,0.0,0.0,0.0,0.0,0.0,0.0,0.0,0.0,0.0,0.0,0.0,0.9034,0.8528,0.7943,0.6725,0.7684,0.8708,0.9439,0.8351,0.5447,0.0317,0.0,0.0,0.0,0.0,0.0,0.0,0.0,0.0,0.0,0.0,0.0,0.0,0.0,0.0,0.0,0.0,0.0,0.0,0.0,0.0,0.0,0.0,0.0,0.0,0.0,0.0,0.0,0.0,0.0,0.0,0.0,0.0,0.0,0.0,0.0,0.0,0.0,0.0,0.0,0.0,0.0,0.0,0.0,0.0,0.0,0.0,0.0,0.0,0.0,0.0,0.0,0.0,0.0,0.0,0.0,0.0,0.0,0.0,0.0,0.0,0.9356,0.8155,0.0,0.0,0.0,0.0,0.0,0.0,0.0,0.0,0.0,0.0,0.0,0.0,0.0,0.0,0.0,0.0,0.0,0.0,0.0,0.0,0.0,0.0,0.0,0.0,0.0,0.0,0.0,0.0,0.0,0.0,0.0,0.0,0.0,0.0,0.0,0.0,0.0,0.0,0.0,0.0,0.9867,0.9473,0.9125,0.819,0.8984,0.9594,0.9624,0.7265,0.4137,0.0243,0.0,0.0,0.0,0.0,0.0,0.0,0.0,0.0,0.0,0.0,0.0,0.0,0.0,0.0,0.0,0.0,0.0,0.0,0.0,0.0,0.0,0.0,0.0,0.0,0.0,0.0,0.0,0.0,0.0,0.0,0.0,0.0,0.0,0.0,0.0,0.0,0.0,0.0,0.0,0.0,0.0,0.0,0.0,0.0,0.0,0.0,0.0,0.0,0.0,0.0,0.0,0.0,0.0,0.0,0.7987,0.8069,0.9578,1.1797,1.2428,1.1765,1.0894,0.9362,0.7611,0.9,0.0,0.0,0.0,0.0,0.0,0.0,0.0,0.0,0.0,0.0,0.0,0.0,0.0,0.0,0.0,0.0,0.0,0.0,0.0,0.0,0.0,0.0,0.7822,0.6837,0.5834,0.4854,0.3966,0.0,0.0,0.0,0.0,0.0,0.0,0.0,0.0,0.0,0.0,0.0,1.0489,1.0106,0.9989,0.9726,0.9814,0.9433,0.8326,0.5144,0.2285,0.014,0.0,-0.0966,0.0,0.0,0.0,0.0,0.0,0.0,0.0,0.0,0.0,0.0,0.0,0.0,0.0,0.0,0.0,0.0,0.0,0.0,0.0,0.0,0.0,0.0,0.0,0.0,0.0,0.0,0.0,0.0,0.0,0.0,0.0,0.0,1.9164,2.0173,0.0,0.0,0.0,0.0,0.0,0.0,0.0,0.0,0.0,0.0,0.0,0.0,0.0,1.0193,0.9915,0.8442,0.7804,0.798,0.6386,0.6457,0.806,0.965,1.0903,1.1841,1.2604,0.0,1.0957,0.8982,0.0,0.0,0.0,0.0,0.0,0.0,0.0,0.0,0.0,0.0,0.0,0.0,0.0,0.0,0.0,0.0,0.0,0.0,0.0,0.0,0.0,0.0,0.8393,0.6954,0.5831,0.5054,0.4933,0.5001,0.5098,0.5107,0.5078,0.5136,0.0,0.0,0.0,0.0,0.0,0.0,1.0487,1.0097,0.9994,0.9737,0.8821,0.7506,0.5741,0.3406,0.1447,0.0086,0.0,-0.0606,-0.1968,-0.115,0.0,0.0,0.0,0.0,0.0,0.0,0.0,0.0,0.0,0.0,0.0,0.0,0.0,0.0,0.0,0.0,0.0,0.0,0.0,0.0,0.0,0.0,0.0,0.0,0.0,0.0,0.0,0.0,0.0,1.6994,1.5312,1.5284,1.4764,1.5535,0.0,0.0,0.0,0.0,0.0,0.0,0.0,0.0,0.0,0.8836,0.9501,0.9906,0.9905,0.8439,0.7713,0.7694,0.6065,0.6144,0.7745,0.9231,1.0929,1.2735,1.3207,1.2173,1.0079,0.8936,0.9142,1.0429,0.0,0.0,0.0,0.0,1.3445,1.2093,1.1773,1.0884,0.9818,0.9468,0.0,0.0,0.0,0.0,0.0,0.0,0.0,0.8809,0.8431,0.798,0.7445,0.677,0.6256,0.5952,0.5935,0.5938,0.5955,0.5944,0.5989,0.6288,0.71,0.7606,0.0,0.0,0.0,1.1478,0.9663,0.9416,0.9382,0.9257,0.8436,0.6899,0.441,0.2722,0.1581,0.1036,0.0377,-0.0244,-0.0775,-0.094,-0.0942,0.0,0.0,0.0,0.0,0.0,0.0,0.0,0.0,0.0,0.0,0.0,0.0,0.0,0.0,0.0,0.0,0.0,0.0,0.0,0.0,0.0,0.0,0.0,0.0,0.0,0.0,0.0,0.0,1.5572,1.4101,1.2963,1.3134,1.4804,0.0,0.0,0.0,0.0,0.0,0.0,1.1097,0.9203,0.8525,0.9275,1.0013,1.0721,1.1407,1.0331,0.9551,0.9082,0.6941,0.6555,0.7754,0.9578,1.0972,1.2006,1.2174,1.0981,0.8909,0.8895,0.898,0.9387,1.2267,1.3613,1.3956,1.395,1.2371,1.0256,1.023,1.0025,0.9738,0.9705,0.9789,0.9914,1.0023,0.0,0.0,0.0,0.0,0.8542,0.8134,0.755,0.7085,0.7196,0.7286,0.7271,0.699,0.724,0.7441,0.722,0.7185,0.763,0.8974,0.9971,0.0,1.3142,1.1601,0.993,0.9021,0.8746,0.8649,0.8639,0.7764,0.6191,0.3705,0.2729,0.2103,0.1825,0.0955,0.0312,0.0022,-0.0873,-0.1066,-0.0464,0.0,0.0,0.0,0.0,0.0,0.0,0.0,0.0,0.0,0.0,0.0,0.0,0.0,0.0,0.0,0.0,0.0,0.0,0.0,0.0,0.0,0.0,0.0,0.0,0.0,0.0,0.0,0.0,0.0,1.5743,1.6725,0.0,0.0,0.0,0.0,1.3735,1.079,0.9102,0.9044,0.8926,1.0159,1.3042,1.2197,1.2947,1.5485,1.5427,1.4566,1.2891,0.9305,0.7633,0.7776,1.0489,1.0399,0.8221,0.885,0.9035,0.8895,0.8908,0.9191,0.9706,1.0158,1.0404,1.0557,1.0547,1.0357,1.01,1.0032,0.9958,0.9865,0.9749,0.9787,0.9896,0.991,0.9813,0.0,0.0,0.8636,0.802,0.8297,0.8339,0.8414,0.8786,0.9134,0.9076,0.8058,0.8931,0.9699,0.8937,0.8779,0.9058,0.9897,0.0,1.4043,1.0971,1.0275,0.9808,0.9002,0.8343,0.7944,0.7938,0.6325,0.478,0.3595,0.3454,0.295,0.1869,0.1736,0.1201,0.0044,-0.0067,-0.0611,-0.1684,-0.2375,0.0,0.0,0.0,0.0,0.0,0.0,0.0,0.0,0.0,0.0,0.0,0.0,0.0,0.0,0.0,0.0,0.0,0.0,0.0,0.0,0.0,0.0,0.0,0.0,0.0,0.0,0.0,0.0,1.6072,1.6227,0.0,1.507,1.4963,1.4727,1.4159,1.3122,1.2496,1.2501,1.2495,1.3952,1.7101,1.6838,1.7082,1.8029,1.7405,1.5773,1.3213,1.3884,1.3152,1.1206,1.0785,1.0015,0.9182,1.1494,1.1317,0.9425,0.952,0.9709,0.9972,1.0157,1.0238,1.0248,1.0234,1.0215,1.0152,1.0085,1.0016,0.994,0.9857,0.9901,0.9941,0.9868,0.981,0.9735,0.9601,0.9189,0.8784,0.8677,0.8873,0.9146,0.9337,0.9643,0.9785,0.9399,0.9803,1.0135,0.9855,0.9802,0.9886,1.0183,1.1286,1.1673,1.0367,0.968,0.9062,0.8343,0.7557,0.6814,0.6169,0.4885,0.3912,0.3541,0.3494,0.3331,0.2913,0.221,0.161,0.1178,0.0403,-0.0206,-0.064,-0.0844,-0.2093,0.0,0.0,0.0,0.0,0.0,0.0,0.0,0.0,0.0,0.0,0.0,0.0,0.0,0.0,0.0,0.0,0.0,0.0,0.0,0.0,0.0,0.0,0.0,0.0,0.0,2.1336,1.9717,1.6805,1.6453,1.6192,1.5462,1.5397,1.5582,1.6087,1.6123,1.6122,1.6127,1.6336,1.7423,1.9571,1.9644,1.9652,1.9648,1.875,1.7093,1.4784,1.6818,1.6222,1.3173,1.0693,1.0073,1.1021,1.2327,1.2297,1.1242,1.0236,0.9945,1.0113,1.0201,1.0219,1.0209,1.0195,1.0195,1.0188,1.0102,1.0025,0.9963,0.9908,0.9933,0.9955,0.9838,0.9813,0.9819,0.9702,0.9519,0.9332,0.9123,0.9242,0.9471,0.9637,0.9829,1.0015,1.0082,1.0166,1.0251,1.0287,1.0291,1.0289,1.0233,1.0238,1.0112,0.9757,0.9045,0.8398,0.7953,0.7138,0.6216,0.5198,0.4454,0.3886,0.3521,0.3501,0.3336,0.2954,0.1847,0.1196,0.1196,0.0434,0.0,0.0,0.0,-0.1727,-0.5228,0.0,0.0,0.0,0.0,0.0,0.0,0.0,0.0,0.0,0.0,0.0,0.0,0.0,0.0,0.0,0.0,0.0,0.0,0.0,0.0,0.0,0.0,0.0,1.9917,2.1268,2.1109,1.8329,1.799,1.8385,1.9356,1.9447,1.9462,1.9481,1.9383,1.9325,1.9326,1.9962,2.0312,2.0321,2.0312,2.0315,2.0307,1.967,1.8786,1.7731,1.772,1.6236,1.3422,1.0361,1.0568,1.3193,1.0784,1.151,1.4109,1.1018,0.9881,1.0084,1.0099,1.013,1.0206,1.0206,1.0196,1.0183,1.0059,0.9971,0.9899,0.9899,0.9899,0.9881,0.9825,0.985,0.9863,0.9658,0.9566,0.9529,0.96,0.9457,0.9406,0.9717,0.9794,0.9855,1.0054,1.0094,1.0141,1.0273,1.0282,1.0248,1.0127,1.0086,0.9812,0.9019,0.8307,0.0,0.7856,0.7087,0.6183,0.5198,0.5137,0.4717,0.3636,0.3549,0.3075,0.193,0.0749,0.0087,0.0066,0.0053,0.0015,-0.006,-0.0023,-0.168,-0.5098,0.0,0.0,0.0,0.0,0.0,0.0,0.0,0.0,0.0,0.0,0.0,0.0,0.0,0.0,0.0,0.0,0.0,0.0,0.0,0.0,0.0,2.0312,2.1021,2.1578,2.0165,1.9879,2.2161,2.2423,2.2556,2.283,2.2836,2.3063,2.361,2.1403,2.0037,2.0028,2.0205,2.037,2.0516,2.0516,2.0519,2.0515,2.0326,1.883,1.6057,1.5963,1.5915,1.5817,1.2366,1.1185,1.1837,1.1158,1.0915,1.0991,1.074,1.0345,0.99,1.0031,1.0144,1.0202,1.0201,1.0191,1.0197,1.0106,1.0061,1.0039,0.9977,0.9962,0.9971,0.9887,0.9875,0.9899,0.984,0.9808,0.9791,0.9751,0.9739,0.9747,0.9783,0.9835,0.9887,0.9948,1.0021,1.0113,1.0149,1.0148,1.0136,1.0108,0.9944,0.96,0.9001,0.7795,0.6955,0.6956,0.6113,0.541,0.5125,0.5738,0.5778,0.4745,0.4651,0.4195,0.3096,0.273,0.2172,0.1328,0.1296,0.0481,-0.1271,-0.0442,-0.1682,0.0,0.0,0.0,0.0,0.0,0.0,0.0,0.0,0.0,0.0,0.0,0.0,0.0,0.0,0.0,0.0,0.0,0.0,0.0,0.0,0.0,0.0,1.9306,1.9876,2.3108,2.1778,2.1399,2.3896,2.4197,2.432,2.4633,2.4658,2.4837,2.5262,2.3601,2.194,2.0497,2.0341,2.0345,2.0464,2.0466,2.0508,2.0594,2.0604,1.957,1.7555,1.6012,1.5731,1.6481,1.3922,1.2591,1.2263,1.1509,1.0895,1.0449,1.0453,1.0209,0.9818,0.0,0.0,0.0,0.0,1.016,1.0157,1.0106,1.0094,1.009,1.0042,1.0029,1.0024,1.0001,0.9987,0.9986,0.9987,0.9993,1.0003,0.9936,0.9898,0.9865,0.9852,0.9823,0.9813,0.9814,0.9925,0.9987,0.9863,0.9807,0.0,0.9425,0.9366,0.9175,0.8559,0.7418,0.6724,0.7103,0.6315,0.5729,0.574,0.5885,0.5731,0.5155,0.5104,0.0,0.0,0.0,0.3107,0.2219,0.1935,0.0,0.0,0.0,-0.1487,-0.2977,-0.4399,0.0,0.0,-0.4718,-0.4469,0.0,0.0,0.0,0.0,0.0,0.0,0.0,0.0,0.0,0.0,0.0,0.0,0.0,0.0,0.0,0.0,1.8418,1.7551,2.4377,2.4793,2.4353,2.4336,2.4317,2.46,2.5287,2.5351,2.5343,2.5357,2.5561,2.4388,2.134,2.0976,0.0,0.0,0.0,2.0383,2.0566,2.0583,2.0603,2.0566,1.7456,1.599,1.5977,1.498,1.4258,1.3703,1.1835,1.1198,1.1398,1.0321,0.9905,0.9955,0.9979,1.0001,1.0011,1.0078,1.0094,1.0094,1.0094,0.0,0.0,1.0098,1.0098,1.0106,1.0106,1.0103,1.0105,1.0118,1.0143,1.0156,1.0082,0.9935,0.9814,0.9859,0.9781,0.9696,0.9694,0.9774,0.9769,0.952,0.9364,0.9071,0.8493,0.8616,0.8583,0.7993,0.72,0.6923,0.7662,0.7075,0.6587,0.6528,0.5731,0.0,0.5025,0.501,0.4546,0.3488,0.3389,0.3171,0.274,0.2215,0.1388,0.022,-0.0977,-0.1147,-0.0205,-0.3498,-0.5097,-0.5023,-0.1998,-0.0569,0.0,0.0,0.0,0.0,0.0,0.0,0.0,0.0,0.0,0.0,0.0,0.0,0.0,0.0,0.0,2.4689,2.1589,2.0684,2.4999,2.5503,2.5333,2.5119,2.5082,2.523,2.5584,2.5622,2.562,2.5616,2.5668,2.5419,2.474,2.4478,2.4339,2.4339,2.1714,2.0324,2.0352,2.0525,2.0603,2.0586,1.9929,0.0,1.5437,1.4906,1.456,1.4228,1.2144,1.1277,1.1315,1.1095,1.0926,1.079,1.0223,1.0024,1.0082,1.009,1.0094,1.0094,1.0094,1.0143,1.017,1.0129,1.0105,1.0099,1.0099,1.0105,0.0,1.017,1.011,1.0016,0.996,0.987,0.9794,0.9753,0.9709,0.9709,0.9707,0.9543,0.9397,0.9349,0.9142,0.885,0.847,0.8223,0.8044,0.7908,0.7431,0.7026,0.6881,0.6705,0.6455,0.6075,0.5863,0.5401,0.4529,0.4449,0.4004,0.2912,0.2704,0.2687,0.2864,0.2751,0.2309,0.1464,0.0261,-0.071,-0.1465,-0.3902,-0.5105,-0.5085,-0.4417,-0.4111,0.0,0.0,0.0,0.0,0.0,0.0,0.0,0.0,0.0,0.0,0.0,2.4304,2.4666,0.0,2.5298,2.531,2.5321,2.5449,2.5666,2.5696,2.5654,2.5524,2.5493,2.5549,2.5683,2.5695,2.5707,2.5696,2.5697,2.5703,2.5705,2.557,2.5434,2.5301,2.3813,2.3001,2.3003,2.1405,2.0141,1.9236,1.8092,1.6916,1.5727,1.4938,1.456,1.4452,1.3364,1.289,1.2863,1.2392,1.1551,1.0589,1.1062,1.0775,1.0094,1.0094,1.0094,1.0096,1.0135,1.0559,1.1016,1.0862,1.0802,1.0806,1.0806,1.0492,1.0155,1.0145,1.0098,1.0029,0.9892,0.9779,0.9709,0.9698,0.95,0.9377,0.9637,0.9377,0.9045,0.8887,0.8857,0.8712,0.8325,0.839,0.8278,0.7651,0.7351,0.7053,0.6645,0.66,0.6409,0.594,0.5654,0.5169,0.4369,0.3862,0.3371,0.2826,0.2634,0.2751,0.3178,0.295,0.2751,0.265,0.1213,0.0,-0.09,-0.201,-0.2543,-0.255,-0.2548,-0.2543,0.0,0.0,0.0,0.0,0.0,0.0,0.0,2.3453,2.4241,2.4371,2.4414,2.4794,2.6067,2.6287,2.6295,2.629,2.8589,2.9508,2.6958,2.6043,2.5609,2.5615,2.5667,2.5697,2.5705,2.5707,2.5696,2.5703,2.5703,2.5702,2.5709,2.5707,2.5603,2.5372,2.5595,2.5664,2.5619,2.2232,1.9745,1.8135,1.5676,1.4976,1.5844,1.4916,1.4499,1.4495,1.4493,1.4548,1.4543,1.3434,1.2186,1.1046,1.1757,1.1379,1.0437,1.0379,1.0254,1.0114,1.0177,1.0809,1.1593,1.1711,1.1821,1.1832,1.1384,1.0995,1.0625,1.0219,1.0194,1.024,0.9894,0.9717,0.9642,0.969,0.9367,0.9149,0.9473,0.9435,0.9154,0.86,0.8878,0.8998,0.8458,0.8849,0.8818,0.7517,0.7363,0.723,0.6783,0.6651,0.6423,0.5942,0.5516,0.4997,0.4352,0.3407,0.2916,0.3014,0.2864,0.3014,0.3563,0.3163,0.312,0.35,0.2035,0.0919,0.0173,0.018,0.0169,0.0176,-0.0192,-0.0224,2.3621,2.201,2.0264,2.2833,2.1646,2.057,0.0,2.4099,2.4395,2.5041,2.5171,2.6131,2.9245,2.9825,2.983,2.983,3.0151,3.0288,2.9923,2.7258,2.5342,2.5333,2.5564,2.5702,2.5703,2.5703,2.5703,2.5703,2.5703,2.5703,2.5703,2.5703,2.5683,2.5654,2.5673,2.5598,2.536,2.2004,1.9927,1.9124,1.5988,1.4568,1.47,1.4563,1.4508,1.4508,1.4489,1.4747,1.4989,1.3213,1.3242,1.4173,1.1431,1.0912,1.1666,1.1369,1.0757,1.0117,1.0183,1.0286,1.0634,1.216,1.3025,1.3066,1.0974,1.1368,1.2175,1.0543,1.0565,1.0885,1.0018,0.9746,0.969,0.9708,0.9661,0.9487,0.9069,0.9972,1.0465,0.9106,0.979,1.029,0.941,0.9512,0.9278,0.8005,0.7971,0.7858,0.7217,0.6815,0.6413,0.5943,0.5841,0.5392,0.4389,0.334,0.2934,0.3393,0.3205,0.3305,0.382,0.38,0.3682,0.3499,0.2965,0.2054,0.0799,0.0794,0.0796,0.0757,-0.0853,-0.1019,2.4312,2.3379,2.255,2.4206,2.5181,2.5863,2.6264,2.5949,2.5422,2.4789,2.5403,2.6778,2.9162,2.9585,2.9747,3.0314,3.04,2.9704,2.7714,2.6203,2.5302,2.5307,2.5473,2.5586,2.559,2.5651,2.569,2.569,2.569,2.569,2.569,2.569,2.5632,2.5479,2.5467,2.4289,2.1835,2.0411,1.9566,1.9273,1.7931,1.6388,1.4763,1.5227,1.5086,1.4629,1.6885,1.6873,1.5142,1.4354,1.4453,1.4973,1.3646,1.2815,1.2319,1.1867,1.1021,1.0212,1.0971,1.2121,1.3183,1.2948,1.3687,1.4504,1.351,1.27,1.2014,1.1565,1.1598,1.165,1.1104,1.0689,1.0518,1.1001,1.0141,0.9176,0.8951,1.0762,1.2262,1.1637,1.0851,1.0192,0.9907,1.0149,1.0084,0.9187,0.8899,0.8688,0.8404,0.7771,0.6979,0.6007,0.5337,0.4796,0.4325,0.361,0.3267,0.3479,0.3567,0.3905,0.4524,0.4153,0.4089,0.437,0.3399,0.2524,0.1777,0.154,0.1432,0.1402,0.0643,0.0576,2.3885,2.4778,2.611,2.6366,2.8408,2.9985,2.8379,2.7218,2.6139,2.4898,2.5325,2.6374,2.7808,2.8071,2.8502,2.9795,3.0014,2.8841,2.5466,2.5007,2.5,2.4994,2.4767,2.4793,2.5267,2.5544,2.5706,2.5706,2.5628,2.5589,2.5589,2.559,2.5503,2.5307,2.5098,2.3595,2.0682,1.9748,1.9303,1.9295,1.9288,1.8185,1.609,1.5799,1.5717,1.5988,1.8992,1.8354,1.5202,1.5204,1.5204,1.5193,1.5259,1.4525,1.3409,1.3017,1.1682,1.0238,1.1202,1.3221,1.5195,1.3974,1.4397,1.533,1.5338,1.4027,1.2536,1.256,1.2523,1.241,1.2089,1.1606,1.1433,1.2262,1.1273,1.0142,1.0137,1.1861,1.3404,1.34,1.2021,1.075,1.0454,1.0841,1.1017,1.0507,1.0118,0.9736,0.9239,0.8332,0.7372,0.6397,0.5272,0.4609,0.4609,0.4005,0.3725,0.3897,0.4134,0.4578,0.5256,0.4696,0.4607,0.5097,0.3715,0.2907,0.2705,0.2217,0.199,0.2044,0.2099,0.2126,0.0,0.0,3.0608,3.0319,3.0316,3.0034,2.8612,2.721,2.6117,2.5826,2.4968,2.4563,2.5532,2.5698,2.6438,2.8678,2.9045,2.7915,2.4684,2.4229,2.4231,2.4228,2.315,2.3046,2.4648,2.5359,2.5688,2.5688,2.5457,2.5313,2.5313,2.5305,2.5302,2.5302,2.4601,2.417,2.4057,2.0905,1.9303,1.9301,1.9302,1.9239,1.9058,1.5971,1.6224,1.9209,1.9963,1.8365,1.5196,1.5204,1.5202,1.519,1.5202,1.5258,1.5314,1.5295,1.3092,1.013,1.0292,1.2578,1.539,1.5342,1.5277,1.5212,1.5213,1.5053,1.4622,1.3339,1.3074,1.3065,1.2593,1.227,1.2279,1.3152,1.3315,1.3249,1.3257,1.3346,1.3398,1.3398,1.3329,1.2778,1.1167,1.1594,1.2056,1.1788,1.1745,1.1093,0.932,0.8069,0.7304,0.727,0.6121,0.5374,0.5374,0.4519,0.4264,0.4914,0.4958,0.5281,0.5957,0.5566,0.5365,0.539,0.4008,0.3351,0.3459,0.2734,0.2491,0.2681,0.2871,0.2967,0.0,0.0,2.9396,3.0366,3.0567,3.0399,2.9873,2.8708,2.7541,2.6927,2.5838,2.488,2.4472,2.4668,2.5357,2.6783,2.6343,2.5443,2.4364,2.3468,2.3262,2.4096,2.3822,2.3787,2.4351,2.503,2.5425,2.5425,2.4905,2.4569,2.4569,2.4574,2.4573,2.4569,2.4316,2.4199,2.4204,2.0937,1.9294,1.9299,1.9289,1.9309,1.9276,1.8646,1.8941,1.9983,2.0212,1.9646,1.8421,1.6133,1.5201,1.5215,1.53,1.5363,1.5394,1.5394,1.4642,1.3613,1.3672,1.4434,1.541,1.5405,1.5312,1.5199,1.5196,1.508,1.4801,1.412,1.3904,1.3762,1.3333,1.3162,1.3164,1.3346,1.3403,1.3391,1.3393,1.3394,1.3394,1.3394,1.3408,1.3257,1.2772,1.2753,1.2727,1.2486,1.1903,1.1052,0.9849,0.8828,0.7993,0.7371,0.6401,0.5808,0.5808,0.555,0.5498,0.5716,0.59,0.6231,0.672,0.6168,0.5851,0.5851,0.4729,0.4068,0.3833,0.3361,0.3164,0.3245,0.3293,0.333,0.0,3.0547,2.9556,3.0953,3.095,3.0506,3.0128,2.9015,2.7762,2.6643,2.5649,2.4606,2.3379,2.3436,2.3879,2.4572,2.4474,2.4506,2.5012,2.3483,2.2584,2.3437,2.3904,2.4194,2.419,2.4631,2.4912,2.4907,2.4482,2.4188,2.4188,2.4188,2.4197,2.419,2.4332,2.4349,2.4206,2.211,2.1056,2.1047,2.0092,2.0281,2.1422,2.0645,2.0294,2.0298,2.031,2.0294,2.0142,1.8019,1.6405,1.5273,1.5373,1.5407,1.5541,1.6791,1.7264,1.707,1.582,1.5391,1.541,1.5377,1.5685,1.6087,1.5977,1.5972,1.5922,1.5512,1.5179,1.4866,1.4514,1.4281,1.4143,1.4175,1.4086,1.3997,1.3951,1.3935,1.3987,1.4141,1.4186,1.4174,1.4143,1.369,1.3166,1.2704,1.2149,1.1432,1.0445,0.9495,0.8642,0.7922,0.6965,0.6384,0.6384,0.6317,0.6313,0.6455,0.6622,0.691,0.7314,0.6759,0.6455,0.6455,0.5365,0.4712,0.4488,0.3988,0.3859,0.4033,0.4125,0.4278,3.2467,3.2185,3.1191,3.2151,3.1441,3.029,2.94,2.8133,2.6722,2.5116,2.4402,2.3649,2.2211,2.2038,2.2159,2.234,2.3554,2.5008,2.6494,2.4346,2.2594,2.2411,2.3458,2.4271,2.4419,2.4458,2.4386,2.4207,2.4208,2.4208,2.419,2.4208,2.4208,2.4227,2.4595,2.4601,2.4238,2.4247,2.4252,2.4226,2.1733,2.222,2.5186,2.2018,2.046,2.0296,2.0308,2.0305,2.0332,2.0527,1.8651,1.567,1.567,1.5679,1.6074,1.9375,2.0605,2.0117,1.6738,1.5547,1.5506,1.5453,1.6457,1.7644,1.7485,1.769,1.7882,1.7333,1.6748,1.6236,1.5974,1.5505,1.5218,1.5519,1.5362,1.5114,1.4994,1.4967,1.5107,1.5525,1.5583,1.5479,1.5192,1.4402,1.3505,1.253,1.2573,1.2251,1.1066,1.0021,0.9247,0.8905,0.7869,0.7196,0.7198,0.6811,0.6721,0.7139,0.7168,0.7334,0.7695,0.7344,0.7148,0.7118,0.5883,0.5317,0.5411,0.4646,0.4533,0.5041,0.5297,0.5667,3.2304,3.2343,3.1913,3.2053,3.0895,2.9583,2.9158,2.7172,2.5276,2.4692,2.3409,2.2154,2.1331,2.1644,2.2288,2.301,2.3905,2.5005,2.6426,2.7023,2.6386,2.3998,2.4001,2.5157,2.7548,2.7775,2.6786,2.4374,2.4198,2.4205,2.4208,2.4205,2.4338,2.4631,2.4662,2.4669,2.4708,2.5018,2.5118,2.5021,2.4339,2.4467,2.5277,2.4413,2.2656,2.0298,2.0305,2.0391,2.0525,2.0575,2.0085,1.9277,1.9277,1.9277,1.9375,2.0273,2.0605,2.0332,1.8547,1.7605,1.7191,1.7173,1.7273,1.7626,1.88,1.8512,1.764,1.7077,1.6613,1.6184,1.579,1.5595,1.5479,1.5576,1.5519,1.555,1.5874,1.5928,1.5894,1.5649,1.537,1.5265,1.5573,1.4749,1.395,1.3694,1.3011,1.2198,1.1255,1.0806,1.0368,0.9902,0.9101,0.8537,0.8382,0.7779,0.755,0.7984,0.8104,0.8019,0.7725,0.7879,0.7715,0.7109,0.6471,0.6044,0.5755,0.528,0.5239,0.5665,0.5748,0.5997,3.3008,3.2831,3.2199,3.2497,3.094,2.9159,2.857,2.681,2.5077,2.4148,2.3376,2.2555,2.1562,2.1882,2.2394,2.2858,2.3414,2.4476,2.6425,2.8008,2.8424,2.6805,2.6417,2.7022,2.881,2.9,2.8246,2.6457,2.4999,2.4829,2.6228,2.4982,2.4302,2.4538,2.466,2.4875,2.5157,2.5457,2.5561,2.5479,2.5477,2.5482,2.5488,2.5479,2.3582,2.0301,2.0398,2.051,2.0605,2.0596,2.0603,2.0605,2.0605,2.0605,2.0586,2.0525,2.0504,2.0424,1.9736,1.9241,1.8788,1.8041,1.7874,1.8129,1.8982,1.9148,1.885,1.7873,1.7719,1.7645,1.6789,1.6454,1.6373,1.6517,1.6437,1.6567,1.7284,1.7194,1.6807,1.6236,1.6175,1.6133,1.5857,1.5345,1.4744,1.4041,1.3448,1.2834,1.2102,1.1534,1.0955,1.0271,0.9675,0.9131,0.8622,0.8329,0.8206,0.828,0.8518,0.8507,0.8195,0.841,0.8241,0.7627,0.7227,0.682,0.6427,0.6167,0.6259,0.6691,0.6854,0.7032,3.3984,3.3547,3.2489,3.3126,3.1228,2.8924,2.7881,2.6625,2.5216,2.358,2.3675,2.3631,2.2291,2.2446,2.27,2.2596,2.2912,2.4021,2.6498,2.8007,2.9041,2.9606,2.9326,2.9101,2.9081,2.9043,2.8998,2.8986,2.6475,2.6105,2.8839,2.6468,2.482,2.4383,2.4761,2.5138,2.5506,2.5634,2.5682,2.5691,2.5691,2.5691,2.5691,2.5695,2.3992,2.1025,2.1199,2.1273,2.1276,2.1288,2.1016,2.0644,2.1093,2.1288,2.1266,2.1134,2.0775,2.0399,2.0511,2.0517,2.021,1.862,1.8544,1.9065,1.8858,1.978,2.0578,1.9272,1.9381,1.9594,1.841,1.779,1.7588,1.7878,1.7723,1.7754,1.8694,1.8481,1.7856,1.7157,1.7408,1.7262,1.5903,1.5812,1.5407,1.4051,1.3816,1.3677,1.3279,1.2406,1.1512,1.0755,1.0244,0.9629,0.8777,0.8761,0.8716,0.8574,0.8806,0.8934,0.8917,0.8878,0.8706,0.8326,0.7917,0.753,0.7178,0.7073,0.7249,0.7715,0.8058,0.8266,3.4109,3.4384,3.3988,3.3289,3.1142,2.8878,2.7641,2.5594,0.0,2.3175,2.3144,2.305,2.2515,2.3001,2.3616,2.389,2.4284,2.5154,2.6873,2.7632,2.8389,2.9395,2.9567,2.9586,2.9583,2.9243,2.9012,2.9003,2.8852,2.8816,2.8989,2.9214,2.8072,2.5365,2.5312,2.5388,2.558,2.5609,2.5644,2.57,2.57,2.57,2.57,2.5707,2.5357,2.4763,2.4793,2.4817,2.4824,2.4824,2.3142,2.0878,2.3712,2.481,2.4795,2.465,2.2792,2.0422,2.1141,2.1384,2.1185,2.0075,2.0126,2.0576,2.0442,2.0786,2.1114,2.0637,2.0394,2.0189,1.9745,1.9116,1.8636,1.8707,1.8643,1.8677,1.886,1.9227,1.9273,1.8454,1.7713,1.6754,1.5314,1.4902,1.4718,1.4553,1.3848,1.3587,1.4314,1.3888,1.339,1.3136,1.2442,1.1686,1.092,0.95,0.9002,0.9822,0.9828,0.9684,0.948,0.9348,0.905,0.8464,0.7972,0.7656,0.7589,0.7191,0.7249,0.7715,0.8058,0.8368,3.5279,3.5165,3.445,3.4409,3.1758,2.8953,2.8226,0.0,0.0,2.3851,2.3783,2.364,2.3195,2.3583,2.3922,2.375,2.4186,2.4878,2.5863,2.6769,2.7699,2.8668,2.9251,2.9608,2.96,2.945,2.9332,2.928,2.9528,2.9608,2.938,2.8339,2.702,2.5457,2.5503,2.5566,2.5601,2.5634,2.5662,2.5703,2.5703,2.5703,2.5703,2.5702,2.5702,2.5703,2.5702,2.5664,2.5599,2.5599,2.4666,2.3396,2.4904,2.5496,2.5489,2.5418,2.3958,2.2022,2.2057,2.2074,2.1971,2.1301,2.1355,2.167,2.161,2.1742,2.183,2.1301,2.1084,2.0915,2.0391,1.9862,1.9486,1.9486,1.979,1.9976,1.9534,2.0069,2.0254,1.8786,1.847,1.7909,1.6232,1.5946,1.5757,1.521,1.4771,1.4764,1.5456,1.5243,1.4707,1.379,1.3142,1.2316,1.1219,1.0522,1.0052,0.9749,1.0232,1.0295,0.9776,0.9688,0.9517,0.9239,0.8961,0.8453,0.7699,0.7469,0.7673,0.8295,0.8824,0.9189,3.6119,3.592,3.5194,3.5491,3.2582,2.9509,2.8931,2.6836,0.0,2.462,2.4559,2.4442,2.4003,2.4115,2.4096,0.0,2.3878,2.4424,2.502,2.585,2.6898,2.824,2.8839,2.9232,2.9531,2.9608,2.9608,2.9549,2.968,2.9687,2.9555,2.7198,2.5698,2.5318,2.5529,2.5652,2.5629,2.5662,2.5703,2.5703,2.5703,2.5703,2.5703,2.5703,2.5703,2.5703,2.5703,2.5638,2.5542,2.5476,2.5524,2.5585,2.5371,2.5302,2.5298,2.5304,2.4544,2.3458,2.2946,2.2742,2.2671,2.2412,2.2402,2.2482,2.2459,2.2553,2.2524,2.1954,2.1776,2.1625,2.1039,2.0567,2.0255,2.0255,2.0737,2.1036,2.0385,2.0809,2.0778,1.8964,1.9007,1.8758,1.7061,1.6842,1.6593,1.5683,1.5625,1.5882,1.6404,1.6378,1.5866,1.4679,1.383,1.283,1.1584,1.169,1.1248,0.9971,1.0616,1.0969,1.0895,1.0648,1.0331,0.9905,0.9892,0.9333,0.8182,0.8017,0.8219,0.8811,0.9714,1.0033,3.5485,3.6714,3.7386,3.5868,3.3481,3.0989,2.9218,0.0,2.4962,2.4799,2.4775,2.476,2.4712,2.4575,2.4461,0.0,0.0,2.4557,2.5568,2.5189,2.5949,2.9008,2.8539,2.8409,2.9568,2.9532,2.9494,2.968,2.9798,2.9646,2.9093,2.8172,2.6951,2.5351,2.5437,2.5572,2.5683,2.5703,2.5703,2.5703,2.5703,2.5703,2.5703,2.5703,2.5703,2.5703,2.5693,2.5683,2.5657,2.5422,2.5321,2.5323,2.5304,2.5302,2.5303,2.5293,2.4455,2.3351,2.3606,2.3556,2.3399,2.3371,2.324,2.3087,2.2975,2.3032,2.3129,2.3041,2.2642,2.2203,2.2135,2.161,2.1102,2.1102,2.1153,2.1248,2.1407,2.1241,2.0703,1.9528,1.8623,1.7713,1.655,1.5955,1.5683,1.5663,1.5711,1.6029,1.6893,1.7029,1.7092,1.73,1.5567,1.4108,1.3489,1.2796,1.2265,1.1863,1.1379,1.1977,1.3973,1.3081,1.1702,0.9949,0.9916,0.9848,0.9706,0.9032,0.8726,0.8835,1.0182,1.0496,3.5647,3.6749,3.7089,3.6406,3.3949,3.1225,2.9409,0.0,2.513,2.4956,2.493,2.4891,2.4799,2.4731,2.4666,0.0,0.0,0.0,2.4801,2.4559,2.519,2.7466,2.8446,2.9044,2.9251,2.9529,2.9826,3.0099,2.9692,2.8641,2.686,2.8442,2.8217,2.5616,2.5595,2.5654,2.5703,2.5703,2.5683,2.5636,2.5683,2.568,2.5632,2.565,2.5629,2.557,2.5574,2.5585,2.5565,2.5459,2.5367,2.5301,2.5293,2.531,2.5302,2.5304,2.4962,2.449,2.4436,2.4345,2.4241,2.3989,2.3874,2.3787,2.3637,2.3282,2.2947,2.3141,2.2773,2.2366,2.2535,2.2221,2.1854,2.1854,2.1653,2.14,2.1289,2.0878,2.0387,1.9714,1.9263,1.8714,1.781,1.7349,1.701,1.6885,1.6837,1.727,1.8454,1.854,1.8548,1.8694,1.6561,1.4883,1.4368,1.3459,1.2618,1.1964,1.2556,1.3615,1.5219,1.4859,1.3734,1.1926,1.1895,1.1895,1.1887,1.2646,1.2996,1.2982,1.1937,1.0899,3.4879,3.5949,3.6353,3.6353,3.3814,3.0929,0.0,0.0,2.5264,2.5111,2.5088,2.5053,2.4962,2.4896,2.4818,0.0,0.0,2.4495,2.4236,2.4207,2.4616,2.5766,2.8035,2.9416,2.9289,2.9747,3.0157,3.0379,2.955,2.8087,2.5971,2.7854,2.7989,2.5776,2.5707,2.5698,2.5703,2.5703,2.5681,2.562,2.5638,2.5625,2.5591,2.557,2.5547,2.5508,2.5468,2.5447,2.5444,2.5448,2.538,2.5299,2.5297,2.5178,2.4981,2.4974,2.5047,2.5107,2.4867,2.4727,2.4543,2.4075,2.3912,2.3891,2.385,2.3351,2.2807,2.2996,2.2669,2.2349,2.2588,2.2371,2.2106,2.2106,2.1735,2.1306,2.0894,2.0516,2.0193,1.9782,1.9442,1.9089,1.8672,1.8045,1.7552,1.7325,1.7799,1.8498,1.9447,1.9762,1.9811,1.9681,1.7729,1.6036,1.5026,1.4158,1.3326,1.2525,1.3663,1.4774,1.5765,1.5798,1.5222,1.3982,1.3465,1.3443,1.3952,1.5196,1.5808,1.5748,1.3874,1.1885,3.2718,3.4199,3.5512,3.5512,3.2936,3.0179,0.0,2.714,2.5303,2.5303,2.5303,2.5303,2.5303,2.5141,2.4979,2.4903,0.0,0.0,2.4236,2.4192,2.4218,2.4237,2.7063,2.9231,2.9834,3.0207,3.0398,3.0398,2.9419,2.8322,2.7245,2.6272,2.5737,2.5698,2.57,2.5703,2.5703,2.5703,2.57,2.5698,2.5562,2.5542,2.561,2.5532,2.5493,2.5489,2.5363,2.5309,2.5302,2.5299,2.529,2.5297,2.53,2.4842,2.4214,2.4214,2.4468,2.4801,2.4801,2.4535,2.41,2.3431,2.3212,2.3265,2.3431,2.3214,2.2885,2.2738,2.25,2.231,2.231,2.1974,2.1628,2.1628,2.1306,2.0862,2.0416,2.0314,2.0193,1.9782,1.8855,1.824,1.8565,1.7459,1.6519,1.6504,1.8196,1.9479,1.9519,2.0369,2.0813,2.0333,1.9314,1.7815,1.5664,1.5059,1.457,1.4119,1.4589,1.5149,1.5755,1.5808,1.5794,1.5755,1.407,1.4046,1.577,1.5785,1.5801,1.581,1.5754,1.3667,3.086,3.2154,3.3192,3.3185,3.1326,2.914,2.7717,2.6313,2.5303,2.5303,2.5303,2.5303,2.5303,2.5253,2.5203,2.5184,2.5132,0.0,2.4274,2.4204,2.4199,2.4204,2.5543,2.7017,2.8402,2.8629,2.8917,2.9467,2.8174,2.7334,2.7264,2.6236,2.5648,2.5701,2.5703,2.5702,2.5693,2.5693,2.5704,2.571,2.5459,2.5365,2.541,2.542,2.5413,2.5363,2.5158,2.5165,2.5299,2.5311,2.4996,2.4544,2.4557,2.4407,2.4209,2.4192,2.4277,2.4281,2.3386,2.3012,2.2873,2.2648,2.2583,2.2754,2.3708,2.3282,2.2496,2.2429,2.2377,2.231,2.231,2.1957,2.1582,2.1582,2.1039,2.0483,2.0348,2.0089,1.9752,1.9244,1.875,1.8393,1.8276,1.7271,1.6491,1.6518,1.8304,1.9935,2.0691,2.1086,2.1148,2.0813,2.0477,1.9469,1.7444,1.6055,1.5209,1.4992,1.544,1.5755,1.5809,1.6649,1.6705,1.5839,1.5259,1.5249,1.5797,1.5802,1.5802,1.5769,1.4583,1.3337,0.0,2.9227,3.0144,3.056,2.934,0.0,0.0,2.5868,2.5303,2.5303,2.5303,2.5303,2.5303,2.5303,2.5303,2.5303,2.5294,2.5144,2.4681,2.4609,2.4614,2.4624,2.5778,2.6841,2.7511,2.7787,2.8145,2.8656,2.7501,2.6887,2.7138,2.6154,2.5625,2.5661,2.5661,2.5657,2.562,2.5567,2.5556,2.5549,2.5389,2.5297,2.5313,2.5348,2.5339,2.5303,2.5164,2.5106,0.0,2.495,2.461,2.4192,2.4202,2.4208,2.4192,2.4192,2.3905,2.3365,2.2582,2.2314,2.2295,2.2295,2.2293,2.25,2.35,2.3117,2.2306,2.2422,2.226,2.2032,2.2032,2.1568,2.1102,2.1102,2.0583,2.0054,2.0054,1.9874,1.953,1.9006,1.862,1.8285,1.799,1.7151,1.6781,1.7577,1.8826,2.02,2.1552,2.1727,2.1549,2.1055,2.0991,2.0295,1.8549,1.7227,1.6338,1.6059,1.6313,1.6568,1.6756,1.7353,1.7548,1.7287,1.7269,1.7276,1.7261,1.6271,1.5466,1.4781,1.3726,1.3208,0.0,0.0,0.0,0.0,0.0,0.0,0.0,0.0,0.0,2.5303,2.5303,2.5303,2.5303,2.5303,2.5303,2.5303,2.5305,2.5302,2.5302,2.5513,2.5568,2.5335,2.7179,2.8044,2.6986,2.7526,2.7934,2.7907,2.7274,2.6903,2.6925,2.6073,2.5601,2.5598,2.5595,2.5554,2.5495,2.5375,2.529,2.5302,2.5294,2.5297,2.5303,2.5303,2.5303,2.5302,2.5279,2.5082,2.4727,2.4345,2.4202,2.4205,2.4192,2.4188,2.4185,2.4197,2.3379,2.2282,2.2288,2.2293,2.231,2.231,2.2283,2.24,2.2957,2.2783,2.2436,2.2565,2.213,2.1582,2.1552,2.0927,2.0314,2.0314,2.003,1.975,1.975,1.975,1.9604,1.906,1.8514,1.7988,1.7635,1.7094,1.737,1.9473,1.9839,2.0475,2.2101,2.2308,2.1991,2.1086,2.0991,2.0434,1.9066,1.8462,1.7867,1.7282,1.7209,1.7612,1.8446,1.8067,1.8428,1.9699,1.9705,1.9713,1.9682,1.7008,1.4842,1.3192,1.3181,1.3198,0.0,0.0,0.0,0.0,0.0,0.0,0.0,0.0,0.0,0.0,0.0,2.5303,2.5303,2.5303,2.5303,2.5303,2.5302,2.5301,2.5301,2.755,2.823,2.5623,2.5869,2.6111,2.5744,2.6781,2.733,2.7024,2.6928,2.6995,2.7203,2.6186,2.559,2.5535,2.5463,2.5453,2.5492,2.5376,2.5294,2.5293,2.5293,2.5293,2.5303,2.5303,2.529,2.5287,2.5088,2.4737,2.4329,2.4246,2.4189,2.4194,2.4208,2.4187,2.4208,2.42,2.34,2.2306,2.231,2.2298,2.231,2.231,2.2283,2.2332,2.2461,2.2824,2.3041,2.213,2.1715,2.1521,2.1213,2.0715,2.0314,2.0314,2.0375,2.0468,2.0468,2.0468,2.0321,1.9781,1.8823,1.8004,1.767,1.8017,1.8864,2.0475,2.1275,2.1842,2.2247,2.2308,2.1991,2.1086,2.0991,2.0599,1.9588,1.8936,1.8558,1.8469,1.837,1.8644,1.934,1.9286,1.9381,1.9692,1.9718,1.9687,1.9679,1.6394,1.4251,1.3205,1.3205,1.3191,0.0,0.0,0.0,0.0,0.0,0.0,0.0,0.0,0.0,0.0,0.0,2.5303,2.5303,2.5303,2.5303,2.5303,2.5303,2.5303,2.5303,2.6881,2.795,2.7661,2.6843,2.6058,2.5455,2.6087,2.6758,2.7293,2.6727,2.6405,2.656,2.591,2.5531,2.5504,2.541,2.5398,2.5444,2.536,2.5301,2.5303,2.5303,2.5303,2.5303,2.531,2.5225,2.5113,2.5087,2.4867,2.4459,2.4281,2.4208,2.4154,2.3562,2.331,2.333,2.3325,2.2903,2.2289,2.2303,2.231,2.2304,2.2307,2.2293,2.2295,2.2289,2.2608,2.2801,2.2027,2.1595,2.1294,2.1177,2.0794,2.0548,2.0853,2.1061,2.1081,2.0782,2.0685,2.0465,1.9614,1.8944,1.8369,1.7932,1.8594,1.9749,2.1349,2.202,2.2471,2.2919,2.2579,2.1991,2.1086,2.0991,2.055,1.9427,1.9239,1.9179,1.9266,1.9203,1.9316,1.9675,1.969,1.969,1.969,1.969,1.9697,1.9718,1.7809,1.5606,1.3195,1.3195,1.3188,0.0,0.0,0.0,0.0,0.0,0.0,0.0,0.0,0.0,0.0,0.0,0.0,0.0,2.5303,2.5303,2.5303,2.5303,2.5303,2.5303,2.5302,2.637,2.9284,2.8255,2.6834,2.5611,2.5574,2.6193,2.7596,2.6717,2.5971,2.5712,2.557,2.5498,2.5468,2.5369,2.534,2.5376,2.534,2.5303,2.5303,2.5303,2.5274,2.5234,2.5241,2.5082,2.4797,2.4995,2.4887,2.4522,2.4192,2.3995,2.3799,2.2717,2.2317,2.2297,2.2315,2.2297,2.2306,2.2292,2.231,2.2287,2.2304,2.231,2.2287,2.2287,2.2255,2.2147,2.1989,2.1472,2.1021,2.1166,2.0962,2.0887,2.1545,2.1769,2.1655,2.101,2.0863,2.0528,1.9415,1.911,1.8897,1.8613,1.928,2.0401,2.2175,2.2476,2.2795,2.3608,2.2823,2.1886,2.1103,2.0862,2.0249,1.9006,1.9244,1.9479,1.9566,1.9639,1.969,1.969,1.969,1.969,1.969,1.969,1.9677,1.971,1.9562,1.7531,1.3846,1.3402,1.3191,2.3459,2.361,2.3759,2.4114,0.0,0.0,0.0,0.0,0.0,0.0,0.0,0.0,0.0,2.5303,2.5303,2.5303,2.5303,2.5303,2.5303,2.5302,2.5494,2.6015,2.7094,2.7194,2.5638,2.5603,2.5738,2.5896,2.7148,2.7256,2.5784,2.557,2.5453,2.5322,2.5313,2.5293,2.5313,2.5313,2.5303,2.5303,2.5303,2.5175,2.4958,2.5022,2.4788,2.43,2.4173,2.3856,2.3449,2.3361,2.3041,2.2571,2.2391,2.2288,2.2286,2.2309,2.2298,2.2298,2.2293,2.231,2.231,2.2315,2.2304,2.231,2.2315,2.2027,2.1628,2.1259,2.1086,2.0971,2.0831,2.0745,2.0887,2.1545,2.2113,2.2364,2.167,2.1542,2.1334,2.0643,1.9687,1.9311,2.0254,2.0962,2.1733,2.2809,2.3253,2.3486,2.3465,2.2425,2.1538,2.1055,2.0283,1.9585,1.8954,1.8574,1.8535,1.9006,1.9442,1.969,1.969,1.969,1.969,1.969,1.969,1.9696,1.9702,1.8794,1.7826,1.6768,1.4341,1.3191,2.3392,2.3566,2.3735,0.0,0.0,2.4588,2.4793,0.0,0.0,0.0,0.0,0.0,0.0,2.5303,2.5303,2.5303,2.5311,2.529,2.5293,2.5293,2.5293,2.5303,2.6016,2.6251,2.5679,2.5661,2.5663,2.56,2.6401,2.6484,2.5532,2.5434,2.536,2.5293,2.5303,2.5303,2.5303,2.5299,2.5228,2.5083,2.5083,2.5022,2.491,2.4818,2.4576,2.4182,2.3729,2.334,2.3024,2.2788,2.2554,2.2298,2.2295,2.2286,2.231,2.231,2.231,2.231,2.231,2.231,2.231,2.231,2.231,2.231,2.231,2.1957,2.1573,2.1553,2.1082,2.0715,2.1137,2.1246,2.15,2.2488,2.2951,2.2901,2.1917,2.1693,2.1389,2.043,2.0114,2.0247,2.1038,2.1888,2.2858,2.3957,2.3802,2.3577,2.366,2.246,2.1368,2.0682,2.0008,1.9405,1.893,1.8419,1.8341,1.8855,1.9406,1.969,1.969,1.969,1.969,1.969,1.969,1.969,1.969,1.9233,1.8555,1.7776,1.5874,1.466,2.3437,2.361,2.3837,0.0,0.0,2.4783,2.5035,0.0,0.0,0.0,0.0,0.0,0.0,2.5293,2.5312,2.537,2.5332,2.5306,2.5311,2.5303,2.5303,2.5303,2.5291,2.5411,2.5668,2.5709,2.5703,2.5703,2.5709,2.5574,2.5318,2.5305,2.5297,2.5313,2.5303,2.5303,2.5303,2.5138,2.503,2.4991,2.4885,2.4839,2.4825,2.4566,2.4317,2.4044,2.3368,2.3017,2.2825,2.2451,2.2306,2.2297,2.2292,2.231,2.231,2.231,2.231,2.231,2.231,2.231,2.231,2.231,2.231,2.231,2.231,2.1957,2.1606,2.1745,2.1185,2.0747,2.1678,2.1919,2.2218,2.3325,2.3508,2.3098,2.1928,2.1592,2.1206,2.0228,2.0456,2.1048,2.1844,2.2731,2.3707,2.4804,2.4359,2.3832,2.3637,2.2504,2.1311,2.0246,1.9606,1.8948,1.8182,1.7733,1.7773,1.8468,1.9155,1.9566,1.969,1.969,1.9747,1.9839,1.9839,1.9839,1.9839,1.9839,1.9173,1.7892,1.705,1.6009,2.4132,2.4151,2.4209,2.4392,2.4476,0.0,2.5702,2.5351,0.0,2.66,0.0,0.0,2.5303,2.5307,2.5379,2.5623,2.5464,2.529,2.5302,2.5309,2.5303,2.5303,2.5291,2.5411,2.5668,2.5709,2.5703,2.5703,2.571,2.5576,2.5313,2.529,2.5293,2.5303,2.5303,2.5303,2.5303,2.4618,2.4605,2.5271,2.4826,2.4622,2.4603,2.421,2.3928,2.3717,2.3034,2.2737,2.2686,2.2419,2.2304,2.2304,2.231,2.231,2.231,2.231,2.231,2.231,2.231,2.231,2.231,2.231,2.231,2.231,2.231,2.1957,2.1538,2.1183,2.1153,2.1439,2.2355,2.2649,2.2772,2.3445,2.3157,2.2575,2.1843,2.1266,2.0832,2.0743,2.0769,2.1315,2.3069,2.3762,2.4273,2.4748,2.518,2.4805,2.3025,2.2362,2.1429,1.9823,1.8797,1.7545,1.5959,1.5748,1.6145,1.7247,1.8338,1.9169,1.969,1.969,1.9874,2.0246,2.0246,2.0246,2.0246,2.0246,1.9256,1.7344,1.7265,1.6413,2.4393,2.4478,2.4559,2.4512,2.4666,0.0,0.0,2.6739,2.7174,2.7024,2.6081,0.0,2.5303,2.5294,2.5395,2.5665,2.5609,2.5492,2.5323,2.529,2.5293,2.5288,2.5305,2.541,2.5675,2.5696,2.5703,2.5694,2.5554,2.5415,2.5299,2.5299,2.5303,2.5303,2.5097,2.4487,2.3443,2.3151,2.3554,2.4605,2.4448,2.4241,2.4057,2.3883,2.366,2.3369,2.2898,2.2695,2.2669,2.2398,2.231,2.231,2.231,2.231,2.231,2.231,2.231,2.231,2.231,2.231,2.231,2.231,2.231,2.231,2.231,2.1957,2.1687,2.2112,2.209,2.1941,2.2039,2.2368,2.2832,2.3445,2.3143,2.2512,2.1852,2.121,2.0795,2.0795,2.1349,2.2295,2.3712,2.4721,2.5452,2.5931,2.5748,2.4977,2.3209,2.2489,2.1355,1.9369,1.7892,1.6634,1.5664,1.5564,1.5891,1.6663,1.7746,1.876,1.9675,1.969,1.9782,1.9929,1.9945,1.9945,1.9945,1.9945,1.9352,1.8295,1.76,1.6958,2.4594,2.47,2.479,0.0,0.0,0.0,2.6178,2.7577,2.8568,2.8153,2.6583,2.5303,2.5302,2.5305,2.5386,2.5651,2.5707,2.5604,2.5341,2.5297,2.529,2.5298,2.5362,2.5492,2.5679,2.5699,2.5702,2.5703,2.4471,2.3722,2.3707,2.4212,2.4505,2.4505,2.4181,2.3404,2.2144,2.1943,2.2402,2.3479,2.3599,2.3656,2.3638,2.3459,2.3259,2.3021,2.273,2.2573,2.2563,2.2388,2.231,2.231,2.231,2.231,2.231,2.231,2.231,2.231,2.231,2.231,2.231,2.231,2.231,2.231,2.231,2.1957,2.1704,2.2208,2.2357,2.2217,2.1798,2.22,2.2801,2.323,2.268,2.1974,2.1534,2.1064,2.093,2.1266,2.214,2.3213,2.4531,2.5438,2.6073,2.632,2.5815,2.478,2.307,2.23,2.1078,1.8898,1.6998,1.5696,1.5365,1.496,1.5163,1.6065,1.6974,1.8074,1.9406,1.9603,1.9818,2.012,1.998,1.998,2.012,1.998,1.9536,1.8878,1.8148,1.7856,2.4746,2.4804,2.4828,0.0,0.0,0.0,2.6339,2.767,2.9,3.015,2.7672,2.5298,2.5302,2.5299,2.5386,2.5659,2.5698,2.5601,2.5347,2.5294,2.5294,2.5294,2.5538,2.5698,2.5701,2.5699,2.5702,2.5709,2.2344,2.0303,2.0302,2.1891,2.2793,2.2793,2.2469,2.2138,2.1793,2.1207,2.1237,2.1899,2.2291,2.2839,2.3469,2.2944,2.2695,2.2669,2.2426,2.231,2.231,2.231,2.231,2.231,2.231,2.231,2.231,2.231,2.231,2.2282,2.231,2.231,2.2282,2.231,2.231,2.231,2.231,2.1957,2.1538,2.1134,2.1638,2.2217,2.1798,2.2175,2.2694,2.2694,2.1752,2.0795,2.0795,2.0795,2.1148,2.2281,2.304,2.4024,2.5709,2.5997,2.5924,2.5662,2.5263,2.4295,2.2341,2.172,2.0622,1.8319,1.6065,1.4698,1.4698,1.361,1.3627,1.5372,1.6009,1.71,1.8841,1.9406,2.012,2.0959,2.0516,2.0516,2.1007,2.0516,1.9814,1.8893,1.8893,1.9009,2.4924,2.503,0.0,2.5022,0.0,0.0,0.0,2.6486,0.0,0.0,2.7675,2.536,2.5543,2.5586,2.5601,2.5698,2.5698,2.5679,2.5581,2.5586,2.5585,2.558,2.5654,2.5707,2.57,2.5702,2.5707,2.5691,2.2348,2.0296,2.0304,2.1889,2.2757,2.2661,2.2422,2.191,2.1091,2.0775,2.0651,2.0717,2.111,2.1869,2.2919,2.278,2.2599,2.2398,2.2321,2.231,2.231,2.231,2.231,2.231,2.231,2.231,2.231,2.231,2.2106,2.1853,2.218,2.2077,2.1853,2.218,2.231,2.231,2.231,2.1957,2.162,2.1697,2.198,2.2194,2.1792,2.1839,2.21,2.2603,2.1752,2.0944,2.1342,2.1113,2.1293,2.2878,2.3628,2.4427,2.5746,2.6262,2.6369,2.5944,2.5359,2.4183,2.1954,2.0596,1.9369,1.8298,1.6102,1.4698,1.4698,1.4387,1.4376,1.4903,1.6583,1.7972,1.8841,1.9406,1.9818,2.0085,1.9945,1.9945,2.0085,1.9945,1.9536,1.893,1.943,1.9771,2.4621,2.4734,0.0,2.5075,2.5214,2.5303,2.5339,0.0,0.0,2.9799,2.775,2.5502,2.5675,2.5696,2.5694,2.5694,2.5694,2.5694,2.5694,2.5701,2.5696,2.5693,2.5694,2.57,2.5702,2.5694,2.5105,2.3665,2.1524,2.0308,2.0291,2.1184,2.1646,2.1568,2.1343,2.095,2.0331,2.0037,2.0065,2.0435,2.0586,2.1322,2.2537,2.2537,2.2436,2.231,2.231,2.231,2.231,2.231,2.231,2.231,2.231,2.231,2.231,2.231,2.2003,2.1658,2.1928,2.1735,2.143,2.1869,2.2032,2.2061,2.2237,2.1869,2.1404,2.1568,2.1624,2.1568,2.1116,2.1147,2.142,2.1838,2.1369,2.0894,2.1245,2.1615,2.2275,2.3531,2.4387,2.5201,2.6123,2.6505,2.6556,2.6085,2.4841,2.3206,2.1153,1.9601,1.8481,1.7895,1.5945,1.4698,1.4698,1.4468,1.4422,1.4698,1.6608,1.7985,1.8574,1.9281,1.9782,1.9945,1.9782,1.9782,1.9929,1.9782,1.9624,1.9456,2.0027,2.0685,2.413,2.4168,2.4302,2.5101,2.5293,0.0,2.5383,2.5367,2.6207,2.9319,2.7692,2.5693,2.5703,2.5699,2.5703,2.5703,2.5703,2.5703,2.5703,2.5703,2.5586,2.5273,2.5351,2.5389,2.524,2.5215,2.3839,2.0557,2.0276,2.0276,2.0257,2.0097,1.9983,1.9954,1.9726,1.9569,1.956,1.9182,1.9541,2.0569,2.046,2.0976,2.2107,2.2243,2.231,2.231,2.231,2.231,2.231,2.231,2.231,2.231,2.231,2.231,2.231,2.231,2.2003,2.1582,2.1582,2.1337,2.1055,2.143,2.1582,2.1658,2.2061,2.1615,2.0991,2.0959,2.0822,2.0555,1.9966,2.0245,2.0712,2.0664,2.0729,2.0795,2.0894,2.2243,2.3673,2.4194,2.5217,2.6156,2.6624,2.6691,2.6471,2.5832,2.384,2.1812,2.0023,1.8869,1.7935,1.735,1.5776,1.4789,1.4789,1.4283,1.419,1.4744,1.6341,1.7518,1.8066,1.9132,1.9874,2.0246,1.9874,1.9874,2.0246,1.9909,1.9965,2.0366,2.0799,2.1703,0.0,2.4582,0.0,2.5101,2.5339,2.5406,2.5453,2.5515,2.5749,2.647,2.6149,2.5701,2.57,2.5703,2.5703,2.5703,2.5703,2.5703,2.5703,2.5703,2.4707,2.2012,2.2809,2.3034,2.1661,2.1492,2.1133,2.0352,2.0146,2.0058,2.0069,1.9922,1.979,1.9695,1.9636,1.9442,1.9135,1.9035,1.8913,1.8756,1.9883,2.0411,2.0525,2.1742,2.231,2.231,2.231,2.231,2.231,2.231,2.231,2.231,2.231,2.231,2.231,2.231,2.2003,2.1582,2.1582,2.1337,2.0991,2.1086,2.1337,2.1552,2.1354,2.1166,2.0926,2.055,2.0574,2.0463,1.9387,1.9598,1.9959,1.9502,2.0088,2.0944,2.1376,2.2548,2.3773,2.4768,2.5508,2.6156,2.6624,2.6691,2.6034,2.4102,2.3141,2.1776,1.9404,1.8975,1.8493,1.7485,1.6219,1.541,1.541,1.5276,1.5264,1.541,1.6957,1.7973,1.8092,1.9132,1.9747,1.9854,1.9747,1.9747,1.9854,2.0054,2.0335,2.0719,2.1898,2.2817,0.0,0.0,0.0,2.5136,0.0,2.542,2.5535,2.5566,2.5605,2.5636,2.5676,2.5697,2.5703,2.5703,2.5703,2.5703,2.5703,2.5703,2.5703,2.5019,2.3945,2.2402,2.1947,2.1382,2.0447,2.0313,2.0257,2.0154,2.0058,1.9964,1.9912,1.9786,1.9669,1.9596,1.9513,1.9368,1.915,1.8913,1.8856,1.8912,1.9447,1.9802,2.0052,2.1617,2.231,2.231,2.231,2.2163,2.1974,2.2209,2.218,2.2003,2.2209,2.231,2.231,2.231,2.2003,2.1582,2.1582,2.1197,2.0715,2.115,2.1134,2.1039,2.1213,2.1023,2.0616,2.0382,2.0259,2.0012,1.9148,1.9346,1.9754,1.951,2.0146,2.1062,2.188,2.3236,2.4585,2.5411,2.5997,2.6402,2.6656,2.6084,2.4954,2.3088,2.1987,2.0785,1.9211,1.8536,1.7929,1.7049,1.6134,1.5588,1.5588,1.5588,1.5588,1.5588,1.7177,1.8106,1.8106,1.9132,1.969,1.969,1.969,1.9782,2.0,2.0369,2.0831,2.1464,2.2495,2.3545,0.0,0.0,2.4237,2.483,2.5098,0.0,2.5353,2.5508,2.5634,2.5683,2.5703,2.5703,2.5703,2.5703,2.5703,2.5703,2.5703,2.5586,2.5293,2.4316,2.3574,2.3437,2.1805,2.0603,2.034,2.0286,2.0188,2.0003,1.9963,1.989,1.9774,1.963,1.9541,1.9541,1.9398,1.9259,1.918,1.8789,1.8865,1.936,1.9041,1.9367,2.0238,2.1532,2.2124,2.2124,2.2243,2.2032,2.1628,2.2032,2.1957,2.1658,2.2032,2.2237,2.231,2.231,2.2032,2.1688,2.1552,2.107,2.0601,2.1197,2.0943,2.055,2.1197,2.0862,2.028,2.0227,1.9965,1.9566,1.9043,1.9243,1.9587,1.9684,2.0255,2.1066,2.2209,2.3833,2.5196,2.5691,2.6283,2.664,2.6483,2.5094,2.3583,2.2356,2.0861,1.9629,1.8906,1.7921,1.7076,1.6552,1.6051,1.5776,1.5776,1.5852,1.592,1.6061,1.7435,1.8305,1.8416,1.9302,1.9803,1.9803,1.9803,2.0,2.0385,2.0975,2.1658,2.2515,2.3305,2.4405,0.0,0.0,2.4022,0.0,2.3859,2.4456,2.4466,2.509,2.5683,2.5703,2.5703,2.5703,2.5703,2.5703,2.5703,2.5703,2.5703,2.5176,2.3652,2.4551,2.4296,2.1407,2.1597,2.155,2.0487,2.0188,2.0021,1.9993,1.9778,1.9649,1.9623,1.9438,1.9335,1.9335,1.9305,1.9097,1.8698,1.8623,1.8423,1.8058,1.8636,1.9638,2.1068,2.1245,2.1356,2.1363,2.2023,2.2032,2.1612,2.1658,2.1658,2.1628,2.1658,2.1928,2.231,2.231,2.2254,2.2106,2.1354,2.1244,2.1321,2.0667,2.0682,2.0862,2.055,2.0366,2.0212,1.9874,1.9747,1.9566,1.9043,1.895,1.8999,1.9046,1.9563,2.0486,2.2058,2.3421,2.4454,2.4884,2.5913,2.6404,2.5547,2.3684,2.2059,2.1294,2.0469,1.9339,1.7732,1.7393,1.7076,1.6552,1.6423,1.638,1.638,1.6811,1.73,1.7882,1.8462,1.9061,1.9649,2.0038,2.0212,2.0212,2.0212,2.0403,2.0735,2.2242,2.3316,2.4035,2.5353,2.6236,2.4817,2.4161,2.3446,0.0,2.3329,2.3769,2.4231,2.4687,2.5117,2.5605,2.5703,2.5703,2.5703,2.5703,2.5703,2.5703,2.5662,2.5383,2.4602,2.4707,2.4124,2.2172,2.1891,2.1421,2.0339,2.0084,1.9943,1.9797,1.9656,1.9541,1.9442,1.935,1.9305,1.9305,1.9198,1.9034,1.8843,1.8528,1.8187,1.7811,1.8555,1.9249,1.9925,2.0525,2.1044,2.1433,2.1749,2.1491,2.0894,2.1181,2.1102,2.0927,2.1413,2.1735,2.1928,2.2209,2.231,2.2254,2.1857,2.1675,2.1521,2.1165,2.0846,2.0583,2.0348,2.0158,1.9945,1.9747,1.969,1.9639,1.9406,1.9369,1.942,1.9803,2.0028,2.0488,2.1877,2.2923,2.3777,2.4445,2.5046,2.473,2.2513,2.1358,2.0466,1.9775,1.9041,1.8273,1.7407,1.7034,1.6752,1.6522,1.6522,1.6637,1.6909,1.7531,1.7958,1.818,1.9194,1.9796,1.9715,2.074,2.142,2.1617,2.142,2.1601,2.2209,2.3539,2.4593,2.5338,2.6147,2.6886,0.0,0.0,2.3257,2.2864,2.2949,2.3213,2.3652,2.4082,2.457,2.5234,2.5547,2.5683,2.5683,2.5683,2.5683,2.5683,2.5634,2.552,2.5275,2.4834,2.4195,2.3281,2.2532,2.1707,2.0685,2.0403,2.0096,1.9675,1.9582,1.9471,1.9305,1.9305,1.9274,1.923,1.9086,1.9021,1.9092,1.861,1.818,1.7811,1.8555,1.893,1.9068,2.0058,2.0787,2.129,2.1399,2.1007,2.0314,2.0682,2.0616,2.0366,2.1039,2.1321,2.1491,2.184,2.2032,2.2106,2.202,2.1811,2.1582,2.1491,2.0943,2.0314,2.0314,2.0035,1.969,1.969,1.969,1.969,1.969,1.969,1.9809,2.0333,2.0381,2.0621,2.192,2.27,2.334,2.3868,2.3899,2.3047,2.0489,1.9863,1.9506,1.8974,1.8152,1.7477,1.7133,1.6752,1.6522,1.6522,1.6522,1.6774,1.7468,1.8131,1.8727,1.9214,2.0321,2.0931,2.0773,2.1997,2.2848,2.3126,2.3235,2.3483,2.3846,2.4968,2.5867,2.6545,2.7002,2.7601,0.0,2.4369,0.0,2.2272,2.2495,2.291,2.2187,2.3262,2.4414,2.4453,2.5117,2.5683,2.5629,2.566,2.5683,2.5627,2.5603,2.5297,2.4408,2.4944,2.4996,2.3804,2.3552,2.3079,2.1996,2.1382,2.0694,1.9854,1.9504,1.9305,1.9305,1.9305,1.9196,1.9018,1.9019,1.9091,1.9269,1.9013,1.8511,1.7811,1.8555,1.9077,1.941,2.0151,2.0441,2.0366,2.0829,2.0748,2.0314,2.0314,2.0314,2.0299,2.0348,2.0649,2.1023,2.1071,2.1306,2.1582,2.1181,2.1306,2.1521,2.115,2.0682,2.0314,2.0314,2.0035,1.969,1.969,1.969,1.969,1.969,1.969,1.969,1.9735,2.0015,2.0722,2.2312,2.3029,2.3278,2.2859,2.2443,2.1887,2.107,2.0238,1.9693,1.9637,1.8484,1.7317,1.6612,1.6522,1.6522,1.6522,1.6522,1.6969,1.8163,1.8739,1.9975,2.2248,2.234,2.2786,2.3898,2.4181,2.4282,2.4313,2.5778,2.6171,2.5382,2.6584,2.7344,2.7728,2.8498,2.8906,0.0,0.0,0.0,2.2928,2.248,2.2383,2.2617,2.3125,2.3711,2.4277,2.5098,2.5683,2.5607,2.5629,2.5607,2.5551,2.5489,2.5354,2.5014,2.5205,2.5015,2.4058,2.3931,2.3254,2.1583,2.1687,2.1416,2.0325,2.0655,2.0647,2.0097,1.9948,1.9611,1.9019,1.8678,1.8676,1.9041,1.8965,1.9012,1.9208,1.9219,1.9535,2.0106,2.0302,2.0332,2.028,2.0193,2.0085,1.9909,1.9909,1.9909,1.9929,2.0177,2.0416,2.0583,2.0894,2.1086,2.1244,2.1337,2.1306,2.1181,2.1055,2.0682,2.0246,2.0,1.9803,1.969,1.969,1.969,1.969,1.969,1.969,1.9854,2.0413,2.0996,2.1677,2.2458,2.2429,2.2115,2.168,2.1325,2.0923,2.0253,1.9914,1.9398,1.8492,1.7542,1.6796,1.6544,1.6795,1.6993,1.6993,1.7726,1.848,1.9265,2.0561,2.1694,2.2401,2.3396,2.4039,2.433,2.5135,2.579,2.6251,2.7298,2.7438,2.6669,2.7547,2.8197,2.8594,2.8888,2.8994,2.498,0.0,0.0,2.375,2.3125,2.2734,2.2695,2.3125,2.3613,2.3904,2.486,2.5636,2.5551,2.5539,2.5526,2.5463,2.5428,2.5398,2.536,2.5321,2.5081,2.4465,2.4408,2.3749,2.2067,2.234,2.2181,2.1092,2.1489,2.1418,2.0539,2.0641,2.03,1.9309,1.922,1.9098,1.8894,1.9401,1.979,2.0002,2.0004,2.0108,2.0297,2.0464,2.0398,2.0089,1.9818,1.969,1.969,1.969,1.969,1.9726,2.0,2.0089,2.0124,2.0431,2.0632,2.0781,2.107,2.0975,2.0764,2.0764,2.0449,2.007,1.9782,1.969,1.969,1.969,1.969,1.969,1.969,1.969,1.9889,2.0599,2.1129,2.1596,2.1973,2.2015,2.1804,2.1196,2.0785,2.032,1.9797,1.969,1.9391,1.8468,1.7683,1.713,1.6909,1.7284,1.7584,1.7618,1.8508,1.9515,2.0477,2.1821,2.2802,2.3309,2.4515,2.5178,2.5164,2.6199,2.6989,2.75,2.8243,2.836,2.7882,2.836,2.8749,2.8994,2.8994,2.8929,0.0,0.0,0.0,2.4648,2.4414,2.3965,2.2344,2.3223,2.4159,2.3281,2.4427,2.5558,2.5389,2.5386,2.5398,2.5391,2.5391,2.5379,2.5303,2.5284,2.5214,2.5022,2.4998,2.4601,2.3587,2.3393,2.2967,2.2102,2.1941,2.1492,2.0613,2.1328,2.1171,1.9848,2.0715,2.0492,1.8978,2.0433,2.0805,2.0044,2.0795,2.0704,1.9939,2.0639,2.0499,1.969,1.969,1.969,1.969,1.969,1.969,1.969,1.969,1.969,1.969,1.969,1.9945,2.028,2.0314,2.028,2.028,2.0314,2.0035,1.969,1.969,1.969,1.969,1.969,1.969,1.969,1.969,1.969,1.9818,2.0212,2.0345,2.0462,2.0926,2.1875,2.2427,2.1483,2.0744,2.0174,1.9782,1.969,1.9707,1.9662,1.9055,1.8373,1.7665,1.7935,1.8193,1.8318,1.8864,1.9964,2.1787,2.2408,2.34,2.5134,2.5742,2.6227,2.6691,2.747,2.7897,2.7926,2.8626,2.8994,2.8994,2.8994,2.8994,2.8994,2.8994,2.8773,2.5564,0.0,0.0,0.0,0.0,0.0,2.3676,2.3913,2.4027,2.3198,2.4366,2.5318,2.4665,2.5018,2.5376,2.533,2.534,2.5322,2.5293,2.5173,2.5057,2.501,2.4917,2.4464,2.345,2.3854,2.3776,2.2792,2.3235,2.318,2.2337,2.1566,2.0778,1.9979,2.0756,2.1,2.0577,2.1,2.1177,2.1135,2.0531,2.0223,2.0184,2.0081,1.9909,1.969,1.969,1.969,1.969,1.969,1.969,1.969,1.969,1.969,1.969,1.969,1.9782,1.9909,2.0177,2.0089,1.9909,2.0227,2.0035,1.969,1.969,1.969,1.969,1.969,1.969,1.969,1.969,1.969,1.9818,2.0212,2.1073,2.1698,2.1292,2.189,2.2079,2.0814,2.0569,2.0406,1.9801,1.969,1.9435,1.8673,1.8584,1.8321,1.7489,1.856,1.9433,1.9428,2.0816,2.204,2.2899,2.3904,2.4866,2.5709,2.6245,2.6708,2.7115,2.7636,2.7992,2.8264,2.8749,2.8994,2.8994,2.8994,2.8994,2.8994,2.8682,2.8386,0.0,0.0,0.0,0.0,0.0,0.0,2.385,2.399,2.3888,2.2673,2.3489,2.4244,2.3712,2.3991,2.4411,2.4745,2.4793,2.4928,2.5245,2.5141,2.4986,2.4911,2.4771,2.4404,2.3744,2.4097,2.4136,2.3529,2.3933,2.3931,2.3321,2.2046,2.1143,2.0678,2.1307,2.1498,2.1204,2.1498,2.1642,2.1582,2.0931,2.0496,2.028,2.0054,1.9874,1.969,1.969,1.969,1.969,1.969,1.969,1.969,1.969,1.969,1.969,1.969,1.969,1.9711,1.9965,1.9909,1.9747,1.9965,1.9909,1.969,1.969,1.969,1.969,1.969,1.969,1.969,1.969,1.969,1.9747,2.0,2.0895,2.1568,2.1133,2.1613,2.1782,2.0676,2.0367,2.0154,1.975,1.969,1.9479,1.8855,1.8925,1.8884,1.8451,1.9484,2.0367,2.0703,2.2077,2.3218,2.377,2.4866,2.5652,2.5977,2.6436,2.6825,2.7019,2.7607,2.7992,2.8183,2.8725,2.8994,2.8994,2.8994,2.8929,2.8749,2.8515,2.8139,0.0,0.0,0.0,0.0,2.5438,0.0,2.3597,2.3854,2.3922,2.223,2.2565,2.3132,2.2973,2.3024,2.3331,2.411,2.4225,2.4485,2.5187,2.5099,2.4924,2.4799,2.4591,2.4393,2.4209,2.419,2.419,2.419,2.417,2.3996,2.3671,2.2642,2.1949,2.17,2.2085,2.1961,2.1242,2.1944,2.2003,2.146,2.1521,2.107,2.0212,2.0212,2.0035,1.969,1.969,1.969,1.969,1.969,1.969,1.969,1.969,1.969,1.969,1.969,1.969,1.969,1.969,1.969,1.969,1.969,1.969,1.969,1.969,1.969,1.969,1.969,1.969,1.969,1.969,1.969,1.969,1.969,2.0213,2.0692,2.0617,2.1126,2.1395,2.0737,2.0168,1.9779,1.969,1.969,1.9705,1.9707,1.9758,1.9849,1.998,2.0548,2.1208,2.1971,2.2925,2.3818,2.4545,2.5449,2.6013,2.6068,2.6505,2.6758,2.6758,2.753,2.7954,2.7954,2.8651,2.8994,2.8929,2.8929,2.8749,2.8394,2.8324,2.7946,0.0,0.0,0.0,2.5097,2.5097,0.0,2.4888,2.4973,2.4819,2.3818,2.4272,2.4629,2.3975,2.437,2.487,2.5043,2.5082,2.512,2.5284,2.5024,2.4828,2.4804,2.4478,2.4247,2.419,2.419,2.419,2.419,2.3937,2.3649,2.3323,2.2832,2.2427,2.2167,2.2254,2.2039,2.1549,2.2039,2.1705,2.0567,2.0959,2.0665,1.9818,1.9818,1.9782,1.969,1.969,1.969,1.969,1.969,1.969,1.969,1.969,1.969,1.969,1.969,1.969,1.969,1.969,1.969,1.969,1.969,1.969,1.969,1.969,1.969,1.969,1.969,1.969,1.969,1.969,1.969,1.969,1.969,2.0213,2.0557,2.0004,2.0423,2.0707,2.0019,2.0228,2.0333,1.9779,1.969,1.9745,1.9846,2.0233,2.0546,2.0686,2.165,2.2516,2.3035,2.3782,2.4595,2.5598,2.5888,2.6156,2.6556,2.6954,2.7178,2.7178,2.7918,2.8298,2.8298,2.8749,2.8839,2.8515,2.8515,2.8471,2.8394,2.7805,2.7439,2.505,2.501,2.4986,2.4917,2.4904,0.0,0.0,2.4395,2.419,2.3445,2.3609,2.3802,2.3515,2.3774,2.4197,2.462,2.4283,2.4224,2.5037,2.4949,2.476,2.4654,2.4393,2.419,2.419,2.419,2.4132,2.3958,2.3795,2.3477,2.2972,2.2797,2.259,2.231,2.231,2.218,2.1957,2.218,2.1751,2.0649,2.0894,2.0532,1.969,1.969,1.969,1.969,1.969,1.969,1.969,1.969,1.969,1.969,1.969,1.969,1.969,1.969,1.969,1.969,1.969,1.969,1.969,1.969,1.969,1.969,1.969,1.969,1.969,1.969,1.969,1.969,1.969,1.969,1.969,1.969,1.9953,2.019,2.0191,2.0624,2.0855,2.0295,2.0367,2.0318,1.9771,1.9974,2.0229,2.0288,2.0822,2.1347,2.1742,2.2535,2.3259,2.3847,2.4689,2.5411,2.5961,2.6227,2.6539,2.6954,2.7178,2.7378,2.7589,2.8112,2.8496,2.87,2.8905,2.8797,2.8394,2.8237,2.8029,2.7833,2.7452,2.721,2.4998,2.4937,2.4872,2.4771,2.4746,2.4576,0.0,0.0,0.0,2.3056,2.2947,2.2993,2.316,2.3179,2.3352,2.3899,2.3452,2.3419,2.4525,2.4714,2.4685,2.4528,2.4173,2.4025,2.4171,2.419,2.4074,2.3732,2.3649,2.3346,2.2721,2.266,2.251,2.231,2.231,2.2254,2.218,2.2237,2.1811,2.0862,2.0975,2.0532,1.969,1.969,1.969,1.969,1.969,1.969,1.969,1.969,1.969,1.969,1.969,1.969,1.969,1.969,1.969,1.969,1.969,1.969,1.969,1.969,1.969,1.969,1.969,1.969,1.969,1.969,1.969,1.969,1.969,1.969,1.969,1.969,1.9686,1.9841,2.0378,2.0749,2.0916,2.0572,2.0324,2.0089,1.9747,2.0154,2.0557,2.0692,2.1171,2.1799,2.2619,2.3031,2.3606,2.4474,2.5335,2.5924,2.612,2.647,2.6873,2.7255,2.7378,2.7589,2.7964,2.8316,2.8658,2.8994,2.8994,2.8797,2.8394,2.8047,2.7678,2.7303,2.721,2.6987,2.4869,2.4682,2.4559,2.4545,2.4526,2.4556,2.4628,0.0,2.4634,2.4554,0.0,2.4549,2.4577,0.0,0.0,2.3682,2.4109,2.4304,2.3581,2.4094,2.4528,2.4512,2.3693,2.3419,2.4135,2.419,2.4074,2.3732,2.3414,2.3093,2.2721,2.249,2.2321,2.231,2.231,2.2106,2.1688,2.2106,2.1645,2.0382,2.0797,2.0532,1.969,1.969,1.969,1.969,1.969,1.969,1.969,1.969,1.969,1.969,1.969,1.969,1.969,1.969,1.969,1.969,1.969,1.969,1.969,1.969,1.969,1.969,1.969,1.969,1.969,1.969,1.969,1.969,1.969,1.969,1.969,1.969,1.9705,1.9713,1.9794,1.9867,1.9867,1.9831,1.9807,1.9747,1.9726,1.975,2.0004,2.0617,2.0782,2.1276,2.2559,2.275,2.3371,2.4948,2.5221,2.5635,2.6539,2.6657,2.6873,2.7255,2.7619,2.7992,2.8342,2.8725,2.8952,2.8994,2.8994,2.8797,2.8394,2.8047,2.7678,2.7303,2.6939,2.6758,2.4855,2.4746,2.4607,2.4393,2.4339,2.4339,2.4426,2.4444,2.4478,2.4591,0.0,0.0,0.0,0.0,0.0,0.0,2.4076,2.3936,2.399,2.3371,2.3268,2.421,2.3934,2.3823,2.4171,2.419,2.4074,2.3732,2.3392,2.3045,2.2721,2.2453,2.231,2.231,2.231,2.2209,2.2003,2.2209,2.1869,2.1054,2.1023,2.0665,2.0035,1.9818,1.969,1.969,1.969,1.969,1.969,1.969,1.969,1.969,1.969,1.969,1.969,1.969,1.969,1.969,1.969,1.969,1.969,1.969,1.969,1.969,1.969,1.969,1.969,1.969,1.969,1.969,1.969,1.969,1.969,1.969,1.969,1.969,1.969,1.9874,1.9965,1.9747,1.9874,1.9965,1.9747,2.0019,2.0378,2.0677,2.1365,2.2054,2.2649,2.3258,2.4095,2.5112,2.5503,2.5961,2.6657,2.6691,2.6873,2.7255,2.7862,2.8342,2.8725,2.8905,2.8994,2.8994,2.8994,2.87,2.8102,2.7982,2.756,2.6971,2.6791,2.6928,2.4888,2.476,2.4639,2.4284,2.419,2.419,2.419,2.419,2.4247,2.4393,2.4428,0.0,0.0,0.0,2.4564,0.0,0.0,2.3667,2.4038,2.3159,2.2887,2.4061,2.419,2.419,2.419,2.419,2.4016,2.3606,2.3346,2.3021,2.2625,2.2415,2.231,2.231,2.231,2.231,2.231,2.231,2.2061,2.1598,2.1181,2.0764,2.028,1.9874,1.969,1.969,1.969,1.969,1.969,1.969,1.969,1.969,1.969,1.969,1.969,1.969,1.969,1.969,1.969,1.969,1.969,1.969,1.969,1.969,1.969,1.969,1.969,1.969,1.969,1.969,1.969,1.969,1.969,1.969,1.969,1.969,1.969,1.9945,2.007,1.9747,1.9945,2.0035,1.9747,2.0094,2.0438,2.0438,2.141,2.2203,2.2383,2.331,2.4269,2.5112,2.554,2.6033,2.6657,2.6691,2.6873,2.7255,2.7984,2.854,2.8839,2.8929,2.8994,2.8994,2.8994,2.8676,2.802,2.7936,2.7652,2.7147,2.686,2.6996,2.4842,2.4654,2.4461,2.4266,2.419,2.419,2.419,2.419,2.419,2.4209,2.4209,2.4209,2.4209,2.4209,0.0,0.0,0.0,0.0,0.0,2.3676,2.4135,2.419,2.419,2.419,2.419,2.419,2.3917,2.3277,2.3212,2.2958,2.2349,2.231,2.231,2.231,2.231,2.231,2.231,2.231,2.2061,2.1598,2.1181,2.0764,2.028,1.9874,1.969,1.969,1.969,1.969,1.969,1.969,1.969,1.969,1.969,1.969,1.969,1.969,1.969,1.969,1.969,1.969,1.969,1.969,1.969,1.969,1.969,1.969,1.969,1.969,1.969,1.969,1.969,1.969,1.969,1.969,1.969,1.969,1.969,1.9711,1.9726,1.969,1.9711,1.9726,1.969,1.9705,1.972,1.972,2.0318,2.1006,2.165,2.2334,2.3402,2.5026,2.5221,2.5635,2.6624,2.6691,2.6873,2.7255,2.7984,2.842,2.842,2.8797,2.8994,2.8994,2.8994,2.8815,2.8376,2.8047,2.8035,2.833,2.7214,2.6708,2.4981,2.4809,2.4654,2.4444,2.4303,2.419,2.419,2.419,2.419,2.419,2.419,2.419,2.419,2.419,0.0,0.0,0.0,0.0,0.0,2.3832,2.3795,2.3566,2.3544,2.3544,2.3544,2.3099,2.2923,2.3177,2.2546,2.2268,2.2556,2.2415,2.231,2.231,2.231,2.231,2.231,2.2003,2.1764,2.1582,2.0878,2.0449,2.028,1.9874,1.969,1.969,1.969,1.969,1.969,1.969,1.969,1.969,1.969,1.969,1.969,1.969,1.969,1.969,1.969,1.969,1.969,1.969,1.969,1.969,1.969,1.969,1.969,1.969,1.969,1.9747,2.0035,2.0089,2.0089,2.0089,2.0089,2.0019,1.9747,1.969,1.969,1.969,1.969,1.969,1.969,2.0064,2.0363,2.0363,2.0932,2.1605,2.2263,2.2892,2.3788,2.5073,2.5221,2.5598,2.6607,2.6691,2.6873,2.7255,2.7512,2.789,2.8376,2.854,2.8725,2.8994,2.8994,2.87,2.8075,2.8183,2.8135,2.7998,2.786,2.7691,2.4993,2.4869,2.4731,2.4461,2.4303,2.419,2.419,2.419,2.419,2.419,2.419,2.419,2.419,2.419,0.0,0.0,0.0,0.0,0.0,2.3566,2.3259,2.3045,2.3117,2.3189,2.3189,2.2769,2.2635,2.301,2.237,2.2159,2.2529,2.2371,2.231,2.231,2.231,2.2209,2.2032,2.1764,2.1521,2.1368,2.0649,2.0314,2.028,1.9874,1.969,1.969,1.969,1.969,1.969,1.969,1.969,1.969,1.969,1.9848,2.0005,1.9762,1.969,1.969,1.969,1.969,1.969,1.969,1.969,1.969,1.969,1.969,1.9726,1.9874,1.9909,2.0,2.0431,2.055,2.055,2.055,2.0416,2.028,2.0174,1.9925,1.9747,1.9874,1.9818,1.969,1.969,2.0258,2.0722,2.0722,2.147,2.2203,2.2622,2.3221,2.3964,2.4816,2.5105,2.5598,2.6607,2.6691,2.6808,2.7051,2.721,2.7512,2.8002,2.8156,2.8412,2.8773,2.8791,2.8558,2.8075,2.8425,2.8259,2.7657,2.8579,2.8561]}]]